Wetterdaten: Sonntag, 03.02.2019
Datum Zeit Temp. A. Pool Temp. Temp. 5cm Feuchte A. Luftdruck Regen Wind Richtung Richtung Sonnenschein ET UV Solar Taupunkt Windchill Windben Empfang
03.02.2019 00:00 1,9 C 3,3 C 1,7 C 96 % 1001,0 hPa 0,0 l/m 3,2 km/h (1 Bft) O 83 0 min 0,000 mm 0,0 UV-I 0 W/m 1,3 C 1,9 C 3,2 km/h (1 Bft) 95,65 %
03.02.2019 00:02 1,9 C 3,3 C 1,7 C 96 % 1001,0 hPa 0,0 l/m 2,2 km/h (1 Bft) O 83 0 min 0,000 mm 0,0 UV-I 0 W/m 1,3 C 1,9 C 3,2 km/h (1 Bft) 94,74 %
03.02.2019 00:04 1,9 C 3,3 C 1,7 C 96 % 1001,0 hPa 0,0 l/m 1,5 km/h (1 Bft) O 83 0 min 0,000 mm 0,0 UV-I 0 W/m 1,3 C 1,9 C 3,2 km/h (1 Bft) 97,87 %
03.02.2019 00:06 1,9 C 3,3 C 1,7 C 96 % 1001,0 hPa 0,0 l/m 1,5 km/h (1 Bft) O 83 0 min 0,000 mm 0,0 UV-I 0 W/m 1,3 C 1,9 C 3,2 km/h (1 Bft) 96,00 %
03.02.2019 00:08 1,9 C 3,3 C 1,7 C 96 % 1001,0 hPa 0,0 l/m 0,9 km/h (0 Bft) O 83 0 min 0,000 mm 0,0 UV-I 0 W/m 1,3 C 1,9 C 1,6 km/h (1 Bft) 100,00 %
03.02.2019 00:10 1,8 C 3,3 C 1,7 C 96 % 1000,9 hPa 0,0 l/m 1,3 km/h (1 Bft) O 83 0 min 0,000 mm 0,0 UV-I 0 W/m 1,2 C 1,8 C 3,2 km/h (1 Bft) 100,00 %
03.02.2019 00:12 1,8 C 3,3 C 1,7 C 96 % 1000,9 hPa 0,0 l/m 0,6 km/h (0 Bft) O 83 0 min 0,000 mm 0,0 UV-I 0 W/m 1,2 C 1,8 C 1,6 km/h (1 Bft) 97,92 %
03.02.2019 00:14 1,7 C 3,3 C 1,7 C 96 % 1000,9 hPa 0,0 l/m 0,0 km/h (0 Bft) O 83 0 min 0,000 mm 0,0 UV-I 0 W/m 1,1 C 1,7 C 0,0 km/h (0 Bft) 98,11 %
03.02.2019 00:16 1,7 C 3,3 C 1,7 C 96 % 1000,9 hPa 0,0 l/m 0,9 km/h (0 Bft) O 83 0 min 0,000 mm 0,0 UV-I 0 W/m 1,1 C 1,7 C 1,6 km/h (1 Bft) 100,00 %
03.02.2019 00:18 1,7 C 3,3 C 1,7 C 96 % 1000,9 hPa 0,0 l/m 1,9 km/h (1 Bft) O 83 0 min 0,000 mm 0,0 UV-I 0 W/m 1,1 C 1,7 C 3,2 km/h (1 Bft) 100,00 %
03.02.2019 00:20 1,7 C 3,3 C 1,7 C 96 % 1000,9 hPa 0,0 l/m 2,2 km/h (1 Bft) O 83 0 min 0,000 mm 0,0 UV-I 0 W/m 1,1 C 1,7 C 3,2 km/h (1 Bft) 97,87 %
03.02.2019 00:22 1,7 C 3,3 C 1,7 C 96 % 1001,0 hPa 0,0 l/m 1,9 km/h (1 Bft) O 83 0 min 0,000 mm 0,0 UV-I 0 W/m 1,1 C 1,7 C 3,2 km/h (1 Bft) 94,44 %
03.02.2019 00:24 1,7 C 3,3 C 1,7 C 96 % 1001,0 hPa 0,0 l/m 1,3 km/h (1 Bft) O 83 0 min 0,000 mm 0,0 UV-I 0 W/m 1,1 C 1,7 C 3,2 km/h (1 Bft) 97,87 %
03.02.2019 00:26 1,8 C 3,3 C 1,7 C 96 % 1000,9 hPa 0,0 l/m 1,4 km/h (1 Bft) O 83 0 min 0,000 mm 0,0 UV-I 0 W/m 1,2 C 1,8 C 1,6 km/h (1 Bft) 95,74 %
03.02.2019 00:28 1,8 C 3,3 C 1,1 C 96 % 1000,9 hPa 0,2 l/m 0,9 km/h (0 Bft) O 83 0 min 0,000 mm 0,0 UV-I 0 W/m 1,2 C 1,8 C 1,6 km/h (1 Bft) 97,87 %
03.02.2019 00:30 1,8 C 3,3 C 1,1 C 96 % 1000,9 hPa 0,0 l/m 0,1 km/h (0 Bft) O 83 0 min 0,000 mm 0,0 UV-I 0 W/m 1,2 C 1,8 C 1,6 km/h (1 Bft) 98,00 %
03.02.2019 00:32 1,8 C 3,3 C 1,1 C 96 % 1000,9 hPa 0,0 l/m 0,0 km/h (0 Bft) O 83 0 min 0,000 mm 0,0 UV-I 0 W/m 1,2 C 1,8 C 0,0 km/h (0 Bft) 95,74 %
03.02.2019 00:34 1,8 C 3,3 C 1,1 C 96 % 1000,9 hPa 0,0 l/m 0,0 km/h (0 Bft) O 83 0 min 0,000 mm 0,0 UV-I 0 W/m 1,2 C 1,8 C 0,0 km/h (0 Bft) 95,74 %
03.02.2019 00:36 1,8 C 3,3 C 1,1 C 96 % 1000,9 hPa 0,0 l/m 1,6 km/h (1 Bft) O 83 0 min 0,000 mm 0,0 UV-I 0 W/m 1,2 C 1,8 C 3,2 km/h (1 Bft) 95,74 %
03.02.2019 00:38 1,8 C 3,3 C 1,1 C 96 % 1000,9 hPa 0,0 l/m 2,2 km/h (1 Bft) O 84 0 min 0,000 mm 0,0 UV-I 0 W/m 1,2 C 1,8 C 3,2 km/h (1 Bft) 97,87 %
03.02.2019 00:40 1,8 C 3,3 C 1,7 C 96 % 1000,9 hPa 0,0 l/m 2,1 km/h (1 Bft) O 84 0 min 0,000 mm 0,0 UV-I 0 W/m 1,2 C 1,8 C 3,2 km/h (1 Bft) 95,92 %
03.02.2019 00:42 1,8 C 3,3 C 1,7 C 96 % 1000,9 hPa 0,0 l/m 1,5 km/h (1 Bft) O 84 0 min 0,000 mm 0,0 UV-I 0 W/m 1,2 C 1,8 C 3,2 km/h (1 Bft) 97,87 %
03.02.2019 00:44 1,8 C 3,3 C 1,7 C 96 % 1000,9 hPa 0,0 l/m 2,7 km/h (1 Bft) S 171 0 min 0,000 mm 0,0 UV-I 0 W/m 1,2 C 1,8 C 3,2 km/h (1 Bft) 97,87 %
03.02.2019 00:46 1,7 C 3,3 C 1,7 C 96 % 1000,9 hPa 0,0 l/m 2,7 km/h (1 Bft) S 171 0 min 0,000 mm 0,0 UV-I 0 W/m 1,1 C 1,7 C 3,2 km/h (1 Bft) 93,62 %
03.02.2019 00:48 1,7 C 3,3 C 1,7 C 96 % 1000,9 hPa 0,2 l/m 2,3 km/h (1 Bft) S 171 0 min 0,000 mm 0,0 UV-I 0 W/m 1,1 C 1,7 C 3,2 km/h (1 Bft) 97,87 %
03.02.2019 00:50 1,8 C 3,3 C 1,7 C 96 % 1000,8 hPa 0,0 l/m 2,6 km/h (1 Bft) S 171 0 min 0,000 mm 0,0 UV-I 0 W/m 1,2 C 1,8 C 3,2 km/h (1 Bft) 97,87 %
03.02.2019 00:52 1,8 C 3,3 C 1,7 C 96 % 1000,8 hPa 0,2 l/m 3,0 km/h (1 Bft) S 171 0 min 0,000 mm 0,0 UV-I 0 W/m 1,2 C 1,8 C 6,4 km/h (2 Bft) 98,00 %
03.02.2019 00:54 1,8 C 3,3 C 1,7 C 96 % 1000,8 hPa 0,0 l/m 2,8 km/h (1 Bft) S 171 0 min 0,000 mm 0,0 UV-I 0 W/m 1,2 C 1,8 C 6,4 km/h (2 Bft) 97,87 %
03.02.2019 00:56 1,8 C 3,3 C 1,7 C 96 % 1000,8 hPa 0,0 l/m 1,9 km/h (1 Bft) S 171 0 min 0,000 mm 0,0 UV-I 0 W/m 1,2 C 1,8 C 3,2 km/h (1 Bft) 100,00 %
03.02.2019 00:58 1,7 C 3,3 C 1,7 C 96 % 1000,9 hPa 0,0 l/m 1,5 km/h (1 Bft) S 171 0 min 0,000 mm 0,0 UV-I 0 W/m 1,1 C 1,7 C 3,2 km/h (1 Bft) 100,00 %
03.02.2019 01:00 1,7 C 3,3 C 1,7 C 96 % 1000,9 hPa 0,2 l/m 4,6 km/h (1 Bft) S 183 0 min 0,000 mm 0,0 UV-I 0 W/m 1,1 C 1,7 C 6,4 km/h (2 Bft) 98,00 %
03.02.2019 01:02 1,8 C 3,3 C 1,7 C 96 % 1000,8 hPa 0,0 l/m 4,5 km/h (1 Bft) S-SW 198 0 min 0,000 mm 0,0 UV-I 0 W/m 1,2 C 1,8 C 6,4 km/h (2 Bft) 98,00 %
03.02.2019 01:04 1,9 C 3,3 C 1,7 C 97 % 1000,8 hPa 0,0 l/m 3,7 km/h (1 Bft) S-SW 201 0 min 0,000 mm 0,0 UV-I 0 W/m 1,5 C 1,9 C 4,8 km/h (1 Bft) 97,37 %
03.02.2019 01:06 1,9 C 3,3 C 1,7 C 97 % 1000,8 hPa 0,2 l/m 3,3 km/h (1 Bft) S-SW 201 0 min 0,000 mm 0,0 UV-I 0 W/m 1,5 C 1,9 C 4,8 km/h (1 Bft) 100,00 %
03.02.2019 01:08 1,9 C 3,3 C 1,7 C 97 % 1000,8 hPa 0,0 l/m 3,4 km/h (1 Bft) S-SW 202 0 min 0,000 mm 0,0 UV-I 0 W/m 1,5 C 1,9 C 4,8 km/h (1 Bft) 97,87 %
03.02.2019 01:10 1,9 C 3,3 C 1,7 C 97 % 1000,8 hPa 0,0 l/m 2,1 km/h (1 Bft) S-SW 202 0 min 0,000 mm 0,0 UV-I 0 W/m 1,5 C 1,9 C 3,2 km/h (1 Bft) 100,00 %
03.02.2019 01:12 1,9 C 3,3 C 1,7 C 97 % 1000,8 hPa 0,2 l/m 2,9 km/h (1 Bft) S-SW 202 0 min 0,000 mm 0,0 UV-I 0 W/m 1,5 C 1,9 C 4,8 km/h (1 Bft) 100,00 %
03.02.2019 01:14 1,9 C 3,3 C 1,7 C 97 % 1000,8 hPa 0,0 l/m 3,2 km/h (1 Bft) S-SW 202 0 min 0,000 mm 0,0 UV-I 0 W/m 1,5 C 1,9 C 4,8 km/h (1 Bft) 100,00 %
03.02.2019 01:16 1,8 C 3,3 C 1,7 C 97 % 1000,8 hPa 0,0 l/m 3,0 km/h (1 Bft) S-SW 202 0 min 0,000 mm 0,0 UV-I 0 W/m 1,4 C 1,8 C 4,8 km/h (1 Bft) 97,92 %
03.02.2019 01:18 1,8 C 3,3 C 1,7 C 97 % 1000,8 hPa 0,2 l/m 4,6 km/h (1 Bft) S-SW 211 0 min 0,000 mm 0,0 UV-I 0 W/m 1,4 C 1,8 C 6,4 km/h (2 Bft) 95,74 %
03.02.2019 01:20 1,8 C 3,3 C 1,7 C 97 % 1000,8 hPa 0,0 l/m 5,1 km/h (1 Bft) S-SW 197 0 min 0,000 mm 0,0 UV-I 0 W/m 1,4 C 1,8 C 6,4 km/h (2 Bft) 97,87 %
03.02.2019 01:22 1,8 C 3,3 C 1,7 C 97 % 1000,8 hPa 0,2 l/m 3,1 km/h (1 Bft) S-SW 197 0 min 0,000 mm 0,0 UV-I 0 W/m 1,4 C 1,8 C 4,8 km/h (1 Bft) 97,56 %
03.02.2019 01:24 1,8 C 3,3 C 1,7 C 97 % 1000,8 hPa 0,0 l/m 2,1 km/h (1 Bft) S-SW 197 0 min 0,000 mm 0,0 UV-I 0 W/m 1,4 C 1,8 C 3,2 km/h (1 Bft) 95,74 %
03.02.2019 01:26 1,8 C 3,3 C 1,7 C 97 % 1000,8 hPa 0,2 l/m 2,8 km/h (1 Bft) S-SW 197 0 min 0,000 mm 0,0 UV-I 0 W/m 1,4 C 1,8 C 4,8 km/h (1 Bft) 97,87 %
03.02.2019 01:28 1,8 C 3,3 C 1,7 C 97 % 1000,7 hPa 0,0 l/m 1,9 km/h (1 Bft) S-SW 197 0 min 0,000 mm 0,0 UV-I 0 W/m 1,4 C 1,8 C 3,2 km/h (1 Bft) 95,74 %
03.02.2019 01:30 1,8 C 3,3 C 1,7 C 97 % 1000,8 hPa 0,0 l/m 2,9 km/h (1 Bft) S-SW 205 0 min 0,000 mm 0,0 UV-I 0 W/m 1,4 C 1,8 C 3,2 km/h (1 Bft) 97,87 %
03.02.2019 01:32 1,8 C 3,3 C 1,7 C 97 % 1000,8 hPa 0,2 l/m 2,6 km/h (1 Bft) S-SW 205 0 min 0,000 mm 0,0 UV-I 0 W/m 1,4 C 1,8 C 4,8 km/h (1 Bft) 97,87 %
03.02.2019 01:34 1,8 C 3,3 C 1,7 C 97 % 1000,8 hPa 0,0 l/m 2,3 km/h (1 Bft) S-SW 205 0 min 0,000 mm 0,0 UV-I 0 W/m 1,4 C 1,8 C 4,8 km/h (1 Bft) 97,87 %
03.02.2019 01:36 1,8 C 3,3 C 1,7 C 97 % 1000,7 hPa 0,2 l/m 2,1 km/h (1 Bft) S-SW 206 0 min 0,000 mm 0,0 UV-I 0 W/m 1,4 C 1,8 C 3,2 km/h (1 Bft) 97,87 %
03.02.2019 01:38 1,8 C 3,3 C 1,7 C 97 % 1000,8 hPa 0,0 l/m 4,1 km/h (1 Bft) W-SW 239 0 min 0,000 mm 0,0 UV-I 0 W/m 1,4 C 1,8 C 6,4 km/h (2 Bft) 95,74 %
03.02.2019 01:40 1,8 C 3,3 C 1,7 C 97 % 1000,7 hPa 0,0 l/m 4,9 km/h (1 Bft) SW 232 0 min 0,000 mm 0,0 UV-I 0 W/m 1,4 C 1,8 C 6,4 km/h (2 Bft) 89,36 %
03.02.2019 01:42 1,8 C 3,3 C 1,7 C 97 % 1000,7 hPa 0,2 l/m 3,9 km/h (1 Bft) SW 227 0 min 0,000 mm 0,0 UV-I 0 W/m 1,4 C 1,8 C 6,4 km/h (2 Bft) 97,87 %
03.02.2019 01:44 1,8 C 3,3 C 1,7 C 97 % 1000,7 hPa 0,0 l/m 4,9 km/h (1 Bft) SW 217 0 min 0,000 mm 0,0 UV-I 0 W/m 1,4 C 1,8 C 6,4 km/h (2 Bft) 93,62 %
03.02.2019 01:46 1,8 C 3,3 C 1,7 C 97 % 1000,7 hPa 0,2 l/m 5,9 km/h (2 Bft) S-SW 207 0 min 0,000 mm 0,0 UV-I 0 W/m 1,4 C 1,8 C 8,0 km/h (2 Bft) 91,49 %
03.02.2019 01:48 1,8 C 3,3 C 1,7 C 97 % 1000,7 hPa 0,0 l/m 5,4 km/h (1 Bft) S-SW 212 0 min 0,000 mm 0,0 UV-I 0 W/m 1,4 C 1,8 C 8,0 km/h (2 Bft) 93,62 %
03.02.2019 01:50 1,8 C 3,3 C 1,7 C 97 % 1000,7 hPa 0,0 l/m 5,7 km/h (1 Bft) SW 218 0 min 0,000 mm 0,0 UV-I 0 W/m 1,4 C 1,8 C 6,4 km/h (2 Bft) 92,00 %
03.02.2019 01:52 1,8 C 3,3 C 1,7 C 97 % 1000,5 hPa 0,2 l/m 5,8 km/h (2 Bft) SW 229 0 min 0,000 mm 0,0 UV-I 0 W/m 1,4 C 1,8 C 8,0 km/h (2 Bft) 93,62 %
03.02.2019 01:54 1,8 C 3,3 C 1,7 C 97 % 1000,5 hPa 0,0 l/m 4,5 km/h (1 Bft) W-SW 245 0 min 0,000 mm 0,0 UV-I 0 W/m 1,4 C 1,8 C 6,4 km/h (2 Bft) 93,62 %
03.02.2019 01:56 1,8 C 3,3 C 1,7 C 97 % 1000,5 hPa 0,2 l/m 3,7 km/h (1 Bft) SW 229 0 min 0,000 mm 0,0 UV-I 0 W/m 1,4 C 1,8 C 6,4 km/h (2 Bft) 92,00 %
03.02.2019 01:58 1,8 C 3,3 C 1,7 C 97 % 1000,6 hPa 0,0 l/m 6,1 km/h (2 Bft) SW 222 0 min 0,000 mm 0,0 UV-I 0 W/m 1,4 C 1,8 C 8,0 km/h (2 Bft) 94,87 %
03.02.2019 02:00 1,8 C 3,3 C 1,7 C 97 % 1000,6 hPa 0,0 l/m 5,8 km/h (2 Bft) S-SW 204 0 min 0,000 mm 0,0 UV-I 0 W/m 1,4 C 1,8 C 8,0 km/h (2 Bft) 91,49 %
03.02.2019 02:02 1,8 C 3,3 C 1,7 C 97 % 1000,6 hPa 0,2 l/m 5,7 km/h (1 Bft) SW 234 0 min 0,000 mm 0,0 UV-I 0 W/m 1,4 C 1,8 C 8,0 km/h (2 Bft) 91,67 %
03.02.2019 02:04 1,8 C 3,3 C 1,7 C 97 % 1000,6 hPa 0,0 l/m 5,3 km/h (1 Bft) SW 226 0 min 0,000 mm 0,0 UV-I 0 W/m 1,4 C 1,8 C 8,0 km/h (2 Bft) 93,62 %
03.02.2019 02:06 1,9 C 3,3 C 1,7 C 97 % 1000,6 hPa 0,0 l/m 5,2 km/h (1 Bft) W-SW 247 0 min 0,000 mm 0,0 UV-I 0 W/m 1,5 C 1,9 C 9,7 km/h (2 Bft) 96,00 %
03.02.2019 02:08 1,8 C 3,3 C 1,7 C 97 % 1000,5 hPa 0,2 l/m 5,9 km/h (2 Bft) SW 233 0 min 0,000 mm 0,0 UV-I 0 W/m 1,4 C 1,8 C 8,0 km/h (2 Bft) 95,74 %
03.02.2019 02:10 1,8 C 3,3 C 1,7 C 97 % 1000,4 hPa 0,0 l/m 6,5 km/h (2 Bft) W-SW 248 0 min 0,000 mm 0,0 UV-I 0 W/m 1,4 C 1,7 C 8,0 km/h (2 Bft) 93,62 %
03.02.2019 02:12 1,8 C 3,3 C 1,7 C 97 % 1000,4 hPa 0,0 l/m 5,8 km/h (2 Bft) SW 218 0 min 0,000 mm 0,0 UV-I 0 W/m 1,4 C 1,8 C 8,0 km/h (2 Bft) 93,62 %
03.02.2019 02:14 1,8 C 3,3 C 1,7 C 97 % 1000,3 hPa 0,0 l/m 6,8 km/h (2 Bft) SW 236 0 min 0,000 mm 0,0 UV-I 0 W/m 1,4 C 1,4 C 9,7 km/h (2 Bft) 93,62 %
03.02.2019 02:16 1,8 C 3,3 C 1,7 C 97 % 1000,3 hPa 0,0 l/m 6,5 km/h (2 Bft) W-SW 257 0 min 0,000 mm 0,0 UV-I 0 W/m 1,4 C 1,7 C 8,0 km/h (2 Bft) 93,62 %
03.02.2019 02:18 1,8 C 3,3 C 1,7 C 97 % 1000,1 hPa 0,0 l/m 6,9 km/h (2 Bft) W-SW 240 0 min 0,000 mm 0,0 UV-I 0 W/m 1,4 C 1,3 C 9,7 km/h (2 Bft) 95,74 %
03.02.2019 02:20 1,8 C 3,3 C 1,7 C 97 % 1000,1 hPa 0,0 l/m 4,9 km/h (1 Bft) W-SW 253 0 min 0,000 mm 0,0 UV-I 0 W/m 1,4 C 1,8 C 6,4 km/h (2 Bft) 94,00 %
03.02.2019 02:22 1,8 C 3,3 C 1,7 C 97 % 1000,1 hPa 0,0 l/m 3,4 km/h (1 Bft) W-SW 242 0 min 0,000 mm 0,0 UV-I 0 W/m 1,4 C 1,8 C 4,8 km/h (1 Bft) 94,74 %
03.02.2019 02:24 1,8 C 3,3 C 1,7 C 97 % 1000,1 hPa 0,0 l/m 1,4 km/h (1 Bft) W-SW 242 0 min 0,000 mm 0,0 UV-I 0 W/m 1,4 C 1,8 C 3,2 km/h (1 Bft) 95,74 %
03.02.2019 02:26 1,8 C 3,3 C 1,7 C 97 % 1000,1 hPa 0,0 l/m 2,9 km/h (1 Bft) SW 227 0 min 0,000 mm 0,0 UV-I 0 W/m 1,4 C 1,8 C 4,8 km/h (1 Bft) 93,62 %
03.02.2019 02:28 1,8 C 3,3 C 1,7 C 97 % 1000,0 hPa 0,0 l/m 4,1 km/h (1 Bft) SW 231 0 min 0,000 mm 0,0 UV-I 0 W/m 1,4 C 1,8 C 6,4 km/h (2 Bft) 95,74 %
03.02.2019 02:30 1,8 C 3,3 C 1,7 C 97 % 1000,0 hPa 0,0 l/m 4,7 km/h (1 Bft) SW 236 0 min 0,000 mm 0,0 UV-I 0 W/m 1,4 C 1,8 C 8,0 km/h (2 Bft) 95,83 %
03.02.2019 02:32 1,8 C 3,3 C 1,7 C 97 % 1000,0 hPa 0,0 l/m 5,0 km/h (1 Bft) SW 221 0 min 0,000 mm 0,0 UV-I 0 W/m 1,4 C 1,8 C 8,0 km/h (2 Bft) 93,62 %
03.02.2019 02:34 1,8 C 3,3 C 1,7 C 97 % 1000,0 hPa 0,0 l/m 5,4 km/h (1 Bft) SW 225 0 min 0,000 mm 0,0 UV-I 0 W/m 1,4 C 1,8 C 6,4 km/h (2 Bft) 97,87 %
03.02.2019 02:36 1,8 C 3,3 C 1,7 C 97 % 1000,0 hPa 0,0 l/m 4,5 km/h (1 Bft) SW 218 0 min 0,000 mm 0,0 UV-I 0 W/m 1,4 C 1,8 C 6,4 km/h (2 Bft) 93,62 %
03.02.2019 02:38 1,8 C 3,3 C 1,7 C 97 % 1000,1 hPa 0,0 l/m 4,5 km/h (1 Bft) SW 219 0 min 0,000 mm 0,0 UV-I 0 W/m 1,4 C 1,8 C 6,4 km/h (2 Bft) 98,00 %
03.02.2019 02:40 1,8 C 3,3 C 1,7 C 97 % 1000,0 hPa 0,0 l/m 4,3 km/h (1 Bft) W-SW 245 0 min 0,000 mm 0,0 UV-I 0 W/m 1,4 C 1,8 C 6,4 km/h (2 Bft) 97,87 %
03.02.2019 02:42 1,8 C 3,3 C 1,7 C 97 % 1000,0 hPa 0,0 l/m 5,1 km/h (1 Bft) SW 215 0 min 0,000 mm 0,0 UV-I 0 W/m 1,4 C 1,8 C 8,0 km/h (2 Bft) 100,00 %
03.02.2019 02:44 1,9 C 3,3 C 1,7 C 97 % 1000,0 hPa 0,0 l/m 5,3 km/h (1 Bft) SW 233 0 min 0,000 mm 0,0 UV-I 0 W/m 1,5 C 1,9 C 8,0 km/h (2 Bft) 97,37 %
03.02.2019 02:46 1,9 C 3,3 C 1,7 C 97 % 1000,0 hPa 0,0 l/m 4,6 km/h (1 Bft) SW 214 0 min 0,000 mm 0,0 UV-I 0 W/m 1,5 C 1,9 C 6,4 km/h (2 Bft) 97,87 %
03.02.2019 02:48 1,8 C 3,3 C 1,7 C 97 % 1000,0 hPa 0,0 l/m 4,2 km/h (1 Bft) SW 215 0 min 0,000 mm 0,0 UV-I 0 W/m 1,4 C 1,8 C 4,8 km/h (1 Bft) 97,87 %
03.02.2019 02:50 1,8 C 3,3 C 1,7 C 97 % 1000,0 hPa 0,0 l/m 5,0 km/h (1 Bft) S-SW 210 0 min 0,000 mm 0,0 UV-I 0 W/m 1,4 C 1,8 C 8,0 km/h (2 Bft) 100,00 %
03.02.2019 02:52 1,8 C 3,3 C 1,7 C 97 % 999,9 hPa 0,0 l/m 5,4 km/h (1 Bft) S-SW 210 0 min 0,000 mm 0,0 UV-I 0 W/m 1,4 C 1,8 C 6,4 km/h (2 Bft) 100,00 %
03.02.2019 02:54 1,8 C 3,3 C 1,7 C 97 % 999,8 hPa 0,0 l/m 4,6 km/h (1 Bft) SW 216 0 min 0,000 mm 0,0 UV-I 0 W/m 1,4 C 1,8 C 6,4 km/h (2 Bft) 100,00 %
03.02.2019 02:56 1,8 C 3,3 C 1,7 C 97 % 999,6 hPa 0,0 l/m 5,0 km/h (1 Bft) S-SW 213 0 min 0,000 mm 0,0 UV-I 0 W/m 1,4 C 1,8 C 8,0 km/h (2 Bft) 100,00 %
03.02.2019 02:58 1,8 C 3,3 C 1,7 C 97 % 999,6 hPa 0,2 l/m 5,1 km/h (1 Bft) S-SW 213 0 min 0,000 mm 0,0 UV-I 0 W/m 1,4 C 1,8 C 8,0 km/h (2 Bft) 100,00 %
03.02.2019 03:00 1,8 C 3,3 C 1,7 C 97 % 999,6 hPa 0,0 l/m 5,0 km/h (1 Bft) SW 219 0 min 0,000 mm 0,0 UV-I 0 W/m 1,4 C 1,8 C 6,4 km/h (2 Bft) 97,87 %
03.02.2019 03:02 1,8 C 3,3 C 1,7 C 97 % 999,6 hPa 0,0 l/m 4,3 km/h (1 Bft) S-SW 213 0 min 0,000 mm 0,0 UV-I 0 W/m 1,4 C 1,8 C 6,4 km/h (2 Bft) 97,87 %
03.02.2019 03:04 1,8 C 3,3 C 1,7 C 97 % 999,6 hPa 0,0 l/m 4,4 km/h (1 Bft) S-SW 211 0 min 0,000 mm 0,0 UV-I 0 W/m 1,4 C 1,8 C 6,4 km/h (2 Bft) 95,74 %
03.02.2019 03:06 1,8 C 3,3 C 1,7 C 97 % 999,5 hPa 0,0 l/m 5,2 km/h (1 Bft) SW 215 0 min 0,000 mm 0,0 UV-I 0 W/m 1,4 C 1,8 C 8,0 km/h (2 Bft) 93,62 %
03.02.2019 03:08 1,8 C 3,3 C 1,7 C 97 % 999,5 hPa 0,0 l/m 6,2 km/h (2 Bft) S-SW 210 0 min 0,000 mm 0,0 UV-I 0 W/m 1,4 C 1,8 C 8,0 km/h (2 Bft) 97,87 %
03.02.2019 03:10 1,8 C 3,3 C 1,7 C 97 % 999,4 hPa 0,0 l/m 5,8 km/h (2 Bft) W-SW 241 0 min 0,000 mm 0,0 UV-I 0 W/m 1,4 C 1,8 C 8,0 km/h (2 Bft) 97,87 %
03.02.2019 03:12 1,8 C 3,3 C 1,7 C 97 % 999,4 hPa 0,0 l/m 4,4 km/h (1 Bft) SW 224 0 min 0,000 mm 0,0 UV-I 0 W/m 1,4 C 1,8 C 6,4 km/h (2 Bft) 97,87 %
03.02.2019 03:14 1,8 C 3,3 C 1,7 C 97 % 999,3 hPa 0,0 l/m 4,4 km/h (1 Bft) SW 215 0 min 0,000 mm 0,0 UV-I 0 W/m 1,4 C 1,8 C 6,4 km/h (2 Bft) 96,00 %
03.02.2019 03:16 1,8 C 3,3 C 1,7 C 97 % 999,4 hPa 0,0 l/m 4,8 km/h (1 Bft) SW 216 0 min 0,000 mm 0,0 UV-I 0 W/m 1,4 C 1,8 C 6,4 km/h (2 Bft) 100,00 %
03.02.2019 03:18 1,8 C 3,3 C 1,7 C 97 % 999,4 hPa 0,0 l/m 3,3 km/h (1 Bft) S-SW 209 0 min 0,000 mm 0,0 UV-I 0 W/m 1,4 C 1,8 C 4,8 km/h (1 Bft) 95,74 %
03.02.2019 03:20 1,8 C 3,3 C 1,7 C 97 % 999,4 hPa 0,2 l/m 4,2 km/h (1 Bft) S-SW 207 0 min 0,000 mm 0,0 UV-I 0 W/m 1,4 C 1,8 C 8,0 km/h (2 Bft) 96,00 %
03.02.2019 03:22 1,8 C 3,3 C 1,7 C 97 % 999,4 hPa 0,0 l/m 2,7 km/h (1 Bft) S-SW 204 0 min 0,000 mm 0,0 UV-I 0 W/m 1,4 C 1,8 C 4,8 km/h (1 Bft) 100,00 %
03.02.2019 03:25 1,8 C 3,3 C 1,7 C 97 % 999,3 hPa 0,0 l/m 3,4 km/h (1 Bft) SW 223 0 min 0,000 mm 0,0 UV-I 0 W/m 1,4 C 1,8 C 6,4 km/h (2 Bft) 98,57 %
03.02.2019 03:26 1,8 C 3,3 C 1,7 C 97 % 999,3 hPa 0,0 l/m 4,6 km/h (1 Bft) S-SW 198 0 min 0,000 mm 0,0 UV-I 0 W/m 1,4 C 1,8 C 6,4 km/h (2 Bft) 100,00 %
03.02.2019 03:28 1,8 C 3,3 C 1,7 C 97 % 999,3 hPa 0,0 l/m 4,6 km/h (1 Bft) SW 229 0 min 0,000 mm 0,0 UV-I 0 W/m 1,4 C 1,8 C 6,4 km/h (2 Bft) 100,00 %
03.02.2019 03:30 1,8 C 3,3 C 1,7 C 97 % 999,2 hPa 0,0 l/m 2,7 km/h (1 Bft) W 271 0 min 0,000 mm 0,0 UV-I 0 W/m 1,4 C 1,8 C 4,8 km/h (1 Bft) 100,00 %
03.02.2019 03:32 1,8 C 3,3 C 1,7 C 97 % 999,1 hPa 0,0 l/m 5,2 km/h (1 Bft) SW 225 0 min 0,000 mm 0,0 UV-I 0 W/m 1,4 C 1,8 C 6,4 km/h (2 Bft) 97,87 %
03.02.2019 03:34 1,8 C 3,3 C 1,7 C 97 % 999,0 hPa 0,0 l/m 8,7 km/h (2 Bft) SW 215 0 min 0,000 mm 0,0 UV-I 0 W/m 1,4 C -0,4 C 11,3 km/h (2 Bft) 97,87 %
03.02.2019 03:36 1,8 C 3,3 C 1,7 C 97 % 999,1 hPa 0,0 l/m 7,4 km/h (2 Bft) SW 223 0 min 0,000 mm 0,0 UV-I 0 W/m 1,4 C 0,8 C 9,7 km/h (2 Bft) 100,00 %
03.02.2019 03:38 1,8 C 3,3 C 1,7 C 97 % 999,1 hPa 0,0 l/m 4,8 km/h (1 Bft) SW 222 0 min 0,000 mm 0,0 UV-I 0 W/m 1,4 C 1,8 C 6,4 km/h (2 Bft) 100,00 %
03.02.2019 03:40 1,8 C 3,3 C 1,7 C 97 % 999,1 hPa 0,0 l/m 5,0 km/h (1 Bft) S-SW 210 0 min 0,000 mm 0,0 UV-I 0 W/m 1,4 C 1,8 C 8,0 km/h (2 Bft) 98,00 %
03.02.2019 03:42 1,8 C 3,3 C 1,7 C 97 % 999,1 hPa 0,2 l/m 5,1 km/h (1 Bft) S-SW 212 0 min 0,000 mm 0,0 UV-I 0 W/m 1,4 C 1,8 C 6,4 km/h (2 Bft) 95,74 %
03.02.2019 03:44 1,8 C 3,3 C 1,7 C 97 % 999,1 hPa 0,0 l/m 4,7 km/h (1 Bft) S-SW 211 0 min 0,000 mm 0,0 UV-I 0 W/m 1,4 C 1,8 C 6,4 km/h (2 Bft) 100,00 %
03.02.2019 03:46 1,8 C 3,3 C 1,7 C 97 % 999,1 hPa 0,0 l/m 6,3 km/h (2 Bft) S-SW 205 0 min 0,000 mm 0,0 UV-I 0 W/m 1,4 C 1,8 C 12,9 km/h (3 Bft) 97,87 %
03.02.2019 03:48 1,8 C 3,3 C 1,7 C 97 % 999,3 hPa 0,0 l/m 9,0 km/h (2 Bft) SW 217 0 min 0,000 mm 0,0 UV-I 0 W/m 1,4 C -0,6 C 12,9 km/h (3 Bft) 100,00 %
03.02.2019 03:50 1,8 C 3,3 C 1,7 C 97 % 999,3 hPa 0,2 l/m 7,1 km/h (2 Bft) S-SW 211 0 min 0,000 mm 0,0 UV-I 0 W/m 1,4 C 1,1 C 9,7 km/h (2 Bft) 100,00 %
03.02.2019 03:52 1,8 C 3,3 C 1,7 C 97 % 999,3 hPa 0,0 l/m 6,8 km/h (2 Bft) S-SW 207 0 min 0,000 mm 0,0 UV-I 0 W/m 1,4 C 1,4 C 9,7 km/h (2 Bft) 97,14 %
03.02.2019 03:54 1,8 C 3,3 C 1,7 C 97 % 999,4 hPa 0,0 l/m 7,1 km/h (2 Bft) SW 225 0 min 0,000 mm 0,0 UV-I 0 W/m 1,4 C 1,1 C 12,9 km/h (3 Bft) 100,00 %
03.02.2019 03:56 1,8 C 3,3 C 1,7 C 97 % 999,3 hPa 0,2 l/m 7,6 km/h (2 Bft) S 189 0 min 0,000 mm 0,0 UV-I 0 W/m 1,4 C 0,6 C 16,1 km/h (3 Bft) 97,87 %
03.02.2019 03:58 1,7 C 3,3 C 1,7 C 97 % 999,3 hPa 0,0 l/m 11,1 km/h (2 Bft) S-SW 209 0 min 0,000 mm 0,0 UV-I 0 W/m 1,3 C -2,4 C 17,7 km/h (3 Bft) 100,00 %
03.02.2019 04:00 1,7 C 3,3 C 1,7 C 97 % 999,3 hPa 0,2 l/m 11,7 km/h (2 Bft) SW 227 0 min 0,000 mm 0,0 UV-I 0 W/m 1,3 C -2,8 C 19,3 km/h (3 Bft) 97,87 %
03.02.2019 04:02 1,7 C 3,3 C 1,7 C 97 % 999,4 hPa 0,0 l/m 14,2 km/h (3 Bft) SW 224 0 min 0,000 mm 0,0 UV-I 0 W/m 1,3 C -4,5 C 17,7 km/h (3 Bft) 96,97 %
03.02.2019 04:04 1,6 C 3,3 C 1,1 C 97 % 999,5 hPa 0,2 l/m 10,1 km/h (2 Bft) S-SW 204 0 min 0,000 mm 0,0 UV-I 0 W/m 1,2 C -1,8 C 16,1 km/h (3 Bft) 97,87 %
03.02.2019 04:06 1,6 C 3,3 C 1,1 C 97 % 999,5 hPa 0,2 l/m 11,6 km/h (2 Bft) SW 220 0 min 0,000 mm 0,0 UV-I 0 W/m 1,2 C -2,9 C 16,1 km/h (3 Bft) 97,87 %
03.02.2019 04:08 1,5 C 3,3 C 1,1 C 97 % 999,6 hPa 0,0 l/m 12,7 km/h (3 Bft) S 180 0 min 0,000 mm 0,0 UV-I 0 W/m 1,1 C -3,7 C 19,3 km/h (3 Bft) 96,00 %
03.02.2019 04:10 1,4 C 3,3 C 1,1 C 97 % 999,8 hPa 0,2 l/m 12,2 km/h (2 Bft) S-SW 192 0 min 0,000 mm 0,0 UV-I 0 W/m 1,0 C -3,5 C 16,1 km/h (3 Bft) 96,00 %
03.02.2019 04:12 1,3 C 3,3 C 1,1 C 97 % 999,8 hPa 0,2 l/m 14,2 km/h (3 Bft) SW 221 0 min 0,000 mm 0,0 UV-I 0 W/m 0,9 C -4,9 C 22,5 km/h (4 Bft) 95,74 %
03.02.2019 04:14 1,3 C 3,3 C 0,6 C 97 % 999,9 hPa 0,0 l/m 11,3 km/h (2 Bft) SW 215 0 min 0,000 mm 0,0 UV-I 0 W/m 0,9 C -3,0 C 20,9 km/h (4 Bft) 97,87 %
03.02.2019 04:16 1,2 C 3,3 C 0,6 C 97 % 999,9 hPa 0,2 l/m 11,3 km/h (2 Bft) S-SW 192 0 min 0,000 mm 0,0 UV-I 0 W/m 0,8 C -3,1 C 17,7 km/h (3 Bft) 94,74 %
03.02.2019 04:18 1,2 C 3,3 C 0,6 C 97 % 1000,0 hPa 0,2 l/m 14,4 km/h (3 Bft) S-SW 204 0 min 0,000 mm 0,0 UV-I 0 W/m 0,8 C -5,2 C 22,5 km/h (4 Bft) 96,00 %
03.02.2019 04:20 1,1 C 3,3 C 0,6 C 97 % 1000,0 hPa 0,0 l/m 13,5 km/h (3 Bft) SW 224 0 min 0,000 mm 0,0 UV-I 0 W/m 0,7 C -4,7 C 24,1 km/h (4 Bft) 95,74 %
03.02.2019 04:22 0,9 C 3,3 C 0,6 C 97 % 1000,1 hPa 0,2 l/m 14,2 km/h (3 Bft) SW 215 0 min 0,000 mm 0,0 UV-I 0 W/m 0,5 C -5,4 C 20,9 km/h (4 Bft) 93,62 %
03.02.2019 04:24 0,9 C 3,3 C 0,6 C 97 % 1000,2 hPa 0,2 l/m 15,2 km/h (3 Bft) SW 216 0 min 0,000 mm 0,0 UV-I 0 W/m 0,5 C -6,0 C 20,9 km/h (4 Bft) 93,62 %
03.02.2019 04:26 0,8 C 3,3 C 0,0 C 97 % 1000,1 hPa 0,0 l/m 15,0 km/h (3 Bft) W-SW 241 0 min 0,000 mm 0,0 UV-I 0 W/m 0,4 C -6,0 C 22,5 km/h (4 Bft) 95,74 %
03.02.2019 04:28 0,8 C 3,3 C 0,0 C 97 % 1000,2 hPa 0,2 l/m 11,6 km/h (2 Bft) SW 214 0 min 0,000 mm 0,0 UV-I 0 W/m 0,4 C -3,8 C 22,5 km/h (4 Bft) 91,67 %
03.02.2019 04:30 0,7 C 3,3 C 0,0 C 97 % 1000,1 hPa 0,0 l/m 13,7 km/h (3 Bft) W 259 0 min 0,000 mm 0,0 UV-I 0 W/m 0,3 C -5,3 C 24,1 km/h (4 Bft) 95,74 %
03.02.2019 04:32 0,7 C 3,3 C 0,0 C 97 % 1000,1 hPa 0,2 l/m 13,6 km/h (3 Bft) W-SW 237 0 min 0,000 mm 0,0 UV-I 0 W/m 0,3 C -5,3 C 24,1 km/h (4 Bft) 94,00 %
03.02.2019 04:34 0,6 C 3,3 C 0,0 C 97 % 1000,1 hPa 0,0 l/m 15,8 km/h (3 Bft) SW 226 0 min 0,000 mm 0,0 UV-I 0 W/m 0,2 C -6,7 C 20,9 km/h (4 Bft) 95,74 %
03.02.2019 04:36 0,6 C 3,3 C 0,0 C 97 % 1000,1 hPa 0,0 l/m 12,7 km/h (3 Bft) W-SW 240 0 min 0,000 mm 0,0 UV-I 0 W/m 0,2 C -4,8 C 16,1 km/h (3 Bft) 91,49 %
03.02.2019 04:38 0,6 C 3,3 C 0,0 C 97 % 1000,1 hPa 0,0 l/m 9,9 km/h (2 Bft) W-SW 251 0 min 0,000 mm 0,0 UV-I 0 W/m 0,2 C -2,7 C 16,1 km/h (3 Bft) 100,00 %
03.02.2019 04:40 0,6 C 3,3 C 0,0 C 97 % 1000,1 hPa 0,2 l/m 10,2 km/h (2 Bft) W-SW 242 0 min 0,000 mm 0,0 UV-I 0 W/m 0,2 C -2,9 C 16,1 km/h (3 Bft) 94,00 %
03.02.2019 04:42 0,6 C 3,3 C 0,0 C 97 % 1000,1 hPa 0,2 l/m 10,9 km/h (2 Bft) W-SW 252 0 min 0,000 mm 0,0 UV-I 0 W/m 0,2 C -3,5 C 14,5 km/h (3 Bft) 95,74 %
03.02.2019 04:44 0,6 C 3,3 C 0,0 C 97 % 1000,1 hPa 0,0 l/m 10,6 km/h (2 Bft) W-SW 242 0 min 0,000 mm 0,0 UV-I 0 W/m 0,2 C -3,3 C 17,7 km/h (3 Bft) 93,62 %
03.02.2019 04:46 0,6 C 3,3 C 0,0 C 97 % 1000,1 hPa 0,2 l/m 11,6 km/h (2 Bft) W-SW 252 0 min 0,000 mm 0,0 UV-I 0 W/m 0,2 C -4,0 C 17,7 km/h (3 Bft) 97,87 %
03.02.2019 04:48 0,6 C 3,3 C 0,0 C 97 % 1000,2 hPa 0,2 l/m 10,1 km/h (2 Bft) SW 234 0 min 0,000 mm 0,0 UV-I 0 W/m 0,2 C -2,9 C 16,1 km/h (3 Bft) 98,00 %
03.02.2019 04:50 0,5 C 3,3 C 0,0 C 97 % 1000,2 hPa 0,0 l/m 7,2 km/h (2 Bft) W 281 0 min 0,000 mm 0,0 UV-I 0 W/m 0,1 C -0,3 C 12,9 km/h (3 Bft) 98,00 %
03.02.2019 04:52 0,5 C 3,3 C 0,0 C 97 % 1000,2 hPa 0,2 l/m 9,7 km/h (2 Bft) W 279 0 min 0,000 mm 0,0 UV-I 0 W/m 0,1 C -2,6 C 14,5 km/h (3 Bft) 92,11 %
03.02.2019 04:54 0,5 C 3,3 C 0,0 C 97 % 1000,2 hPa 0,0 l/m 9,1 km/h (2 Bft) W 262 0 min 0,000 mm 0,0 UV-I 0 W/m 0,1 C -2,1 C 12,9 km/h (3 Bft) 97,87 %
03.02.2019 04:56 0,5 C 3,3 C 0,0 C 97 % 1000,2 hPa 0,0 l/m 7,2 km/h (2 Bft) W-SW 252 0 min 0,000 mm 0,0 UV-I 0 W/m 0,1 C -0,3 C 12,9 km/h (3 Bft) 97,87 %
03.02.2019 04:58 0,6 C 3,3 C 0,0 C 97 % 1000,2 hPa 0,2 l/m 8,8 km/h (2 Bft) W 270 0 min 0,000 mm 0,0 UV-I 0 W/m 0,2 C -1,8 C 14,5 km/h (3 Bft) 100,00 %
03.02.2019 05:00 0,5 C 3,3 C 0,0 C 97 % 1000,2 hPa 0,0 l/m 10,5 km/h (2 Bft) W 265 0 min 0,000 mm 0,0 UV-I 0 W/m 0,1 C -3,3 C 14,5 km/h (3 Bft) 96,00 %
03.02.2019 05:02 0,5 C 3,3 C 0,0 C 97 % 1000,2 hPa 0,0 l/m 9,7 km/h (2 Bft) W 281 0 min 0,000 mm 0,0 UV-I 0 W/m 0,1 C -2,6 C 14,5 km/h (3 Bft) 100,00 %
03.02.2019 05:04 0,5 C 3,3 C 0,0 C 97 % 1000,1 hPa 0,2 l/m 8,8 km/h (2 Bft) W 259 0 min 0,000 mm 0,0 UV-I 0 W/m 0,1 C -1,9 C 12,9 km/h (3 Bft) 97,87 %
03.02.2019 05:06 0,5 C 3,3 C 0,0 C 97 % 1000,2 hPa 0,0 l/m 9,3 km/h (2 Bft) W 265 0 min 0,000 mm 0,0 UV-I 0 W/m 0,1 C -2,3 C 14,5 km/h (3 Bft) 97,92 %
03.02.2019 05:08 0,5 C 3,3 C 0,0 C 97 % 1000,3 hPa 0,2 l/m 11,3 km/h (2 Bft) W-SW 241 0 min 0,000 mm 0,0 UV-I 0 W/m 0,1 C -3,9 C 16,1 km/h (3 Bft) 100,00 %
03.02.2019 05:10 0,5 C 3,3 C 0,0 C 97 % 1000,2 hPa 0,0 l/m 7,6 km/h (2 Bft) W 272 0 min 0,000 mm 0,0 UV-I 0 W/m 0,1 C -0,7 C 11,3 km/h (2 Bft) 98,00 %
03.02.2019 05:12 0,4 C 3,3 C 0,0 C 97 % 1000,3 hPa 0,0 l/m 8,1 km/h (2 Bft) W 261 0 min 0,000 mm 0,0 UV-I 0 W/m -0,0 C -1,3 C 14,5 km/h (3 Bft) 97,37 %
03.02.2019 05:14 0,4 C 3,3 C 0,0 C 97 % 1000,3 hPa 0,0 l/m 6,2 km/h (2 Bft) S-SW 197 0 min 0,000 mm 0,0 UV-I 0 W/m -0,0 C 0,4 C 12,9 km/h (3 Bft) 100,00 %
03.02.2019 05:16 0,4 C 3,3 C 0,0 C 97 % 1000,3 hPa 0,0 l/m 7,8 km/h (2 Bft) W 275 0 min 0,000 mm 0,0 UV-I 0 W/m -0,0 C -1,0 C 12,9 km/h (3 Bft) 97,87 %
03.02.2019 05:18 0,4 C 3,3 C 0,0 C 97 % 1000,3 hPa 0,0 l/m 6,9 km/h (2 Bft) W-SW 251 0 min 0,000 mm 0,0 UV-I 0 W/m -0,0 C -0,1 C 11,3 km/h (2 Bft) 95,74 %
03.02.2019 05:20 0,4 C 3,3 C 0,0 C 97 % 1000,3 hPa 0,0 l/m 5,9 km/h (2 Bft) W 267 0 min 0,000 mm 0,0 UV-I 0 W/m -0,0 C 0,4 C 9,7 km/h (2 Bft) 100,00 %
03.02.2019 05:22 0,4 C 3,3 C 0,0 C 97 % 1000,4 hPa 0,0 l/m 6,6 km/h (2 Bft) W 279 0 min 0,000 mm 0,0 UV-I 0 W/m -0,0 C 0,2 C 9,7 km/h (2 Bft) 96,00 %
03.02.2019 05:24 0,4 C 3,3 C 0,0 C 97 % 1000,4 hPa 0,0 l/m 6,5 km/h (2 Bft) W-SW 251 0 min 0,000 mm 0,0 UV-I 0 W/m -0,0 C 0,3 C 11,3 km/h (2 Bft) 100,00 %
03.02.2019 05:26 0,4 C 3,3 C 0,0 C 97 % 1000,3 hPa 0,0 l/m 5,9 km/h (2 Bft) W 281 0 min 0,000 mm 0,0 UV-I 0 W/m -0,0 C 0,4 C 9,7 km/h (2 Bft) 95,74 %
03.02.2019 05:28 0,4 C 3,3 C 0,0 C 97 % 1000,2 hPa 0,0 l/m 6,3 km/h (2 Bft) W-SW 257 0 min 0,000 mm 0,0 UV-I 0 W/m -0,0 C 0,4 C 11,3 km/h (2 Bft) 97,87 %
03.02.2019 05:30 0,4 C 3,3 C 0,0 C 97 % 1000,2 hPa 0,0 l/m 4,4 km/h (1 Bft) W 269 0 min 0,000 mm 0,0 UV-I 0 W/m -0,0 C 0,4 C 6,4 km/h (2 Bft) 95,74 %
03.02.2019 05:32 0,4 C 3,3 C 0,0 C 97 % 1000,0 hPa 0,0 l/m 4,1 km/h (1 Bft) W 279 0 min 0,000 mm 0,0 UV-I 0 W/m -0,0 C 0,4 C 6,4 km/h (2 Bft) 95,74 %
03.02.2019 05:34 0,4 C 3,3 C 0,0 C 97 % 1000,0 hPa 0,0 l/m 3,5 km/h (1 Bft) W-NW 284 0 min 0,000 mm 0,0 UV-I 0 W/m -0,0 C 0,4 C 6,4 km/h (2 Bft) 95,74 %
03.02.2019 05:36 0,3 C 3,3 C 0,0 C 97 % 1000,0 hPa 0,0 l/m 4,8 km/h (1 Bft) W-NW 285 0 min 0,000 mm 0,0 UV-I 0 W/m -0,1 C 0,3 C 6,4 km/h (2 Bft) 97,37 %
03.02.2019 05:38 0,3 C 3,3 C 0,0 C 97 % 1000,1 hPa 0,0 l/m 4,6 km/h (1 Bft) W-SW 245 0 min 0,000 mm 0,0 UV-I 0 W/m -0,1 C 0,3 C 6,4 km/h (2 Bft) 97,87 %
03.02.2019 05:40 0,4 C 3,3 C 0,0 C 97 % 1000,2 hPa 0,0 l/m 4,6 km/h (1 Bft) W-SW 258 0 min 0,000 mm 0,0 UV-I 0 W/m -0,0 C 0,4 C 6,4 km/h (2 Bft) 93,62 %
03.02.2019 05:42 0,3 C 3,3 C 0,0 C 97 % 1000,1 hPa 0,0 l/m 5,2 km/h (1 Bft) W 269 0 min 0,000 mm 0,0 UV-I 0 W/m -0,1 C 0,3 C 9,7 km/h (2 Bft) 95,74 %
03.02.2019 05:44 0,3 C 3,3 C 0,0 C 97 % 1000,0 hPa 0,0 l/m 4,4 km/h (1 Bft) W 276 0 min 0,000 mm 0,0 UV-I 0 W/m -0,1 C 0,3 C 6,4 km/h (2 Bft) 95,83 %
03.02.2019 05:46 0,3 C 3,3 C 0,0 C 97 % 1000,0 hPa 0,0 l/m 4,1 km/h (1 Bft) W 266 0 min 0,000 mm 0,0 UV-I 0 W/m -0,1 C 0,3 C 6,4 km/h (2 Bft) 92,31 %
03.02.2019 05:48 0,3 C 3,3 C 0,0 C 97 % 1000,0 hPa 0,0 l/m 4,5 km/h (1 Bft) W 267 0 min 0,000 mm 0,0 UV-I 0 W/m -0,1 C 0,3 C 6,4 km/h (2 Bft) 95,74 %
03.02.2019 05:50 0,3 C 3,3 C 0,0 C 97 % 1000,3 hPa 0,0 l/m 4,5 km/h (1 Bft) W-SW 242 0 min 0,000 mm 0,0 UV-I 0 W/m -0,1 C 0,3 C 6,4 km/h (2 Bft) 95,83 %
03.02.2019 05:52 0,3 C 3,3 C 0,0 C 97 % 1000,5 hPa 0,0 l/m 5,3 km/h (1 Bft) SW 236 0 min 0,000 mm 0,0 UV-I 0 W/m -0,1 C 0,3 C 8,0 km/h (2 Bft) 94,74 %
03.02.2019 05:54 0,3 C 3,3 C 0,0 C 97 % 1000,7 hPa 0,0 l/m 7,3 km/h (2 Bft) W-SW 244 0 min 0,000 mm 0,0 UV-I 0 W/m -0,1 C -0,6 C 11,3 km/h (2 Bft) 93,62 %
03.02.2019 05:56 0,3 C 3,3 C 0,0 C 97 % 1000,9 hPa 0,0 l/m 10,4 km/h (2 Bft) SW 229 0 min 0,000 mm 0,0 UV-I 0 W/m -0,1 C -3,4 C 14,5 km/h (3 Bft) 95,74 %
03.02.2019 05:58 0,3 C 3,3 C 0,0 C 97 % 1000,9 hPa 0,0 l/m 9,9 km/h (2 Bft) S-SW 208 0 min 0,000 mm 0,0 UV-I 0 W/m -0,1 C -3,0 C 16,1 km/h (3 Bft) 94,00 %
03.02.2019 06:00 0,3 C 3,3 C 0,0 C 97 % 1000,9 hPa 0,0 l/m 11,8 km/h (2 Bft) S-SW 208 0 min 0,000 mm 0,0 UV-I 0 W/m -0,1 C -4,5 C 17,7 km/h (3 Bft) 93,62 %
03.02.2019 06:02 0,3 C 3,3 C 0,0 C 97 % 1001,1 hPa 0,0 l/m 11,9 km/h (2 Bft) SW 219 0 min 0,000 mm 0,0 UV-I 0 W/m -0,1 C -4,6 C 16,1 km/h (3 Bft) 95,74 %
03.02.2019 06:04 0,4 C 3,3 C 0,0 C 97 % 1001,2 hPa 0,0 l/m 9,0 km/h (2 Bft) W 268 0 min 0,000 mm 0,0 UV-I 0 W/m -0,0 C -2,2 C 14,5 km/h (3 Bft) 97,87 %
03.02.2019 06:06 0,4 C 3,3 C 0,0 C 97 % 1001,2 hPa 0,0 l/m 9,3 km/h (2 Bft) SW 230 0 min 0,000 mm 0,0 UV-I 0 W/m -0,0 C -2,4 C 16,1 km/h (3 Bft) 97,87 %
03.02.2019 06:08 0,4 C 3,3 C 0,0 C 97 % 1001,1 hPa 0,0 l/m 9,0 km/h (2 Bft) W-SW 247 0 min 0,000 mm 0,0 UV-I 0 W/m -0,0 C -2,2 C 14,5 km/h (3 Bft) 95,74 %
03.02.2019 06:10 0,4 C 3,3 C 0,0 C 97 % 1000,9 hPa 0,0 l/m 8,7 km/h (2 Bft) SW 228 0 min 0,000 mm 0,0 UV-I 0 W/m -0,0 C -1,9 C 16,1 km/h (3 Bft) 96,00 %
03.02.2019 06:12 0,4 C 3,3 C 0,0 C 97 % 1000,8 hPa 0,0 l/m 9,2 km/h (2 Bft) W-SW 258 0 min 0,000 mm 0,0 UV-I 0 W/m -0,0 C -2,3 C 12,9 km/h (3 Bft) 97,87 %
03.02.2019 06:14 0,4 C 3,3 C 0,0 C 97 % 1000,8 hPa 0,0 l/m 10,1 km/h (2 Bft) W-NW 282 0 min 0,000 mm 0,0 UV-I 0 W/m -0,0 C -3,1 C 16,1 km/h (3 Bft) 97,37 %
03.02.2019 06:16 0,3 C 3,3 C 0,0 C 97 % 1000,8 hPa 0,0 l/m 10,8 km/h (2 Bft) W-SW 247 0 min 0,000 mm 0,0 UV-I 0 W/m -0,1 C -3,8 C 14,5 km/h (3 Bft) 95,74 %
03.02.2019 06:18 0,3 C 3,3 C 0,0 C 97 % 1000,9 hPa 0,0 l/m 6,9 km/h (2 Bft) W-SW 250 0 min 0,000 mm 0,0 UV-I 0 W/m -0,1 C -0,2 C 12,9 km/h (3 Bft) 97,87 %
03.02.2019 06:20 0,3 C 3,3 C 0,0 C 97 % 1000,9 hPa 0,0 l/m 9,0 km/h (2 Bft) W-SW 250 0 min 0,000 mm 0,0 UV-I 0 W/m -0,1 C -2,3 C 12,9 km/h (3 Bft) 92,00 %
03.02.2019 06:22 0,4 C 3,3 C 0,0 C 97 % 1000,9 hPa 0,0 l/m 8,5 km/h (2 Bft) W-SW 244 0 min 0,000 mm 0,0 UV-I 0 W/m -0,0 C -1,7 C 12,9 km/h (3 Bft) 97,87 %
03.02.2019 06:24 0,4 C 3,3 C 0,0 C 97 % 1000,8 hPa 0,0 l/m 9,2 km/h (2 Bft) W-SW 242 0 min 0,000 mm 0,0 UV-I 0 W/m -0,0 C -2,3 C 12,9 km/h (3 Bft) 98,00 %
03.02.2019 06:26 0,4 C 3,3 C 0,0 C 97 % 1000,8 hPa 0,0 l/m 9,0 km/h (2 Bft) SW 227 0 min 0,000 mm 0,0 UV-I 0 W/m -0,0 C -2,2 C 14,5 km/h (3 Bft) 95,83 %
03.02.2019 06:28 0,3 C 3,3 C 0,0 C 97 % 1000,9 hPa 0,0 l/m 9,8 km/h (2 Bft) W-SW 244 0 min 0,000 mm 0,0 UV-I 0 W/m -0,1 C -3,0 C 12,9 km/h (3 Bft) 93,62 %
03.02.2019 06:30 0,3 C 3,3 C 0,0 C 97 % 1001,0 hPa 0,0 l/m 10,0 km/h (2 Bft) W-SW 246 0 min 0,000 mm 0,0 UV-I 0 W/m -0,1 C -3,1 C 14,5 km/h (3 Bft) 91,49 %
03.02.2019 06:32 0,3 C 3,3 C 0,0 C 97 % 1001,1 hPa 0,0 l/m 11,3 km/h (2 Bft) S-SW 208 0 min 0,000 mm 0,0 UV-I 0 W/m -0,1 C -4,1 C 16,1 km/h (3 Bft) 97,87 %
03.02.2019 06:34 0,4 C 3,3 C 0,0 C 97 % 1001,1 hPa 0,0 l/m 10,4 km/h (2 Bft) SW 229 0 min 0,000 mm 0,0 UV-I 0 W/m -0,0 C -3,3 C 17,7 km/h (3 Bft) 95,74 %
03.02.2019 06:36 0,4 C 3,3 C 0,0 C 97 % 1001,3 hPa 0,0 l/m 10,4 km/h (2 Bft) W 263 0 min 0,000 mm 0,0 UV-I 0 W/m -0,0 C -3,3 C 14,5 km/h (3 Bft) 93,62 %
03.02.2019 06:38 0,3 C 3,3 C 0,0 C 97 % 1001,2 hPa 0,0 l/m 7,8 km/h (2 Bft) W-SW 246 0 min 0,000 mm 0,0 UV-I 0 W/m -0,1 C -1,1 C 12,9 km/h (3 Bft) 91,49 %
03.02.2019 06:40 0,3 C 3,3 C 0,0 C 97 % 1001,2 hPa 0,0 l/m 11,8 km/h (2 Bft) SW 236 0 min 0,000 mm 0,0 UV-I 0 W/m -0,1 C -4,5 C 17,7 km/h (3 Bft) 93,62 %
03.02.2019 06:42 0,4 C 3,3 C 0,0 C 97 % 1001,2 hPa 0,0 l/m 12,4 km/h (3 Bft) W-SW 257 0 min 0,000 mm 0,0 UV-I 0 W/m -0,0 C -4,8 C 17,7 km/h (3 Bft) 95,74 %
03.02.2019 06:44 0,4 C 3,3 C 0,0 C 97 % 1001,2 hPa 0,0 l/m 14,2 km/h (3 Bft) W-SW 248 0 min 0,000 mm 0,0 UV-I 0 W/m -0,0 C -6,0 C 19,3 km/h (3 Bft) 95,74 %
03.02.2019 06:46 0,4 C 3,3 C 0,0 C 97 % 1001,3 hPa 0,0 l/m 13,5 km/h (3 Bft) W-SW 243 0 min 0,000 mm 0,0 UV-I 0 W/m -0,0 C -5,6 C 22,5 km/h (4 Bft) 95,74 %
03.02.2019 06:48 0,4 C 3,3 C 0,0 C 97 % 1001,2 hPa 0,0 l/m 18,4 km/h (3 Bft) SW 229 0 min 0,000 mm 0,0 UV-I 0 W/m -0,0 C -8,3 C 25,7 km/h (4 Bft) 95,74 %
03.02.2019 06:50 0,4 C 3,3 C 0,0 C 97 % 1001,2 hPa 0,0 l/m 18,0 km/h (3 Bft) W-SW 242 0 min 0,000 mm 0,0 UV-I 0 W/m -0,0 C -8,1 C 20,9 km/h (4 Bft) 91,43 %
03.02.2019 06:52 0,5 C 3,3 C 0,0 C 97 % 1001,3 hPa 0,0 l/m 12,8 km/h (3 Bft) SW 232 0 min 0,000 mm 0,0 UV-I 0 W/m 0,1 C -5,0 C 22,5 km/h (4 Bft) 94,87 %
03.02.2019 06:54 0,5 C 3,3 C 0,0 C 97 % 1001,3 hPa 0,0 l/m 15,7 km/h (3 Bft) W-SW 242 0 min 0,000 mm 0,0 UV-I 0 W/m 0,1 C -6,8 C 20,9 km/h (4 Bft) 96,72 %
03.02.2019 06:56 0,5 C 3,3 C 0,0 C 97 % 1001,2 hPa 0,0 l/m 16,4 km/h (3 Bft) W-SW 252 0 min 0,000 mm 0,0 UV-I 0 W/m 0,1 C -7,2 C 20,9 km/h (4 Bft) 89,36 %
03.02.2019 06:58 0,5 C 3,3 C 0,0 C 97 % 1001,2 hPa 0,0 l/m 14,0 km/h (3 Bft) W-SW 255 0 min 0,000 mm 0,0 UV-I 0 W/m 0,1 C -5,8 C 19,3 km/h (3 Bft) 95,74 %
03.02.2019 07:00 0,5 C 3,3 C 0,0 C 97 % 1001,2 hPa 0,0 l/m 13,7 km/h (3 Bft) W 260 0 min 0,000 mm 0,0 UV-I 0 W/m 0,1 C -5,6 C 17,7 km/h (3 Bft) 95,74 %
03.02.2019 07:02 0,5 C 3,3 C 0,0 C 97 % 1001,3 hPa 0,0 l/m 13,4 km/h (3 Bft) SW 233 0 min 0,000 mm 0,0 UV-I 0 W/m 0,1 C -5,4 C 19,3 km/h (3 Bft) 93,62 %
03.02.2019 07:04 0,5 C 3,3 C 0,0 C 97 % 1001,6 hPa 0,0 l/m 17,1 km/h (3 Bft) SW 226 0 min 0,000 mm 0,0 UV-I 0 W/m 0,1 C -7,6 C 24,1 km/h (4 Bft) 93,75 %
03.02.2019 07:06 0,5 C 3,3 C 0,0 C 97 % 1001,6 hPa 0,0 l/m 14,1 km/h (3 Bft) W-SW 256 0 min 0,000 mm 0,0 UV-I 0 W/m 0,1 C -5,8 C 20,9 km/h (4 Bft) 95,92 %
03.02.2019 07:08 0,5 C 3,3 C 0,0 C 97 % 1001,7 hPa 0,0 l/m 15,1 km/h (3 Bft) SW 231 0 min 0,000 mm 0,0 UV-I 0 W/m 0,1 C -6,4 C 22,5 km/h (4 Bft) 95,83 %
03.02.2019 07:10 0,5 C 3,3 C 0,0 C 97 % 1001,7 hPa 0,0 l/m 16,3 km/h (3 Bft) SW 233 0 min 0,000 mm 0,0 UV-I 0 W/m 0,1 C -7,1 C 22,5 km/h (4 Bft) 95,74 %
03.02.2019 07:12 0,5 C 3,3 C 0,0 C 97 % 1001,7 hPa 0,0 l/m 14,2 km/h (3 Bft) W-NW 289 0 min 0,000 mm 0,0 UV-I 0 W/m 0,1 C -5,9 C 24,1 km/h (4 Bft) 100,00 %
03.02.2019 07:14 0,5 C 3,3 C 0,0 C 97 % 1001,7 hPa 0,0 l/m 16,4 km/h (3 Bft) SW 229 0 min 0,000 mm 0,0 UV-I 0 W/m 0,1 C -7,2 C 22,5 km/h (4 Bft) 97,87 %
03.02.2019 07:16 0,5 C 3,3 C 0,0 C 97 % 1001,8 hPa 0,0 l/m 13,3 km/h (3 Bft) SW 226 0 min 0,000 mm 0,0 UV-I 0 W/m 0,1 C -5,3 C 22,5 km/h (4 Bft) 93,62 %
03.02.2019 07:18 0,5 C 3,3 C 0,0 C 97 % 1001,7 hPa 0,0 l/m 16,4 km/h (3 Bft) W-SW 237 0 min 0,000 mm 0,0 UV-I 0 W/m 0,1 C -7,2 C 22,5 km/h (4 Bft) 100,00 %
03.02.2019 07:20 0,6 C 3,3 C 0,0 C 97 % 1001,8 hPa 0,0 l/m 15,7 km/h (3 Bft) W 268 0 min 0,000 mm 0,0 UV-I 0 W/m 0,2 C -6,7 C 22,5 km/h (4 Bft) 100,00 %
03.02.2019 07:22 0,6 C 3,3 C 0,0 C 97 % 1001,9 hPa 0,0 l/m 15,3 km/h (3 Bft) SW 229 0 min 0,000 mm 0,0 UV-I 0 W/m 0,2 C -6,4 C 22,5 km/h (4 Bft) 100,00 %
03.02.2019 07:24 0,6 C 3,3 C 0,0 C 97 % 1002,0 hPa 0,0 l/m 14,8 km/h (3 Bft) W 263 0 min 0,000 mm 0,0 UV-I 0 W/m 0,2 C -6,1 C 19,3 km/h (3 Bft) 97,87 %
03.02.2019 07:26 0,6 C 3,3 C 0,0 C 97 % 1002,0 hPa 0,0 l/m 15,5 km/h (3 Bft) W-SW 253 0 min 0,000 mm 0,0 UV-I 0 W/m 0,2 C -6,5 C 22,5 km/h (4 Bft) 100,00 %
03.02.2019 07:28 0,6 C 3,3 C 0,0 C 97 % 1002,1 hPa 0,0 l/m 14,8 km/h (3 Bft) SW 236 0 min 0,000 mm 0,0 UV-I 0 W/m 0,2 C -6,1 C 22,5 km/h (4 Bft) 95,74 %
03.02.2019 07:30 0,6 C 3,3 C 0,0 C 97 % 1002,1 hPa 0,0 l/m 16,9 km/h (3 Bft) SW 222 0 min 0,000 mm 0,0 UV-I 2 W/m 0,2 C -7,3 C 22,5 km/h (4 Bft) 100,00 %
03.02.2019 07:32 0,6 C 3,3 C 0,0 C 97 % 1002,1 hPa 0,0 l/m 16,1 km/h (3 Bft) W 278 0 min 0,000 mm 0,0 UV-I 5 W/m 0,2 C -6,9 C 22,5 km/h (4 Bft) 100,00 %
03.02.2019 07:34 0,6 C 3,3 C 0,0 C 97 % 1002,2 hPa 0,0 l/m 15,2 km/h (3 Bft) SW 229 0 min 0,000 mm 0,0 UV-I 5 W/m 0,2 C -6,4 C 24,1 km/h (4 Bft) 97,37 %
03.02.2019 07:36 0,6 C 3,3 C 0,0 C 97 % 1002,3 hPa 0,0 l/m 16,1 km/h (3 Bft) SW 230 0 min 0,000 mm 0,0 UV-I 5 W/m 0,2 C -6,9 C 20,9 km/h (4 Bft) 100,00 %
03.02.2019 07:38 0,6 C 3,3 C 0,0 C 97 % 1002,3 hPa 0,0 l/m 13,9 km/h (3 Bft) W 261 0 min 0,000 mm 0,0 UV-I 5 W/m 0,2 C -5,6 C 20,9 km/h (4 Bft) 100,00 %
03.02.2019 07:40 0,6 C 3,3 C 0,0 C 97 % 1002,3 hPa 0,0 l/m 14,2 km/h (3 Bft) W-SW 240 0 min 0,000 mm 0,0 UV-I 5 W/m 0,2 C -5,8 C 22,5 km/h (4 Bft) 97,87 %
03.02.2019 07:42 0,7 C 3,3 C 0,0 C 97 % 1002,4 hPa 0,0 l/m 14,3 km/h (3 Bft) SW 226 0 min 0,000 mm 0,0 UV-I 7 W/m 0,3 C -5,7 C 19,3 km/h (3 Bft) 100,00 %
03.02.2019 07:44 0,7 C 3,3 C 0,0 C 97 % 1002,4 hPa 0,0 l/m 15,4 km/h (3 Bft) W-SW 252 0 min 0,000 mm 0,0 UV-I 8 W/m 0,3 C -6,4 C 22,5 km/h (4 Bft) 98,00 %
03.02.2019 07:46 0,7 C 3,3 C 0,0 C 97 % 1002,4 hPa 0,0 l/m 14,9 km/h (3 Bft) W 266 0 min 0,000 mm 0,0 UV-I 9 W/m 0,3 C -6,1 C 22,5 km/h (4 Bft) 100,00 %
03.02.2019 07:48 0,7 C 3,3 C 0,0 C 97 % 1002,5 hPa 0,2 l/m 15,8 km/h (3 Bft) W 268 0 min 0,000 mm 0,0 UV-I 9 W/m 0,3 C -6,6 C 22,5 km/h (4 Bft) 97,87 %
03.02.2019 07:50 0,7 C 3,3 C 0,0 C 97 % 1002,6 hPa 0,0 l/m 14,5 km/h (3 Bft) SW 221 0 min 0,000 mm 0,0 UV-I 9 W/m 0,3 C -5,8 C 19,3 km/h (3 Bft) 100,00 %
03.02.2019 07:52 0,7 C 3,3 C 0,0 C 97 % 1002,6 hPa 0,0 l/m 15,6 km/h (3 Bft) W-SW 248 0 min 0,000 mm 0,0 UV-I 11 W/m 0,3 C -6,5 C 22,5 km/h (4 Bft) 100,00 %
03.02.2019 07:54 0,7 C 3,3 C 0,0 C 97 % 1002,6 hPa 0,0 l/m 13,6 km/h (3 Bft) SW 225 0 min 0,000 mm 0,0 UV-I 11 W/m 0,3 C -5,3 C 19,3 km/h (3 Bft) 100,00 %
03.02.2019 07:56 0,7 C 3,3 C 0,0 C 97 % 1002,7 hPa 0,0 l/m 17,2 km/h (3 Bft) SW 223 0 min 0,000 mm 0,0 UV-I 12 W/m 0,3 C -7,4 C 24,1 km/h (4 Bft) 97,87 %
03.02.2019 07:58 0,7 C 3,3 C 0,0 C 97 % 1002,8 hPa 0,0 l/m 17,8 km/h (3 Bft) W-SW 241 0 min 0,000 mm 0,0 UV-I 12 W/m 0,3 C -7,7 C 24,1 km/h (4 Bft) 100,00 %
03.02.2019 08:00 0,7 C 3,3 C 0,0 C 97 % 1003,0 hPa 0,0 l/m 19,0 km/h (3 Bft) SW 221 0 min 0,000 mm 0,0 UV-I 12 W/m 0,3 C -8,3 C 25,7 km/h (4 Bft) 95,74 %
03.02.2019 08:02 0,8 C 3,3 C 0,0 C 97 % 1002,9 hPa 0,0 l/m 16,4 km/h (3 Bft) W-SW 242 0 min 0,000 mm 0,0 UV-I 12 W/m 0,4 C -6,8 C 24,1 km/h (4 Bft) 100,00 %
03.02.2019 08:04 0,8 C 3,3 C 0,0 C 97 % 1002,9 hPa 0,2 l/m 17,3 km/h (3 Bft) W-SW 251 0 min 0,000 mm 0,0 UV-I 13 W/m 0,4 C -7,3 C 24,1 km/h (4 Bft) 98,00 %
03.02.2019 08:06 0,8 C 3,3 C 0,0 C 97 % 1002,8 hPa 0,0 l/m 14,9 km/h (3 Bft) W-SW 254 0 min 0,000 mm 0,0 UV-I 17 W/m 0,4 C -6,0 C 17,7 km/h (3 Bft) 97,87 %
03.02.2019 08:08 0,8 C 3,3 C 0,0 C 97 % 1002,9 hPa 0,0 l/m 14,3 km/h (3 Bft) W-SW 254 0 min 0,000 mm 0,0 UV-I 21 W/m 0,4 C -5,6 C 20,9 km/h (4 Bft) 98,00 %
03.02.2019 08:10 0,8 C 3,3 C 0,0 C 97 % 1003,0 hPa 0,0 l/m 16,3 km/h (3 Bft) W 271 0 min 0,000 mm 0,0 UV-I 23 W/m 0,4 C -6,8 C 22,5 km/h (4 Bft) 97,87 %
03.02.2019 08:12 0,8 C 3,3 C 0,0 C 97 % 1003,0 hPa 0,0 l/m 13,8 km/h (3 Bft) W-SW 257 0 min 0,000 mm 0,0 UV-I 22 W/m 0,4 C -5,3 C 24,1 km/h (4 Bft) 97,87 %
03.02.2019 08:14 0,8 C 3,3 C 0,0 C 97 % 1003,1 hPa 0,0 l/m 14,7 km/h (3 Bft) W-SW 241 0 min 0,000 mm 0,0 UV-I 22 W/m 0,4 C -5,8 C 22,5 km/h (4 Bft) 97,87 %
03.02.2019 08:16 0,9 C 3,3 C 0,0 C 97 % 1003,1 hPa 0,0 l/m 13,9 km/h (3 Bft) W 263 0 min 0,000 mm 0,0 UV-I 23 W/m 0,5 C -5,2 C 20,9 km/h (4 Bft) 91,49 %
03.02.2019 08:18 0,9 C 3,3 C 0,0 C 97 % 1003,3 hPa 0,0 l/m 16,1 km/h (3 Bft) W 260 0 min 0,000 mm 0,0 UV-I 22 W/m 0,5 C -6,5 C 25,7 km/h (4 Bft) 97,87 %
03.02.2019 08:20 0,9 C 3,3 C 0,0 C 97 % 1003,2 hPa 0,0 l/m 14,6 km/h (3 Bft) SW 236 0 min 0,000 mm 0,0 UV-I 21 W/m 0,5 C -5,7 C 20,9 km/h (4 Bft) 100,00 %
03.02.2019 08:22 0,9 C 3,3 C 0,0 C 97 % 1003,4 hPa 0,2 l/m 12,5 km/h (3 Bft) W-SW 255 0 min 0,000 mm 0,0 UV-I 23 W/m 0,5 C -4,3 C 17,7 km/h (3 Bft) 92,00 %
03.02.2019 08:24 0,9 C 3,3 C 0,0 C 97 % 1003,4 hPa 0,0 l/m 13,1 km/h (3 Bft) SW 232 0 min 0,000 mm 0,0 UV-I 25 W/m 0,5 C -4,7 C 19,3 km/h (3 Bft) 100,00 %
03.02.2019 08:26 0,9 C 3,3 C 0,0 C 97 % 1003,4 hPa 0,0 l/m 13,1 km/h (3 Bft) W 259 0 min 0,000 mm 0,0 UV-I 23 W/m 0,5 C -4,7 C 20,9 km/h (4 Bft) 100,00 %
03.02.2019 08:28 0,9 C 3,3 C 0,0 C 97 % 1003,4 hPa 0,0 l/m 10,5 km/h (2 Bft) W-SW 253 0 min 0,000 mm 0,0 UV-I 23 W/m 0,5 C -2,9 C 14,5 km/h (3 Bft) 97,37 %
03.02.2019 08:30 1,0 C 3,3 C 0,6 C 97 % 1003,5 hPa 0,0 l/m 14,9 km/h (3 Bft) W 267 0 min 0,000 mm 0,0 UV-I 21 W/m 0,6 C -5,7 C 20,9 km/h (4 Bft) 100,00 %
03.02.2019 08:32 1,0 C 3,3 C 0,6 C 97 % 1003,5 hPa 0,0 l/m 13,4 km/h (3 Bft) W-SW 245 0 min 0,000 mm 0,0 UV-I 21 W/m 0,6 C -4,8 C 17,7 km/h (3 Bft) 97,87 %
03.02.2019 08:34 1,0 C 3,3 C 0,6 C 97 % 1003,5 hPa 0,2 l/m 10,1 km/h (2 Bft) W-SW 258 0 min 0,000 mm 0,0 UV-I 21 W/m 0,6 C -2,4 C 16,1 km/h (3 Bft) 97,96 %
03.02.2019 08:36 1,1 C 3,3 C 0,6 C 97 % 1003,6 hPa 0,0 l/m 14,9 km/h (3 Bft) W-SW 238 0 min 0,000 mm 0,0 UV-I 23 W/m 0,7 C -5,6 C 24,1 km/h (4 Bft) 98,00 %
03.02.2019 08:38 1,1 C 3,3 C 0,6 C 97 % 1003,6 hPa 0,0 l/m 14,1 km/h (3 Bft) W 274 0 min 0,000 mm 0,0 UV-I 24 W/m 0,7 C -5,1 C 17,7 km/h (3 Bft) 97,87 %
03.02.2019 08:40 1,1 C 3,3 C 0,6 C 97 % 1003,6 hPa 0,0 l/m 12,9 km/h (3 Bft) SW 221 0 min 0,000 mm 0,0 UV-I 27 W/m 0,7 C -4,3 C 22,5 km/h (4 Bft) 93,62 %
03.02.2019 08:42 1,1 C 3,3 C 0,6 C 97 % 1003,6 hPa 0,0 l/m 17,5 km/h (3 Bft) W-SW 241 0 min 0,000 mm 0,0 UV-I 31 W/m 0,7 C -7,0 C 27,4 km/h (4 Bft) 97,87 %
03.02.2019 08:44 1,1 C 3,3 C 0,6 C 97 % 1003,6 hPa 0,0 l/m 16,3 km/h (3 Bft) SW 234 0 min 0,000 mm 0,0 UV-I 34 W/m 0,7 C -6,4 C 22,5 km/h (4 Bft) 97,87 %
03.02.2019 08:46 1,1 C 3,3 C 0,6 C 97 % 1003,7 hPa 0,0 l/m 16,9 km/h (3 Bft) SW 236 0 min 0,000 mm 0,0 UV-I 35 W/m 0,7 C -6,7 C 22,5 km/h (4 Bft) 95,74 %
03.02.2019 08:48 1,1 C 3,3 C 0,6 C 97 % 1003,7 hPa 0,2 l/m 16,0 km/h (3 Bft) W-SW 246 0 min 0,000 mm 0,0 UV-I 33 W/m 0,7 C -6,2 C 19,3 km/h (3 Bft) 97,87 %
03.02.2019 08:50 1,1 C 3,3 C 0,6 C 97 % 1003,8 hPa 0,0 l/m 13,3 km/h (3 Bft) W-SW 249 0 min 0,000 mm 0,0 UV-I 32 W/m 0,7 C -4,6 C 19,3 km/h (3 Bft) 95,74 %
03.02.2019 08:52 1,1 C 3,3 C 0,6 C 97 % 1003,8 hPa 0,0 l/m 15,3 km/h (3 Bft) W 277 0 min 0,000 mm 0,0 UV-I 32 W/m 0,7 C -5,8 C 19,3 km/h (3 Bft) 97,87 %
03.02.2019 08:54 1,1 C 3,3 C 0,6 C 97 % 1003,8 hPa 0,0 l/m 13,3 km/h (3 Bft) W 279 0 min 0,000 mm 0,0 UV-I 33 W/m 0,7 C -4,6 C 17,7 km/h (3 Bft) 97,87 %
03.02.2019 08:56 1,1 C 3,3 C 0,6 C 97 % 1003,9 hPa 0,0 l/m 14,7 km/h (3 Bft) W 261 0 min 0,000 mm 0,0 UV-I 33 W/m 0,7 C -5,5 C 20,9 km/h (4 Bft) 97,87 %
03.02.2019 08:58 1,1 C 3,3 C 0,6 C 97 % 1003,9 hPa 0,2 l/m 14,5 km/h (3 Bft) W-SW 254 0 min 0,000 mm 0,0 UV-I 33 W/m 0,7 C -5,4 C 19,3 km/h (3 Bft) 93,62 %
03.02.2019 09:00 1,2 C 3,3 C 0,6 C 97 % 1004,0 hPa 0,0 l/m 14,4 km/h (3 Bft) W 266 0 min 0,000 mm 0,0 UV-I 32 W/m 0,8 C -5,2 C 19,3 km/h (3 Bft) 95,74 %
03.02.2019 09:02 1,2 C 3,3 C 0,6 C 97 % 1004,0 hPa 0,0 l/m 14,9 km/h (3 Bft) W 267 0 min 0,000 mm 0,0 UV-I 32 W/m 0,8 C -5,5 C 24,1 km/h (4 Bft) 95,83 %
03.02.2019 09:04 1,2 C 3,3 C 0,6 C 97 % 1004,0 hPa 0,0 l/m 12,2 km/h (2 Bft) W 271 0 min 0,000 mm 0,0 UV-I 32 W/m 0,8 C -3,8 C 20,9 km/h (4 Bft) 92,11 %
03.02.2019 09:06 1,2 C 3,3 C 0,6 C 97 % 1004,0 hPa 0,0 l/m 13,1 km/h (3 Bft) W-SW 248 0 min 0,000 mm 0,0 UV-I 32 W/m 0,8 C -4,4 C 19,3 km/h (3 Bft) 98,00 %
03.02.2019 09:08 1,2 C 3,3 C 0,6 C 97 % 1004,1 hPa 0,0 l/m 12,0 km/h (2 Bft) W 259 0 min 0,000 mm 0,0 UV-I 33 W/m 0,8 C -3,6 C 16,1 km/h (3 Bft) 97,87 %
03.02.2019 09:10 1,2 C 3,3 C 0,6 C 97 % 1004,2 hPa 0,0 l/m 13,8 km/h (3 Bft) W-NW 283 0 min 0,000 mm 0,0 UV-I 34 W/m 0,8 C -4,8 C 20,9 km/h (4 Bft) 100,00 %
03.02.2019 09:12 1,2 C 3,3 C 0,6 C 97 % 1004,2 hPa 0,2 l/m 15,3 km/h (3 Bft) W-SW 257 0 min 0,000 mm 0,0 UV-I 39 W/m 0,8 C -5,7 C 22,5 km/h (4 Bft) 97,87 %
03.02.2019 09:14 1,2 C 3,3 C 0,6 C 97 % 1004,2 hPa 0,0 l/m 12,6 km/h (3 Bft) W 260 0 min 0,000 mm 0,0 UV-I 44 W/m 0,8 C -4,0 C 20,9 km/h (4 Bft) 98,00 %
03.02.2019 09:16 1,2 C 3,3 C 0,6 C 97 % 1004,2 hPa 0,0 l/m 13,9 km/h (3 Bft) W-SW 248 0 min 0,000 mm 0,0 UV-I 44 W/m 0,8 C -4,9 C 20,9 km/h (4 Bft) 100,00 %
03.02.2019 09:18 1,3 C 3,3 C 0,6 C 97 % 1004,2 hPa 0,0 l/m 15,3 km/h (3 Bft) W-SW 254 0 min 0,000 mm 0,0 UV-I 45 W/m 0,9 C -5,6 C 20,9 km/h (4 Bft) 97,87 %
03.02.2019 09:20 1,3 C 3,3 C 1,1 C 97 % 1004,2 hPa 0,2 l/m 12,7 km/h (3 Bft) W 266 0 min 0,000 mm 0,0 UV-I 59 W/m 0,9 C -4,0 C 17,7 km/h (3 Bft) 89,19 %
03.02.2019 09:22 1,3 C 3,3 C 1,1 C 97 % 1004,2 hPa 0,0 l/m 12,3 km/h (3 Bft) W 269 0 min 0,000 mm 0,0 UV-I 69 W/m 0,9 C -3,7 C 20,9 km/h (4 Bft) 97,87 %
03.02.2019 09:24 1,3 C 3,3 C 1,1 C 97 % 1004,2 hPa 0,0 l/m 10,8 km/h (2 Bft) W-SW 254 0 min 0,000 mm 0,0 UV-I 72 W/m 0,9 C -2,6 C 14,5 km/h (3 Bft) 97,87 %
03.02.2019 09:26 1,3 C 3,3 C 1,1 C 97 % 1004,3 hPa 0,0 l/m 10,2 km/h (2 Bft) W 271 0 min 0,000 mm 0,0 UV-I 75 W/m 0,9 C -2,2 C 12,9 km/h (3 Bft) 95,74 %
03.02.2019 09:28 1,3 C 3,3 C 1,1 C 97 % 1004,4 hPa 0,0 l/m 12,0 km/h (2 Bft) W 273 0 min 0,000 mm 0,0 UV-I 79 W/m 0,9 C -3,5 C 16,1 km/h (3 Bft) 97,87 %
03.02.2019 09:30 1,3 C 3,3 C 1,1 C 97 % 1004,4 hPa 0,0 l/m 15,7 km/h (3 Bft) W 263 0 min 0,000 mm 0,0 UV-I 75 W/m 0,9 C -5,8 C 25,7 km/h (4 Bft) 97,87 %
03.02.2019 09:32 1,3 C 3,3 C 1,1 C 96 % 1004,5 hPa 0,2 l/m 10,3 km/h (2 Bft) W 271 0 min 0,000 mm 0,0 UV-I 69 W/m 0,7 C -2,3 C 14,5 km/h (3 Bft) 95,74 %
03.02.2019 09:34 1,4 C 3,3 C 1,1 C 96 % 1004,6 hPa 0,0 l/m 13,3 km/h (3 Bft) S-SW 207 0 min 0,000 mm 0,0 UV-I 61 W/m 0,8 C -4,3 C 20,9 km/h (4 Bft) 96,00 %
03.02.2019 09:36 1,4 C 3,3 C 1,1 C 96 % 1004,6 hPa 0,0 l/m 13,3 km/h (3 Bft) W-SW 257 0 min 0,000 mm 0,0 UV-I 63 W/m 0,8 C -4,3 C 19,3 km/h (3 Bft) 97,87 %
03.02.2019 09:38 1,4 C 3,3 C 1,1 C 96 % 1004,6 hPa 0,0 l/m 10,1 km/h (2 Bft) W-NW 288 0 min 0,000 mm 0,0 UV-I 74 W/m 0,8 C -2,0 C 14,5 km/h (3 Bft) 95,24 %
03.02.2019 09:40 1,4 C 3,3 C 1,1 C 96 % 1004,7 hPa 0,2 l/m 11,8 km/h (2 Bft) W 275 0 min 0,000 mm 0,0 UV-I 78 W/m 0,8 C -3,2 C 16,1 km/h (3 Bft) 97,87 %
03.02.2019 09:42 1,4 C 3,3 C 1,1 C 96 % 1004,7 hPa 0,0 l/m 12,1 km/h (2 Bft) W 259 0 min 0,000 mm 0,0 UV-I 75 W/m 0,8 C -3,5 C 16,1 km/h (3 Bft) 100,00 %
03.02.2019 09:44 1,5 C 3,3 C 1,1 C 96 % 1004,8 hPa 0,0 l/m 9,6 km/h (2 Bft) W 272 0 min 0,000 mm 0,0 UV-I 73 W/m 0,9 C -1,5 C 12,9 km/h (3 Bft) 98,00 %
03.02.2019 09:46 1,5 C 3,3 C 1,7 C 96 % 1004,9 hPa 0,0 l/m 6,8 km/h (2 Bft) W 270 0 min 0,000 mm 0,0 UV-I 68 W/m 0,9 C 1,1 C 11,3 km/h (2 Bft) 94,74 %
03.02.2019 09:48 1,5 C 3,3 C 1,1 C 96 % 1005,0 hPa 0,0 l/m 6,9 km/h (2 Bft) W 259 0 min 0,000 mm 0,0 UV-I 61 W/m 0,9 C 1,0 C 11,3 km/h (2 Bft) 97,87 %
03.02.2019 09:50 1,4 C 3,3 C 1,1 C 96 % 1005,0 hPa 0,0 l/m 12,3 km/h (3 Bft) W-SW 245 0 min 0,000 mm 0,0 UV-I 62 W/m 0,8 C -3,6 C 17,7 km/h (3 Bft) 100,00 %
03.02.2019 09:52 1,4 C 3,3 C 1,1 C 96 % 1005,0 hPa 0,2 l/m 9,4 km/h (2 Bft) W-SW 258 0 min 0,000 mm 0,0 UV-I 65 W/m 0,8 C -1,4 C 12,9 km/h (3 Bft) 97,87 %
03.02.2019 09:54 1,4 C 3,3 C 1,1 C 96 % 1005,1 hPa 0,0 l/m 6,9 km/h (2 Bft) W-SW 251 0 min 0,000 mm 0,0 UV-I 63 W/m 0,8 C 0,9 C 11,3 km/h (2 Bft) 93,62 %
03.02.2019 09:56 1,5 C 3,3 C 1,1 C 96 % 1005,2 hPa 0,0 l/m 5,6 km/h (1 Bft) W 261 0 min 0,000 mm 0,0 UV-I 66 W/m 0,9 C 1,5 C 12,9 km/h (3 Bft) 93,62 %
03.02.2019 09:58 1,5 C 3,3 C 1,7 C 96 % 1005,3 hPa 0,0 l/m 6,1 km/h (2 Bft) W-SW 250 0 min 0,000 mm 0,0 UV-I 70 W/m 0,9 C 1,5 C 11,3 km/h (2 Bft) 98,00 %
03.02.2019 10:00 1,6 C 3,3 C 1,7 C 96 % 1005,4 hPa 0,0 l/m 8,3 km/h (2 Bft) W-SW 253 0 min 0,025 mm 0,0 UV-I 66 W/m 1,0 C -0,2 C 12,9 km/h (3 Bft) 97,87 %
03.02.2019 10:02 1,5 C 3,3 C 1,7 C 96 % 1005,4 hPa 0,2 l/m 11,0 km/h (2 Bft) W 263 0 min 0,000 mm 0,0 UV-I 66 W/m 0,9 C -2,6 C 16,1 km/h (3 Bft) 96,00 %
03.02.2019 10:04 1,5 C 3,3 C 1,7 C 96 % 1005,5 hPa 0,0 l/m 8,7 km/h (2 Bft) W 273 0 min 0,000 mm 0,0 UV-I 62 W/m 0,9 C -0,7 C 12,9 km/h (3 Bft) 95,74 %
03.02.2019 10:06 1,5 C 3,3 C 1,7 C 96 % 1005,5 hPa 0,0 l/m 9,2 km/h (2 Bft) W 269 0 min 0,000 mm 0,0 UV-I 58 W/m 0,9 C -1,1 C 14,5 km/h (3 Bft) 97,87 %
03.02.2019 10:08 1,5 C 3,3 C 1,1 C 96 % 1005,5 hPa 0,0 l/m 7,6 km/h (2 Bft) W 279 0 min 0,000 mm 0,0 UV-I 57 W/m 0,9 C 0,3 C 12,9 km/h (3 Bft) 95,74 %
03.02.2019 10:10 1,5 C 3,3 C 1,1 C 96 % 1005,5 hPa 0,0 l/m 8,3 km/h (2 Bft) W-SW 257 0 min 0,000 mm 0,0 UV-I 55 W/m 0,9 C -0,3 C 12,9 km/h (3 Bft) 95,74 %
03.02.2019 10:12 1,5 C 3,3 C 1,7 C 96 % 1005,5 hPa 0,0 l/m 7,4 km/h (2 Bft) W 268 0 min 0,000 mm 0,0 UV-I 56 W/m 0,9 C 0,5 C 11,3 km/h (2 Bft) 92,11 %
03.02.2019 10:14 1,4 C 3,3 C 1,1 C 96 % 1005,7 hPa 0,0 l/m 7,9 km/h (2 Bft) W 277 0 min 0,000 mm 0,0 UV-I 63 W/m 0,8 C -0,1 C 12,9 km/h (3 Bft) 98,00 %
03.02.2019 10:16 1,5 C 3,3 C 1,7 C 96 % 1005,8 hPa 0,0 l/m 4,6 km/h (1 Bft) W-SW 239 0 min 0,000 mm 0,0 UV-I 68 W/m 0,9 C 1,5 C 8,0 km/h (2 Bft) 96,00 %
03.02.2019 10:18 1,5 C 3,3 C 1,7 C 96 % 1005,8 hPa 0,2 l/m 5,0 km/h (1 Bft) W-SW 244 0 min 0,000 mm 0,0 UV-I 72 W/m 0,9 C 1,5 C 12,9 km/h (3 Bft) 97,92 %
03.02.2019 10:20 1,5 C 3,3 C 1,7 C 96 % 1005,8 hPa 0,0 l/m 10,1 km/h (2 Bft) W 270 0 min 0,000 mm 0,0 UV-I 79 W/m 0,9 C -1,9 C 12,9 km/h (3 Bft) 98,00 %
03.02.2019 10:22 1,5 C 3,3 C 1,7 C 96 % 1005,9 hPa 0,0 l/m 8,4 km/h (2 Bft) W-SW 244 0 min 0,000 mm 0,0 UV-I 89 W/m 0,9 C -0,4 C 12,9 km/h (3 Bft) 97,37 %
03.02.2019 10:24 1,6 C 3,3 C 2,2 C 96 % 1005,9 hPa 0,0 l/m 7,9 km/h (2 Bft) SW 227 0 min 0,000 mm 0,0 UV-I 99 W/m 1,0 C 0,1 C 12,9 km/h (3 Bft) 97,87 %
03.02.2019 10:26 1,6 C 3,3 C 2,2 C 96 % 1005,9 hPa 0,0 l/m 6,0 km/h (2 Bft) W-SW 253 0 min 0,000 mm 0,0 UV-I 113 W/m 1,0 C 1,6 C 11,3 km/h (2 Bft) 98,00 %
03.02.2019 10:28 1,6 C 3,3 C 2,2 C 96 % 1005,9 hPa 0,0 l/m 8,5 km/h (2 Bft) SW 221 0 min 0,000 mm 0,0 UV-I 125 W/m 1,0 C -0,4 C 14,5 km/h (3 Bft) 96,00 %
03.02.2019 10:30 1,6 C 3,3 C 2,2 C 96 % 1005,9 hPa 0,2 l/m 9,0 km/h (2 Bft) W 269 0 min 0,000 mm 0,0 UV-I 147 W/m 1,0 C -0,9 C 16,1 km/h (3 Bft) 97,87 %
03.02.2019 10:32 1,7 C 3,3 C 2,8 C 96 % 1005,8 hPa 0,0 l/m 12,5 km/h (3 Bft) W 265 0 min 0,000 mm 0,0 UV-I 175 W/m 1,1 C -3,4 C 20,9 km/h (4 Bft) 97,87 %
03.02.2019 10:34 1,7 C 3,3 C 2,8 C 96 % 1005,8 hPa 0,0 l/m 11,2 km/h (2 Bft) W 279 0 min 0,000 mm 0,1 UV-I 198 W/m 1,1 C -2,5 C 14,5 km/h (3 Bft) 97,87 %
03.02.2019 10:36 1,8 C 3,3 C 2,8 C 96 % 1005,7 hPa 0,0 l/m 13,2 km/h (3 Bft) W-SW 242 2 min 0,000 mm 0,5 UV-I 214 W/m 1,2 C -3,7 C 20,9 km/h (4 Bft) 94,74 %
03.02.2019 10:38 1,8 C 3,3 C 2,8 C 96 % 1005,7 hPa 0,0 l/m 14,5 km/h (3 Bft) W 267 2 min 0,000 mm 0,5 UV-I 229 W/m 1,2 C -4,5 C 20,9 km/h (4 Bft) 95,74 %
03.02.2019 10:40 1,9 C 3,3 C 3,3 C 96 % 1005,7 hPa 0,0 l/m 15,3 km/h (3 Bft) W 263 2 min 0,000 mm 0,5 UV-I 221 W/m 1,3 C -4,8 C 19,3 km/h (3 Bft) 91,49 %
03.02.2019 10:42 1,9 C 3,3 C 3,3 C 96 % 1005,7 hPa 0,0 l/m 12,7 km/h (3 Bft) SW 232 2 min 0,000 mm 0,6 UV-I 228 W/m 1,3 C -3,3 C 20,9 km/h (4 Bft) 91,49 %
03.02.2019 10:44 2,0 C 3,3 C 3,3 C 96 % 1005,7 hPa 0,2 l/m 13,7 km/h (3 Bft) W-SW 239 0 min 0,000 mm 0,6 UV-I 208 W/m 1,4 C -3,8 C 20,9 km/h (4 Bft) 90,57 %
03.02.2019 10:46 2,0 C 3,3 C 3,3 C 96 % 1005,7 hPa 0,0 l/m 14,9 km/h (3 Bft) W-NW 283 0 min 0,000 mm 0,5 UV-I 205 W/m 1,4 C -4,5 C 22,5 km/h (4 Bft) 91,49 %
03.02.2019 10:48 2,1 C 3,3 C 3,3 C 95 % 1005,8 hPa 0,0 l/m 13,4 km/h (3 Bft) W 267 0 min 0,000 mm 0,5 UV-I 182 W/m 1,4 C -3,5 C 24,1 km/h (4 Bft) 93,62 %
03.02.2019 10:50 2,1 C 3,3 C 3,3 C 95 % 1005,9 hPa 0,0 l/m 11,4 km/h (2 Bft) W-SW 248 2 min 0,000 mm 0,5 UV-I 252 W/m 1,4 C -2,2 C 22,5 km/h (4 Bft) 91,49 %
03.02.2019 10:52 2,1 C 3,3 C 2,8 C 95 % 1005,9 hPa 0,0 l/m 13,3 km/h (3 Bft) W 273 0 min 0,000 mm 0,5 UV-I 154 W/m 1,4 C -3,4 C 20,9 km/h (4 Bft) 95,74 %
03.02.2019 10:54 2,1 C 3,3 C 2,8 C 95 % 1005,9 hPa 0,0 l/m 13,5 km/h (3 Bft) W 261 0 min 0,000 mm 0,5 UV-I 160 W/m 1,4 C -3,6 C 19,3 km/h (3 Bft) 94,00 %
03.02.2019 10:56 2,2 C 3,3 C 3,3 C 95 % 1005,9 hPa 0,2 l/m 11,4 km/h (2 Bft) W-SW 252 0 min 0,000 mm 0,5 UV-I 185 W/m 1,5 C -2,1 C 17,7 km/h (3 Bft) 91,67 %
03.02.2019 10:58 2,2 C 3,3 C 3,3 C 95 % 1006,0 hPa 0,0 l/m 14,7 km/h (3 Bft) W 275 0 min 0,000 mm 0,5 UV-I 196 W/m 1,5 C -4,1 C 20,9 km/h (4 Bft) 95,74 %
03.02.2019 11:00 2,2 C 3,3 C 3,3 C 95 % 1006,1 hPa 0,0 l/m 15,5 km/h (3 Bft) W-SW 243 0 min 0,051 mm 0,5 UV-I 183 W/m 1,5 C -4,6 C 24,1 km/h (4 Bft) 95,74 %
03.02.2019 11:02 2,2 C 3,3 C 3,3 C 95 % 1006,1 hPa 0,0 l/m 15,6 km/h (3 Bft) W-SW 242 0 min 0,000 mm 0,5 UV-I 199 W/m 1,5 C -4,6 C 25,7 km/h (4 Bft) 93,62 %
03.02.2019 11:04 2,3 C 3,3 C 3,3 C 95 % 1006,2 hPa 0,0 l/m 11,0 km/h (2 Bft) W-SW 258 2 min 0,000 mm 0,5 UV-I 226 W/m 1,6 C -1,7 C 22,5 km/h (4 Bft) 93,62 %
03.02.2019 11:06 2,4 C 3,3 C 3,9 C 95 % 1006,3 hPa 0,0 l/m 9,5 km/h (2 Bft) W-NW 282 0 min 0,000 mm 0,5 UV-I 207 W/m 1,7 C -0,4 C 19,3 km/h (3 Bft) 96,00 %
03.02.2019 11:08 2,5 C 3,3 C 3,9 C 95 % 1006,4 hPa 0,0 l/m 15,0 km/h (3 Bft) W 269 2 min 0,000 mm 0,5 UV-I 246 W/m 1,8 C -4,0 C 25,7 km/h (4 Bft) 95,74 %
03.02.2019 11:10 2,6 C 3,3 C 5,0 C 95 % 1006,5 hPa 0,0 l/m 14,6 km/h (3 Bft) W-SW 239 2 min 0,000 mm 0,5 UV-I 241 W/m 1,9 C -3,6 C 20,9 km/h (4 Bft) 93,62 %
03.02.2019 11:12 2,7 C 3,3 C 4,4 C 95 % 1006,4 hPa 0,0 l/m 12,3 km/h (3 Bft) W 262 2 min 0,000 mm 0,5 UV-I 231 W/m 2,0 C -2,1 C 16,1 km/h (3 Bft) 97,87 %
03.02.2019 11:14 2,7 C 3,3 C 4,4 C 94 % 1006,5 hPa 0,0 l/m 8,4 km/h (2 Bft) W-NW 283 0 min 0,000 mm 0,5 UV-I 189 W/m 1,8 C 0,8 C 12,9 km/h (3 Bft) 98,00 %
03.02.2019 11:16 2,7 C 3,3 C 3,9 C 94 % 1006,5 hPa 0,0 l/m 10,0 km/h (2 Bft) SW 224 0 min 0,000 mm 0,2 UV-I 164 W/m 1,8 C -0,5 C 16,1 km/h (3 Bft) 95,74 %
03.02.2019 11:18 2,7 C 3,3 C 3,9 C 94 % 1006,6 hPa 0,0 l/m 14,0 km/h (3 Bft) W-SW 246 0 min 0,000 mm 0,0 UV-I 155 W/m 1,8 C -3,1 C 20,9 km/h (4 Bft) 100,00 %
03.02.2019 11:20 2,7 C 3,3 C 3,9 C 94 % 1006,5 hPa 0,0 l/m 12,8 km/h (3 Bft) W-SW 246 0 min 0,000 mm 0,0 UV-I 148 W/m 1,8 C -2,4 C 19,3 km/h (3 Bft) 97,14 %
03.02.2019 11:22 2,7 C 3,3 C 3,9 C 94 % 1006,5 hPa 0,0 l/m 13,8 km/h (3 Bft) W-SW 250 0 min 0,000 mm 0,1 UV-I 150 W/m 1,8 C -3,0 C 22,5 km/h (4 Bft) 98,00 %
03.02.2019 11:24 2,7 C 3,3 C 3,3 C 93 % 1006,5 hPa 0,0 l/m 18,8 km/h (3 Bft) W-SW 254 0 min 0,000 mm 0,5 UV-I 174 W/m 1,7 C -5,6 C 27,4 km/h (4 Bft) 100,00 %
03.02.2019 11:26 2,7 C 3,3 C 3,9 C 93 % 1006,5 hPa 0,0 l/m 19,7 km/h (3 Bft) SW 234 0 min 0,000 mm 0,5 UV-I 216 W/m 1,7 C -6,0 C 27,4 km/h (4 Bft) 98,00 %
03.02.2019 11:28 2,7 C 3,3 C 3,9 C 93 % 1006,5 hPa 0,0 l/m 18,2 km/h (3 Bft) W 271 0 min 0,000 mm 0,5 UV-I 187 W/m 1,7 C -5,3 C 24,1 km/h (4 Bft) 100,00 %
03.02.2019 11:30 2,7 C 3,3 C 3,9 C 93 % 1006,5 hPa 0,0 l/m 14,5 km/h (3 Bft) W-SW 256 0 min 0,000 mm 0,5 UV-I 182 W/m 1,7 C -3,4 C 20,9 km/h (4 Bft) 100,00 %
03.02.2019 11:32 2,7 C 3,3 C 3,9 C 93 % 1006,5 hPa 0,0 l/m 20,1 km/h (4 Bft) W 271 0 min 0,000 mm 0,0 UV-I 144 W/m 1,7 C -6,2 C 29,0 km/h (5 Bft) 100,00 %
03.02.2019 11:34 2,7 C 3,3 C 3,3 C 93 % 1006,6 hPa 0,0 l/m 18,5 km/h (3 Bft) W 261 0 min 0,000 mm 0,0 UV-I 128 W/m 1,7 C -5,5 C 24,1 km/h (4 Bft) 100,00 %
03.02.2019 11:36 2,7 C 3,3 C 3,3 C 93 % 1006,6 hPa 0,0 l/m 14,7 km/h (3 Bft) W-SW 244 0 min 0,000 mm 0,0 UV-I 124 W/m 1,7 C -3,5 C 29,0 km/h (5 Bft) 100,00 %
03.02.2019 11:39 2,6 C 3,3 C 3,3 C 93 % 1006,6 hPa 0,0 l/m 19,3 km/h (3 Bft) W-SW 255 0 min 0,000 mm 0,0 UV-I 125 W/m 1,6 C -6,0 C 29,0 km/h (5 Bft) 98,63 %
03.02.2019 11:40 2,6 C 3,3 C 3,3 C 93 % 1006,6 hPa 0,0 l/m 17,0 km/h (3 Bft) W 274 0 min 0,000 mm 0,0 UV-I 133 W/m 1,6 C -4,9 C 22,5 km/h (4 Bft) 100,00 %
03.02.2019 11:42 2,7 C 3,3 C 3,9 C 93 % 1006,5 hPa 0,0 l/m 22,0 km/h (4 Bft) W-NW 282 0 min 0,000 mm 0,0 UV-I 167 W/m 1,7 C -7,0 C 29,0 km/h (5 Bft) 100,00 %
03.02.2019 11:44 2,7 C 3,3 C 3,3 C 92 % 1006,4 hPa 0,0 l/m 22,0 km/h (4 Bft) W 269 0 min 0,000 mm 0,0 UV-I 151 W/m 1,5 C -7,0 C 29,0 km/h (5 Bft) 100,00 %
03.02.2019 11:46 2,7 C 3,3 C 3,9 C 92 % 1006,4 hPa 0,0 l/m 19,7 km/h (3 Bft) SW 223 0 min 0,000 mm 0,1 UV-I 157 W/m 1,5 C -6,0 C 29,0 km/h (5 Bft) 97,87 %
03.02.2019 11:48 2,7 C 3,3 C 4,4 C 92 % 1006,3 hPa 0,0 l/m 21,4 km/h (4 Bft) W 274 2 min 0,000 mm 0,5 UV-I 244 W/m 1,5 C -6,7 C 30,6 km/h (5 Bft) 100,00 %
03.02.2019 11:50 2,8 C 3,3 C 5,0 C 92 % 1006,4 hPa 0,0 l/m 18,7 km/h (3 Bft) W-SW 252 2 min 0,000 mm 0,6 UV-I 269 W/m 1,6 C -5,4 C 25,7 km/h (4 Bft) 97,87 %
03.02.2019 11:52 2,9 C 3,3 C 5,0 C 92 % 1006,4 hPa 0,0 l/m 20,5 km/h (4 Bft) W-SW 251 0 min 0,000 mm 0,5 UV-I 227 W/m 1,7 C -6,1 C 29,0 km/h (5 Bft) 97,87 %
03.02.2019 11:54 2,9 C 3,3 C 4,4 C 92 % 1006,5 hPa 0,0 l/m 16,3 km/h (3 Bft) W-NW 287 0 min 0,000 mm 0,5 UV-I 170 W/m 1,7 C -4,2 C 24,1 km/h (4 Bft) 93,62 %
03.02.2019 11:56 2,8 C 3,3 C 4,4 C 92 % 1006,5 hPa 0,0 l/m 19,5 km/h (3 Bft) W 275 0 min 0,000 mm 0,5 UV-I 145 W/m 1,6 C -5,8 C 29,0 km/h (5 Bft) 93,62 %
03.02.2019 11:58 2,8 C 3,3 C 4,4 C 92 % 1006,5 hPa 0,0 l/m 22,7 km/h (4 Bft) SW 225 0 min 0,000 mm 0,5 UV-I 192 W/m 1,6 C -7,1 C 37,0 km/h (5 Bft) 97,87 %
03.02.2019 12:00 2,8 C 3,3 C 4,4 C 92 % 1006,5 hPa 0,0 l/m 21,7 km/h (4 Bft) SW 227 0 min 0,076 mm 0,6 UV-I 228 W/m 1,6 C -6,7 C 33,8 km/h (5 Bft) 97,87 %
03.02.2019 12:02 2,8 C 3,3 C 4,4 C 91 % 1006,6 hPa 0,0 l/m 21,9 km/h (4 Bft) W 267 0 min 0,000 mm 0,5 UV-I 222 W/m 1,5 C -6,8 C 32,2 km/h (5 Bft) 95,74 %
03.02.2019 12:04 2,9 C 3,3 C 4,4 C 91 % 1006,6 hPa 0,0 l/m 22,2 km/h (4 Bft) W 265 0 min 0,000 mm 0,6 UV-I 210 W/m 1,6 C -6,8 C 27,4 km/h (4 Bft) 97,87 %
03.02.2019 12:06 2,9 C 3,3 C 4,4 C 91 % 1006,7 hPa 0,0 l/m 20,7 km/h (4 Bft) W-NW 282 0 min 0,000 mm 0,6 UV-I 187 W/m 1,6 C -6,2 C 30,6 km/h (5 Bft) 97,44 %
03.02.2019 12:08 2,9 C 3,3 C 4,4 C 91 % 1006,7 hPa 0,0 l/m 20,7 km/h (4 Bft) W-SW 253 0 min 0,000 mm 0,5 UV-I 136 W/m 1,6 C -6,2 C 41,8 km/h (6 Bft) 97,87 %
03.02.2019 12:10 2,8 C 3,3 C 3,9 C 91 % 1006,8 hPa 0,0 l/m 19,7 km/h (3 Bft) W-SW 257 0 min 0,000 mm 0,5 UV-I 123 W/m 1,5 C -5,9 C 29,0 km/h (5 Bft) 98,00 %
03.02.2019 12:12 2,8 C 3,3 C 3,9 C 91 % 1006,9 hPa 0,0 l/m 19,6 km/h (3 Bft) W-SW 253 0 min 0,000 mm 0,5 UV-I 116 W/m 1,5 C -5,8 C 32,2 km/h (5 Bft) 100,00 %
03.02.2019 12:14 2,8 C 3,3 C 3,9 C 91 % 1007,0 hPa 0,0 l/m 15,8 km/h (3 Bft) W-SW 256 0 min 0,000 mm 0,4 UV-I 112 W/m 1,5 C -4,0 C 24,1 km/h (4 Bft) 97,87 %
03.02.2019 12:16 2,8 C 3,3 C 3,9 C 91 % 1007,1 hPa 0,0 l/m 15,5 km/h (3 Bft) W 271 0 min 0,000 mm 0,0 UV-I 107 W/m 1,5 C -3,9 C 22,5 km/h (4 Bft) 100,00 %
03.02.2019 12:18 2,8 C 3,3 C 3,3 C 91 % 1007,2 hPa 0,0 l/m 18,0 km/h (3 Bft) W 274 0 min 0,000 mm 0,0 UV-I 104 W/m 1,5 C -5,1 C 29,0 km/h (5 Bft) 100,00 %
03.02.2019 12:20 2,8 C 3,3 C 3,3 C 91 % 1007,1 hPa 0,0 l/m 19,3 km/h (3 Bft) W-SW 238 0 min 0,000 mm 0,0 UV-I 98 W/m 1,5 C -5,7 C 25,7 km/h (4 Bft) 97,87 %
03.02.2019 12:22 2,8 C 3,3 C 3,3 C 91 % 1007,3 hPa 0,0 l/m 18,6 km/h (3 Bft) SW 223 0 min 0,000 mm 0,0 UV-I 101 W/m 1,5 C -5,4 C 29,0 km/h (5 Bft) 97,87 %
03.02.2019 12:24 2,8 C 3,3 C 3,3 C 91 % 1007,3 hPa 0,0 l/m 13,4 km/h (3 Bft) W 277 0 min 0,000 mm 0,0 UV-I 105 W/m 1,5 C -2,7 C 17,7 km/h (3 Bft) 100,00 %
03.02.2019 12:26 2,8 C 3,3 C 3,3 C 91 % 1007,3 hPa 0,0 l/m 14,2 km/h (3 Bft) W-SW 246 0 min 0,000 mm 0,0 UV-I 102 W/m 1,5 C -3,1 C 19,3 km/h (3 Bft) 100,00 %
03.02.2019 12:28 2,7 C 3,3 C 3,3 C 91 % 1007,2 hPa 0,0 l/m 19,3 km/h (3 Bft) W 265 0 min 0,000 mm 0,0 UV-I 100 W/m 1,4 C -5,8 C 27,4 km/h (4 Bft) 100,00 %
03.02.2019 12:30 2,8 C 3,3 C 3,3 C 91 % 1007,2 hPa 0,0 l/m 19,9 km/h (4 Bft) W 267 0 min 0,000 mm 0,0 UV-I 101 W/m 1,5 C -6,0 C 27,4 km/h (4 Bft) 97,87 %
03.02.2019 12:32 2,7 C 3,3 C 3,3 C 91 % 1007,2 hPa 0,0 l/m 18,8 km/h (3 Bft) W 269 0 min 0,000 mm 0,0 UV-I 94 W/m 1,4 C -5,6 C 25,7 km/h (4 Bft) 97,87 %
03.02.2019 12:34 2,7 C 3,3 C 3,3 C 91 % 1007,3 hPa 0,0 l/m 20,3 km/h (4 Bft) W-SW 257 0 min 0,000 mm 0,0 UV-I 96 W/m 1,4 C -6,3 C 29,0 km/h (5 Bft) 97,87 %
03.02.2019 12:36 2,7 C 3,3 C 3,3 C 90 % 1007,4 hPa 0,0 l/m 21,8 km/h (4 Bft) W 265 0 min 0,000 mm 0,0 UV-I 100 W/m 1,2 C -6,9 C 37,0 km/h (5 Bft) 100,00 %
03.02.2019 12:38 2,7 C 3,3 C 3,3 C 90 % 1007,3 hPa 0,0 l/m 23,8 km/h (4 Bft) W 280 0 min 0,000 mm 0,0 UV-I 110 W/m 1,2 C -7,6 C 32,2 km/h (5 Bft) 100,00 %
03.02.2019 12:40 2,7 C 3,3 C 3,3 C 90 % 1007,3 hPa 0,0 l/m 20,1 km/h (4 Bft) W 261 0 min 0,000 mm 0,0 UV-I 117 W/m 1,2 C -6,2 C 25,7 km/h (4 Bft) 97,87 %
03.02.2019 12:42 2,7 C 3,3 C 3,3 C 90 % 1007,3 hPa 0,0 l/m 19,1 km/h (3 Bft) W 274 0 min 0,000 mm 0,0 UV-I 119 W/m 1,2 C -5,7 C 29,0 km/h (5 Bft) 100,00 %
03.02.2019 12:44 2,7 C 3,3 C 3,3 C 90 % 1007,3 hPa 0,0 l/m 21,9 km/h (4 Bft) W 268 0 min 0,000 mm 0,0 UV-I 118 W/m 1,2 C -6,9 C 32,2 km/h (5 Bft) 96,00 %
03.02.2019 12:46 2,7 C 3,3 C 3,3 C 90 % 1007,3 hPa 0,0 l/m 20,7 km/h (4 Bft) W 262 0 min 0,000 mm 0,0 UV-I 125 W/m 1,2 C -6,4 C 25,7 km/h (4 Bft) 97,87 %
03.02.2019 12:48 2,7 C 3,3 C 3,3 C 90 % 1007,3 hPa 0,0 l/m 19,2 km/h (3 Bft) W 278 0 min 0,000 mm 0,0 UV-I 128 W/m 1,2 C -5,8 C 27,4 km/h (4 Bft) 97,87 %
03.02.2019 12:50 2,7 C 3,3 C 3,9 C 90 % 1007,3 hPa 0,0 l/m 14,8 km/h (3 Bft) W-SW 240 0 min 0,000 mm 0,0 UV-I 124 W/m 1,2 C -3,6 C 24,1 km/h (4 Bft) 97,92 %
03.02.2019 12:52 2,7 C 3,3 C 3,9 C 90 % 1007,4 hPa 0,0 l/m 21,7 km/h (4 Bft) W 266 0 min 0,000 mm 0,0 UV-I 123 W/m 1,2 C -6,8 C 30,6 km/h (5 Bft) 97,37 %
03.02.2019 12:54 2,7 C 3,3 C 3,3 C 90 % 1007,5 hPa 0,0 l/m 17,3 km/h (3 Bft) W 279 0 min 0,000 mm 0,0 UV-I 128 W/m 1,2 C -4,9 C 25,7 km/h (4 Bft) 97,87 %
03.02.2019 12:56 2,7 C 3,3 C 3,3 C 90 % 1007,5 hPa 0,0 l/m 20,2 km/h (4 Bft) W 261 0 min 0,000 mm 0,0 UV-I 119 W/m 1,2 C -6,2 C 30,6 km/h (5 Bft) 96,00 %
03.02.2019 12:58 2,7 C 3,3 C 3,3 C 90 % 1007,7 hPa 0,0 l/m 17,1 km/h (3 Bft) W 261 0 min 0,000 mm 0,0 UV-I 101 W/m 1,2 C -4,8 C 29,0 km/h (5 Bft) 98,00 %
03.02.2019 13:00 2,7 C 3,3 C 3,3 C 90 % 1007,7 hPa 0,0 l/m 17,3 km/h (3 Bft) W 263 0 min 0,000 mm 0,0 UV-I 96 W/m 1,2 C -4,9 C 29,0 km/h (5 Bft) 93,62 %
03.02.2019 13:02 2,7 C 3,3 C 3,3 C 90 % 1007,8 hPa 0,0 l/m 22,5 km/h (4 Bft) W 271 0 min 0,051 mm 0,0 UV-I 108 W/m 1,2 C -7,2 C 29,0 km/h (5 Bft) 96,00 %
03.02.2019 13:04 2,7 C 3,3 C 3,3 C 90 % 1007,8 hPa 0,0 l/m 12,9 km/h (3 Bft) W-NW 284 0 min 0,000 mm 0,0 UV-I 116 W/m 1,2 C -2,5 C 20,9 km/h (4 Bft) 93,62 %
03.02.2019 13:06 2,8 C 3,3 C 3,9 C 90 % 1007,8 hPa 0,0 l/m 17,0 km/h (3 Bft) W 274 0 min 0,000 mm 0,0 UV-I 123 W/m 1,3 C -4,6 C 25,7 km/h (4 Bft) 95,74 %
03.02.2019 13:08 2,8 C 3,3 C 3,9 C 90 % 1007,8 hPa 0,0 l/m 18,5 km/h (3 Bft) W-SW 249 0 min 0,000 mm 0,3 UV-I 185 W/m 1,3 C -5,4 C 25,7 km/h (4 Bft) 91,49 %
03.02.2019 13:10 2,8 C 3,3 C 4,4 C 90 % 1007,8 hPa 0,0 l/m 18,2 km/h (3 Bft) W-SW 249 0 min 0,000 mm 0,3 UV-I 191 W/m 1,3 C -5,2 C 29,0 km/h (5 Bft) 91,43 %
03.02.2019 13:12 2,9 C 3,3 C 4,4 C 90 % 1007,9 hPa 0,0 l/m 19,1 km/h (3 Bft) S-SW 206 0 min 0,000 mm 0,0 UV-I 153 W/m 1,4 C -5,5 C 30,6 km/h (5 Bft) 92,00 %
03.02.2019 13:15 2,9 C 3,3 C 4,4 C 90 % 1008,1 hPa 0,0 l/m 17,7 km/h (3 Bft) W-SW 247 0 min 0,000 mm 0,0 UV-I 165 W/m 1,4 C -4,8 C 32,2 km/h (5 Bft) 94,74 %
03.02.2019 13:16 2,9 C 3,3 C 4,4 C 89 % 1008,1 hPa 0,0 l/m 17,9 km/h (3 Bft) W 275 0 min 0,000 mm 0,0 UV-I 168 W/m 1,3 C -4,9 C 27,4 km/h (4 Bft) 93,88 %
03.02.2019 13:18 3,0 C 3,3 C 4,4 C 89 % 1008,3 hPa 0,0 l/m 14,4 km/h (3 Bft) SW 230 0 min 0,000 mm 0,0 UV-I 140 W/m 1,4 C -3,0 C 25,7 km/h (4 Bft) 91,49 %
03.02.2019 13:20 3,0 C 3,3 C 3,9 C 89 % 1008,3 hPa 0,0 l/m 17,3 km/h (3 Bft) SW 234 0 min 0,000 mm 0,0 UV-I 113 W/m 1,4 C -4,5 C 29,0 km/h (5 Bft) 95,74 %
03.02.2019 13:22 3,0 C 3,3 C 3,9 C 89 % 1008,5 hPa 0,0 l/m 16,0 km/h (3 Bft) W 259 0 min 0,000 mm 0,0 UV-I 96 W/m 1,4 C -3,9 C 22,5 km/h (4 Bft) 93,62 %
03.02.2019 13:24 2,9 C 3,3 C 3,3 C 89 % 1008,6 hPa 0,0 l/m 17,7 km/h (3 Bft) W 267 0 min 0,000 mm 0,0 UV-I 72 W/m 1,3 C -4,8 C 24,1 km/h (4 Bft) 97,87 %
03.02.2019 13:26 2,9 C 3,3 C 3,3 C 89 % 1008,6 hPa 0,0 l/m 17,9 km/h (3 Bft) SW 236 0 min 0,000 mm 0,0 UV-I 72 W/m 1,3 C -4,9 C 27,4 km/h (4 Bft) 100,00 %
03.02.2019 13:28 2,9 C 3,3 C 3,3 C 89 % 1008,7 hPa 0,0 l/m 19,4 km/h (3 Bft) W-SW 239 0 min 0,000 mm 0,0 UV-I 75 W/m 1,3 C -5,6 C 32,2 km/h (5 Bft) 96,77 %
03.02.2019 13:30 2,9 C 3,3 C 3,3 C 88 % 1008,7 hPa 0,0 l/m 19,2 km/h (3 Bft) SW 234 0 min 0,000 mm 0,0 UV-I 92 W/m 1,1 C -5,5 C 29,0 km/h (5 Bft) 100,00 %
03.02.2019 13:32 2,9 C 3,3 C 3,3 C 88 % 1008,7 hPa 0,0 l/m 21,1 km/h (4 Bft) SW 235 0 min 0,000 mm 0,0 UV-I 114 W/m 1,1 C -6,3 C 32,2 km/h (5 Bft) 95,74 %
03.02.2019 13:34 2,9 C 3,3 C 3,3 C 88 % 1008,7 hPa 0,0 l/m 16,6 km/h (3 Bft) W-SW 242 0 min 0,000 mm 0,0 UV-I 106 W/m 1,1 C -4,3 C 22,5 km/h (4 Bft) 100,00 %
03.02.2019 13:36 2,9 C 3,3 C 3,3 C 88 % 1008,8 hPa 0,0 l/m 18,2 km/h (3 Bft) W-SW 237 0 min 0,000 mm 0,0 UV-I 72 W/m 1,1 C -5,1 C 29,0 km/h (5 Bft) 95,74 %
03.02.2019 13:38 2,8 C 3,3 C 2,8 C 88 % 1008,8 hPa 0,0 l/m 15,4 km/h (3 Bft) W 265 0 min 0,000 mm 0,0 UV-I 45 W/m 1,0 C -3,8 C 24,1 km/h (4 Bft) 97,87 %
03.02.2019 13:40 2,8 C 3,3 C 2,8 C 88 % 1008,9 hPa 0,0 l/m 15,3 km/h (3 Bft) W 272 0 min 0,000 mm 0,0 UV-I 42 W/m 1,0 C -3,8 C 22,5 km/h (4 Bft) 97,87 %
03.02.2019 13:42 2,8 C 3,3 C 2,8 C 89 % 1008,9 hPa 0,0 l/m 14,4 km/h (3 Bft) W-SW 246 0 min 0,000 mm 0,0 UV-I 39 W/m 1,2 C -3,3 C 25,7 km/h (4 Bft) 100,00 %
03.02.2019 13:44 2,7 C 3,3 C 2,8 C 88 % 1008,9 hPa 0,0 l/m 19,7 km/h (3 Bft) W-SW 248 0 min 0,000 mm 0,0 UV-I 38 W/m 0,9 C -6,0 C 25,7 km/h (4 Bft) 95,74 %
03.02.2019 13:46 2,7 C 3,3 C 2,8 C 88 % 1009,0 hPa 0,0 l/m 14,8 km/h (3 Bft) W-SW 249 0 min 0,000 mm 0,0 UV-I 47 W/m 0,9 C -3,6 C 20,9 km/h (4 Bft) 98,00 %
03.02.2019 13:48 2,7 C 3,3 C 2,8 C 89 % 1009,0 hPa 0,0 l/m 18,7 km/h (3 Bft) W-SW 246 0 min 0,000 mm 0,0 UV-I 67 W/m 1,1 C -5,6 C 25,7 km/h (4 Bft) 100,00 %
03.02.2019 13:50 2,6 C 3,3 C 2,8 C 89 % 1009,0 hPa 0,0 l/m 15,6 km/h (3 Bft) SW 235 0 min 0,000 mm 0,0 UV-I 75 W/m 1,0 C -4,2 C 24,1 km/h (4 Bft) 100,00 %
03.02.2019 13:52 2,7 C 3,3 C 2,8 C 89 % 1009,0 hPa 0,0 l/m 18,0 km/h (3 Bft) W-SW 243 0 min 0,000 mm 0,0 UV-I 88 W/m 1,1 C -5,2 C 25,7 km/h (4 Bft) 100,00 %
03.02.2019 13:54 2,6 C 3,3 C 3,3 C 89 % 1009,0 hPa 0,0 l/m 17,1 km/h (3 Bft) W 273 0 min 0,000 mm 0,0 UV-I 92 W/m 1,0 C -4,9 C 24,1 km/h (4 Bft) 100,00 %
03.02.2019 13:56 2,7 C 3,3 C 3,3 C 89 % 1009,1 hPa 0,0 l/m 17,1 km/h (3 Bft) W-SW 251 0 min 0,000 mm 0,0 UV-I 107 W/m 1,1 C -4,8 C 25,7 km/h (4 Bft) 97,87 %
03.02.2019 13:58 2,7 C 3,3 C 3,3 C 89 % 1009,2 hPa 0,0 l/m 16,7 km/h (3 Bft) W 261 0 min 0,000 mm 0,0 UV-I 91 W/m 1,1 C -4,6 C 22,5 km/h (4 Bft) 97,87 %
03.02.2019 14:00 2,7 C 3,3 C 3,3 C 89 % 1009,3 hPa 0,0 l/m 20,3 km/h (4 Bft) W-SW 256 0 min 0,000 mm 0,0 UV-I 107 W/m 1,1 C -6,3 C 37,0 km/h (5 Bft) 100,00 %
03.02.2019 14:02 2,7 C 3,3 C 3,3 C 88 % 1009,3 hPa 0,0 l/m 18,7 km/h (3 Bft) W-SW 252 0 min 0,051 mm 0,0 UV-I 107 W/m 0,9 C -5,6 C 29,0 km/h (5 Bft) 100,00 %
03.02.2019 14:04 2,7 C 3,3 C 3,3 C 88 % 1009,3 hPa 0,0 l/m 17,6 km/h (3 Bft) W 259 0 min 0,000 mm 0,0 UV-I 77 W/m 0,9 C -5,1 C 30,6 km/h (5 Bft) 98,00 %
03.02.2019 14:06 2,7 C 3,3 C 2,8 C 87 % 1009,3 hPa 0,0 l/m 21,7 km/h (4 Bft) W 263 0 min 0,000 mm 0,0 UV-I 78 W/m 0,8 C -6,8 C 33,8 km/h (5 Bft) 100,00 %
03.02.2019 14:08 2,6 C 3,3 C 2,8 C 87 % 1009,3 hPa 0,0 l/m 23,3 km/h (4 Bft) W 271 0 min 0,000 mm 0,0 UV-I 88 W/m 0,7 C -7,6 C 35,4 km/h (5 Bft) 100,00 %
03.02.2019 14:10 2,6 C 3,3 C 2,8 C 86 % 1009,3 hPa 0,0 l/m 20,4 km/h (4 Bft) W 265 0 min 0,000 mm 0,0 UV-I 94 W/m 0,5 C -6,4 C 30,6 km/h (5 Bft) 97,87 %
03.02.2019 14:12 2,6 C 3,3 C 2,8 C 86 % 1009,3 hPa 0,0 l/m 21,4 km/h (4 Bft) W-NW 283 0 min 0,000 mm 0,0 UV-I 86 W/m 0,5 C -6,9 C 30,6 km/h (5 Bft) 95,74 %
03.02.2019 14:14 2,6 C 3,3 C 2,8 C 86 % 1009,3 hPa 0,0 l/m 21,3 km/h (4 Bft) W-NW 288 0 min 0,000 mm 0,0 UV-I 61 W/m 0,5 C -6,8 C 32,2 km/h (5 Bft) 100,00 %
03.02.2019 14:16 2,5 C 3,3 C 2,8 C 86 % 1009,4 hPa 0,0 l/m 23,4 km/h (4 Bft) W 264 0 min 0,000 mm 0,0 UV-I 58 W/m 0,4 C -7,8 C 30,6 km/h (5 Bft) 100,00 %
03.02.2019 14:18 2,5 C 3,3 C 2,2 C 86 % 1009,4 hPa 0,0 l/m 17,4 km/h (3 Bft) W-NW 282 0 min 0,000 mm 0,0 UV-I 47 W/m 0,4 C -5,2 C 29,0 km/h (5 Bft) 100,00 %
03.02.2019 14:20 2,4 C 3,3 C 2,2 C 86 % 1009,5 hPa 0,0 l/m 17,5 km/h (3 Bft) W 261 0 min 0,000 mm 0,0 UV-I 40 W/m 0,3 C -5,4 C 27,4 km/h (4 Bft) 100,00 %
03.02.2019 14:22 2,4 C 3,3 C 2,2 C 86 % 1009,4 hPa 0,0 l/m 11,6 km/h (2 Bft) W-NW 295 0 min 0,000 mm 0,0 UV-I 44 W/m 0,3 C -2,0 C 20,9 km/h (4 Bft) 100,00 %
03.02.2019 14:24 2,4 C 3,3 C 2,2 C 87 % 1009,4 hPa 0,0 l/m 8,8 km/h (2 Bft) W-NW 298 0 min 0,000 mm 0,0 UV-I 49 W/m 0,5 C 0,2 C 17,7 km/h (3 Bft) 98,00 %
03.02.2019 14:26 2,3 C 3,3 C 2,8 C 88 % 1009,4 hPa 0,0 l/m 6,9 km/h (2 Bft) W 265 0 min 0,000 mm 0,0 UV-I 53 W/m 0,5 C 1,8 C 14,5 km/h (3 Bft) 97,87 %
03.02.2019 14:28 2,3 C 3,3 C 2,8 C 88 % 1009,5 hPa 0,0 l/m 12,2 km/h (2 Bft) W-NW 296 0 min 0,000 mm 0,0 UV-I 65 W/m 0,5 C -2,5 C 19,3 km/h (3 Bft) 93,62 %
03.02.2019 14:30 2,3 C 3,3 C 2,8 C 88 % 1009,5 hPa 0,0 l/m 10,9 km/h (2 Bft) W 275 0 min 0,000 mm 0,0 UV-I 90 W/m 0,5 C -1,6 C 14,5 km/h (3 Bft) 95,74 %
03.02.2019 14:32 2,3 C 3,3 C 2,8 C 88 % 1009,5 hPa 0,0 l/m 14,5 km/h (3 Bft) W-SW 242 0 min 0,000 mm 0,0 UV-I 94 W/m 0,5 C -3,9 C 29,0 km/h (5 Bft) 94,00 %
03.02.2019 14:34 2,2 C 3,3 C 2,8 C 88 % 1009,5 hPa 0,0 l/m 18,2 km/h (3 Bft) W 275 0 min 0,000 mm 0,0 UV-I 131 W/m 0,4 C -6,0 C 27,4 km/h (4 Bft) 93,62 %
03.02.2019 14:36 2,2 C 3,3 C 3,3 C 88 % 1009,4 hPa 0,0 l/m 14,4 km/h (3 Bft) W 280 0 min 0,000 mm 0,0 UV-I 123 W/m 0,4 C -4,0 C 22,5 km/h (4 Bft) 93,62 %
03.02.2019 14:38 2,3 C 3,3 C 3,3 C 88 % 1009,5 hPa 0,0 l/m 14,2 km/h (3 Bft) W 272 0 min 0,000 mm 0,0 UV-I 101 W/m 0,5 C -3,7 C 20,9 km/h (4 Bft) 93,62 %
03.02.2019 14:40 2,3 C 3,3 C 3,3 C 88 % 1009,5 hPa 0,0 l/m 13,5 km/h (3 Bft) W 262 0 min 0,000 mm 0,0 UV-I 90 W/m 0,5 C -3,3 C 17,7 km/h (3 Bft) 94,00 %
03.02.2019 14:42 2,3 C 3,3 C 2,8 C 88 % 1009,6 hPa 0,0 l/m 12,1 km/h (2 Bft) W 265 0 min 0,000 mm 0,0 UV-I 83 W/m 0,5 C -2,4 C 20,9 km/h (4 Bft) 95,83 %
03.02.2019 14:44 2,3 C 3,3 C 2,8 C 88 % 1009,6 hPa 0,0 l/m 14,4 km/h (3 Bft) W 259 0 min 0,000 mm 0,0 UV-I 88 W/m 0,5 C -3,9 C 19,3 km/h (3 Bft) 95,74 %
03.02.2019 14:46 2,3 C 3,3 C 2,8 C 88 % 1009,7 hPa 0,0 l/m 13,1 km/h (3 Bft) W 276 0 min 0,000 mm 0,0 UV-I 94 W/m 0,5 C -3,1 C 25,7 km/h (4 Bft) 97,14 %
03.02.2019 14:48 2,3 C 3,3 C 2,8 C 88 % 1009,7 hPa 0,0 l/m 12,9 km/h (3 Bft) SW 229 0 min 0,000 mm 0,0 UV-I 67 W/m 0,5 C -2,9 C 25,7 km/h (4 Bft) 98,00 %
03.02.2019 14:50 2,3 C 3,3 C 2,8 C 88 % 1009,8 hPa 0,0 l/m 11,1 km/h (2 Bft) W 261 0 min 0,000 mm 0,0 UV-I 57 W/m 0,5 C -1,7 C 16,1 km/h (3 Bft) 95,74 %
03.02.2019 14:52 2,3 C 3,3 C 2,8 C 88 % 1009,9 hPa 0,0 l/m 15,5 km/h (3 Bft) W 278 0 min 0,000 mm 0,0 UV-I 48 W/m 0,5 C -4,5 C 22,5 km/h (4 Bft) 93,62 %
03.02.2019 14:54 2,2 C 3,3 C 2,2 C 88 % 1009,9 hPa 0,0 l/m 14,5 km/h (3 Bft) W-NW 284 0 min 0,000 mm 0,0 UV-I 38 W/m 0,4 C -4,0 C 32,2 km/h (5 Bft) 93,62 %
03.02.2019 14:56 2,2 C 3,3 C 2,2 C 88 % 1010,0 hPa 0,0 l/m 14,8 km/h (3 Bft) W-NW 300 0 min 0,000 mm 0,0 UV-I 33 W/m 0,4 C -4,2 C 22,5 km/h (4 Bft) 95,74 %
03.02.2019 14:58 2,1 C 3,3 C 2,2 C 88 % 1010,1 hPa 0,0 l/m 13,7 km/h (3 Bft) NW 304 0 min 0,000 mm 0,0 UV-I 40 W/m 0,3 C -3,7 C 22,5 km/h (4 Bft) 94,00 %
03.02.2019 15:00 2,0 C 3,3 C 2,2 C 88 % 1010,1 hPa 0,0 l/m 16,2 km/h (3 Bft) W-NW 288 0 min 0,051 mm 0,0 UV-I 48 W/m 0,2 C -5,2 C 32,2 km/h (5 Bft) 89,36 %
03.02.2019 15:02 1,9 C 3,3 C 2,2 C 88 % 1010,3 hPa 0,0 l/m 15,5 km/h (3 Bft) W 274 0 min 0,000 mm 0,0 UV-I 59 W/m 0,1 C -5,0 C 25,7 km/h (4 Bft) 92,00 %
03.02.2019 15:04 1,9 C 3,3 C 2,2 C 88 % 1010,3 hPa 0,0 l/m 13,2 km/h (3 Bft) W-SW 252 0 min 0,000 mm 0,0 UV-I 71 W/m 0,1 C -3,6 C 22,5 km/h (4 Bft) 95,74 %
03.02.2019 15:06 1,9 C 3,3 C 2,2 C 88 % 1010,4 hPa 0,0 l/m 9,3 km/h (2 Bft) W-NW 296 0 min 0,000 mm 0,0 UV-I 63 W/m 0,1 C -0,8 C 14,5 km/h (3 Bft) 95,74 %
03.02.2019 15:08 1,9 C 3,3 C 2,2 C 88 % 1010,4 hPa 0,0 l/m 8,9 km/h (2 Bft) NW 304 0 min 0,000 mm 0,0 UV-I 56 W/m 0,1 C -0,5 C 14,5 km/h (3 Bft) 95,74 %
03.02.2019 15:10 1,8 C 3,3 C 2,2 C 88 % 1010,5 hPa 0,0 l/m 15,8 km/h (3 Bft) W 270 0 min 0,000 mm 0,0 UV-I 46 W/m 0,0 C -5,2 C 25,7 km/h (4 Bft) 93,62 %
03.02.2019 15:12 1,8 C 3,3 C 2,2 C 88 % 1010,5 hPa 0,0 l/m 17,2 km/h (3 Bft) W-SW 246 0 min 0,000 mm 0,0 UV-I 35 W/m 0,0 C -6,0 C 22,5 km/h (4 Bft) 95,74 %
03.02.2019 15:14 1,8 C 3,3 C 1,7 C 88 % 1010,6 hPa 0,0 l/m 10,4 km/h (2 Bft) W 267 0 min 0,000 mm 0,0 UV-I 32 W/m 0,0 C -1,8 C 19,3 km/h (3 Bft) 94,87 %
03.02.2019 15:16 1,8 C 3,3 C 1,7 C 88 % 1010,6 hPa 0,0 l/m 12,8 km/h (3 Bft) W 271 0 min 0,000 mm 0,0 UV-I 27 W/m 0,0 C -3,5 C 22,5 km/h (4 Bft) 95,74 %
03.02.2019 15:18 1,8 C 3,3 C 1,7 C 88 % 1010,7 hPa 0,0 l/m 12,6 km/h (3 Bft) W 263 0 min 0,000 mm 0,0 UV-I 27 W/m 0,0 C -3,3 C 20,9 km/h (4 Bft) 94,00 %
03.02.2019 15:20 1,8 C 3,3 C 1,7 C 88 % 1010,7 hPa 0,0 l/m 5,7 km/h (1 Bft) W-NW 286 0 min 0,000 mm 0,0 UV-I 31 W/m 0,0 C 1,8 C 9,7 km/h (2 Bft) 93,62 %
03.02.2019 15:22 1,8 C 3,3 C 1,7 C 88 % 1010,7 hPa 0,0 l/m 13,7 km/h (3 Bft) W 272 0 min 0,000 mm 0,0 UV-I 32 W/m 0,0 C -4,0 C 27,4 km/h (4 Bft) 95,74 %
03.02.2019 15:24 1,8 C 3,3 C 1,7 C 88 % 1010,7 hPa 0,0 l/m 11,1 km/h (2 Bft) W 269 0 min 0,000 mm 0,0 UV-I 33 W/m 0,0 C -2,3 C 19,3 km/h (3 Bft) 95,74 %
03.02.2019 15:26 1,8 C 3,3 C 1,7 C 88 % 1010,7 hPa 0,0 l/m 13,0 km/h (3 Bft) W-SW 252 0 min 0,000 mm 0,0 UV-I 38 W/m 0,0 C -3,6 C 20,9 km/h (4 Bft) 97,87 %
03.02.2019 15:28 1,8 C 3,3 C 1,7 C 88 % 1010,7 hPa 0,0 l/m 14,8 km/h (3 Bft) W 275 0 min 0,000 mm 0,0 UV-I 47 W/m 0,0 C -4,7 C 22,5 km/h (4 Bft) 95,74 %
03.02.2019 15:30 1,8 C 3,3 C 2,2 C 88 % 1010,7 hPa 0,0 l/m 8,4 km/h (2 Bft) W-NW 287 0 min 0,000 mm 0,0 UV-I 60 W/m 0,0 C -0,1 C 16,1 km/h (3 Bft) 97,83 %
03.02.2019 15:32 1,8 C 3,3 C 2,2 C 88 % 1010,8 hPa 0,0 l/m 7,6 km/h (2 Bft) W-NW 288 0 min 0,000 mm 0,0 UV-I 53 W/m 0,0 C 0,6 C 14,5 km/h (3 Bft) 97,87 %
03.02.2019 15:34 1,9 C 3,3 C 2,2 C 88 % 1010,8 hPa 0,0 l/m 8,8 km/h (2 Bft) W-SW 252 0 min 0,000 mm 0,0 UV-I 43 W/m 0,1 C -0,4 C 14,5 km/h (3 Bft) 97,87 %
03.02.2019 15:36 1,9 C 3,3 C 2,2 C 88 % 1010,9 hPa 0,0 l/m 8,6 km/h (2 Bft) W-SW 248 0 min 0,000 mm 0,0 UV-I 40 W/m 0,1 C -0,2 C 14,5 km/h (3 Bft) 94,00 %
03.02.2019 15:38 1,8 C 3,3 C 2,2 C 88 % 1011,0 hPa 0,0 l/m 10,2 km/h (2 Bft) W 260 0 min 0,000 mm 0,0 UV-I 36 W/m 0,0 C -1,6 C 17,7 km/h (3 Bft) 94,29 %
03.02.2019 15:40 1,8 C 3,3 C 1,7 C 88 % 1011,0 hPa 0,0 l/m 15,4 km/h (3 Bft) W 272 0 min 0,000 mm 0,0 UV-I 36 W/m 0,0 C -5,0 C 19,3 km/h (3 Bft) 98,00 %
03.02.2019 15:42 1,8 C 3,3 C 1,7 C 88 % 1011,1 hPa 0,0 l/m 11,6 km/h (2 Bft) W 263 0 min 0,000 mm 0,0 UV-I 40 W/m 0,0 C -2,7 C 14,5 km/h (3 Bft) 97,87 %
03.02.2019 15:44 1,8 C 3,3 C 1,7 C 88 % 1011,1 hPa 0,0 l/m 13,3 km/h (3 Bft) W-NW 288 0 min 0,000 mm 0,0 UV-I 35 W/m 0,0 C -3,8 C 19,3 km/h (3 Bft) 97,87 %
03.02.2019 15:46 1,8 C 3,3 C 1,7 C 88 % 1011,2 hPa 0,0 l/m 11,1 km/h (2 Bft) W 274 0 min 0,000 mm 0,0 UV-I 28 W/m 0,0 C -2,3 C 17,7 km/h (3 Bft) 97,87 %
03.02.2019 15:48 1,8 C 3,3 C 1,7 C 88 % 1011,2 hPa 0,0 l/m 11,7 km/h (2 Bft) W 275 0 min 0,000 mm 0,0 UV-I 25 W/m 0,0 C -2,7 C 22,5 km/h (4 Bft) 96,00 %
03.02.2019 15:50 1,8 C 3,3 C 1,7 C 88 % 1011,3 hPa 0,0 l/m 13,0 km/h (3 Bft) W-NW 288 0 min 0,000 mm 0,0 UV-I 18 W/m 0,0 C -3,6 C 20,9 km/h (4 Bft) 98,00 %
03.02.2019 15:52 1,7 C 3,3 C 1,7 C 87 % 1011,3 hPa 0,0 l/m 11,5 km/h (2 Bft) W 267 0 min 0,000 mm 0,0 UV-I 17 W/m -0,2 C -2,7 C 19,3 km/h (3 Bft) 95,74 %
03.02.2019 15:54 1,7 C 3,3 C 1,7 C 87 % 1011,4 hPa 0,0 l/m 13,3 km/h (3 Bft) W 260 0 min 0,000 mm 0,0 UV-I 16 W/m -0,2 C -3,9 C 19,3 km/h (3 Bft) 97,87 %
03.02.2019 15:56 1,7 C 3,3 C 1,1 C 87 % 1011,4 hPa 0,0 l/m 9,6 km/h (2 Bft) W-SW 252 0 min 0,000 mm 0,0 UV-I 18 W/m -0,2 C -1,3 C 16,1 km/h (3 Bft) 97,44 %
03.02.2019 15:58 1,7 C 3,3 C 1,1 C 88 % 1011,4 hPa 0,0 l/m 9,3 km/h (2 Bft) W 259 0 min 0,000 mm 0,0 UV-I 19 W/m -0,1 C -1,0 C 14,5 km/h (3 Bft) 95,74 %
03.02.2019 16:00 1,7 C 3,3 C 1,1 C 88 % 1011,4 hPa 0,0 l/m 11,3 km/h (2 Bft) W 265 0 min 0,025 mm 0,0 UV-I 23 W/m -0,1 C -2,6 C 17,7 km/h (3 Bft) 97,87 %
03.02.2019 16:02 1,6 C 3,3 C 1,1 C 88 % 1011,5 hPa 0,0 l/m 11,4 km/h (2 Bft) W-SW 250 0 min 0,000 mm 0,0 UV-I 28 W/m -0,2 C -2,7 C 17,7 km/h (3 Bft) 97,87 %
03.02.2019 16:04 1,6 C 3,3 C 1,7 C 88 % 1011,6 hPa 0,0 l/m 9,6 km/h (2 Bft) W-SW 250 0 min 0,000 mm 0,0 UV-I 34 W/m -0,2 C -1,4 C 12,9 km/h (3 Bft) 100,00 %
03.02.2019 16:06 1,6 C 3,3 C 1,7 C 88 % 1011,7 hPa 0,0 l/m 9,4 km/h (2 Bft) W-NW 286 0 min 0,000 mm 0,0 UV-I 30 W/m -0,2 C -1,2 C 17,7 km/h (3 Bft) 100,00 %
03.02.2019 16:08 1,6 C 3,3 C 1,7 C 88 % 1011,7 hPa 0,0 l/m 8,7 km/h (2 Bft) W 277 0 min 0,000 mm 0,0 UV-I 34 W/m -0,2 C -0,6 C 11,3 km/h (2 Bft) 97,87 %
03.02.2019 16:10 1,6 C 3,3 C 1,7 C 88 % 1011,8 hPa 0,0 l/m 11,8 km/h (2 Bft) W 270 0 min 0,000 mm 0,0 UV-I 42 W/m -0,2 C -3,0 C 19,3 km/h (3 Bft) 100,00 %
03.02.2019 16:12 1,7 C 3,3 C 1,7 C 88 % 1011,8 hPa 0,0 l/m 11,0 km/h (2 Bft) W-SW 237 0 min 0,000 mm 0,0 UV-I 40 W/m -0,1 C -2,3 C 16,1 km/h (3 Bft) 100,00 %
03.02.2019 16:14 1,6 C 3,3 C 1,7 C 88 % 1012,0 hPa 0,0 l/m 9,8 km/h (2 Bft) W 265 0 min 0,000 mm 0,0 UV-I 41 W/m -0,2 C -1,5 C 16,1 km/h (3 Bft) 98,00 %
03.02.2019 16:16 1,7 C 3,3 C 1,7 C 88 % 1012,0 hPa 0,0 l/m 7,5 km/h (2 Bft) W-NW 297 0 min 0,000 mm 0,0 UV-I 42 W/m -0,1 C 0,6 C 12,9 km/h (3 Bft) 97,87 %
03.02.2019 16:18 1,7 C 3,3 C 1,7 C 88 % 1012,1 hPa 0,0 l/m 9,9 km/h (2 Bft) W 262 0 min 0,000 mm 0,0 UV-I 43 W/m -0,1 C -1,5 C 19,3 km/h (3 Bft) 100,00 %
03.02.2019 16:20 1,7 C 3,3 C 1,7 C 88 % 1012,2 hPa 0,0 l/m 13,3 km/h (3 Bft) W 274 0 min 0,000 mm 0,0 UV-I 34 W/m -0,1 C -3,9 C 19,3 km/h (3 Bft) 97,87 %
03.02.2019 16:22 1,6 C 3,3 C 1,7 C 88 % 1012,2 hPa 0,0 l/m 14,3 km/h (3 Bft) W-SW 253 0 min 0,000 mm 0,0 UV-I 28 W/m -0,2 C -4,6 C 22,5 km/h (4 Bft) 100,00 %
03.02.2019 16:24 1,6 C 3,3 C 1,7 C 87 % 1012,2 hPa 0,0 l/m 14,6 km/h (3 Bft) NW 306 0 min 0,000 mm 0,0 UV-I 23 W/m -0,3 C -4,8 C 24,1 km/h (4 Bft) 95,74 %
03.02.2019 16:26 1,6 C 3,3 C 1,1 C 87 % 1012,3 hPa 0,0 l/m 18,1 km/h (3 Bft) W 268 0 min 0,000 mm 0,0 UV-I 22 W/m -0,3 C -6,7 C 30,6 km/h (5 Bft) 96,00 %
03.02.2019 16:28 1,6 C 3,3 C 1,1 C 87 % 1012,3 hPa 0,0 l/m 18,4 km/h (3 Bft) W-SW 250 0 min 0,000 mm 0,0 UV-I 19 W/m -0,3 C -6,8 C 30,6 km/h (5 Bft) 100,00 %
03.02.2019 16:30 1,6 C 3,3 C 1,1 C 87 % 1012,3 hPa 0,0 l/m 16,2 km/h (3 Bft) W-NW 286 0 min 0,000 mm 0,0 UV-I 15 W/m -0,3 C -5,7 C 24,1 km/h (4 Bft) 100,00 %
03.02.2019 16:32 1,6 C 3,3 C 1,1 C 87 % 1012,3 hPa 0,0 l/m 17,4 km/h (3 Bft) W 273 0 min 0,000 mm 0,0 UV-I 12 W/m -0,3 C -6,3 C 27,4 km/h (4 Bft) 98,00 %
03.02.2019 16:34 1,5 C 3,3 C 1,1 C 87 % 1012,3 hPa 0,0 l/m 18,4 km/h (3 Bft) W-SW 244 0 min 0,000 mm 0,0 UV-I 11 W/m -0,4 C -7,0 C 29,0 km/h (5 Bft) 100,00 %
03.02.2019 16:36 1,5 C 3,3 C 1,1 C 87 % 1012,4 hPa 0,0 l/m 16,3 km/h (3 Bft) W-SW 257 0 min 0,000 mm 0,0 UV-I 9 W/m -0,4 C -5,9 C 25,7 km/h (4 Bft) 100,00 %
03.02.2019 16:38 1,4 C 3,3 C 1,1 C 87 % 1012,4 hPa 0,0 l/m 20,0 km/h (4 Bft) W 261 0 min 0,000 mm 0,0 UV-I 7 W/m -0,5 C -7,8 C 29,0 km/h (5 Bft) 100,00 %
03.02.2019 16:40 1,4 C 3,3 C 1,1 C 87 % 1012,5 hPa 0,0 l/m 14,5 km/h (3 Bft) W 273 0 min 0,000 mm 0,0 UV-I 7 W/m -0,5 C -5,0 C 22,5 km/h (4 Bft) 97,87 %
03.02.2019 16:42 1,4 C 3,3 C 1,1 C 87 % 1012,5 hPa 0,0 l/m 16,1 km/h (3 Bft) W 279 0 min 0,000 mm 0,0 UV-I 5 W/m -0,5 C -5,9 C 27,4 km/h (4 Bft) 97,87 %
03.02.2019 16:44 1,4 C 3,3 C 1,1 C 87 % 1012,6 hPa 0,0 l/m 17,9 km/h (3 Bft) W 268 0 min 0,000 mm 0,0 UV-I 5 W/m -0,5 C -6,8 C 24,1 km/h (4 Bft) 98,00 %
03.02.2019 16:46 1,4 C 3,3 C 1,1 C 87 % 1012,6 hPa 0,0 l/m 16,0 km/h (3 Bft) W 263 0 min 0,000 mm 0,0 UV-I 5 W/m -0,5 C -5,8 C 27,4 km/h (4 Bft) 100,00 %
03.02.2019 16:48 1,4 C 3,3 C 1,1 C 87 % 1012,7 hPa 0,0 l/m 19,8 km/h (3 Bft) W-SW 257 0 min 0,000 mm 0,0 UV-I 5 W/m -0,5 C -7,7 C 29,0 km/h (5 Bft) 100,00 %
03.02.2019 16:50 1,4 C 3,3 C 1,1 C 87 % 1012,7 hPa 0,0 l/m 15,7 km/h (3 Bft) W 268 0 min 0,000 mm 0,0 UV-I 5 W/m -0,5 C -5,7 C 19,3 km/h (3 Bft) 100,00 %
03.02.2019 16:52 1,3 C 3,3 C 1,1 C 87 % 1012,7 hPa 0,0 l/m 18,6 km/h (3 Bft) W 270 0 min 0,000 mm 0,0 UV-I 5 W/m -0,6 C -7,3 C 25,7 km/h (4 Bft) 97,87 %
03.02.2019 16:54 1,3 C 3,3 C 0,6 C 87 % 1012,8 hPa 0,0 l/m 16,9 km/h (3 Bft) SW 224 0 min 0,000 mm 0,0 UV-I 5 W/m -0,6 C -6,5 C 30,6 km/h (5 Bft) 100,00 %
03.02.2019 16:56 1,3 C 3,3 C 0,6 C 87 % 1012,8 hPa 0,0 l/m 18,5 km/h (3 Bft) W 267 0 min 0,000 mm 0,0 UV-I 1 W/m -0,6 C -7,3 C 24,1 km/h (4 Bft) 97,87 %
03.02.2019 16:58 1,3 C 3,3 C 0,6 C 87 % 1012,8 hPa 0,0 l/m 14,7 km/h (3 Bft) W 273 0 min 0,000 mm 0,0 UV-I 4 W/m -0,6 C -5,2 C 29,0 km/h (5 Bft) 96,00 %
03.02.2019 17:00 1,2 C 3,3 C 0,6 C 87 % 1012,8 hPa 0,0 l/m 26,5 km/h (4 Bft) W-SW 257 0 min 0,000 mm 0,0 UV-I 3 W/m -0,7 C -10,6 C 43,5 km/h (6 Bft) 95,12 %
03.02.2019 17:02 1,2 C 3,3 C 0,6 C 87 % 1012,9 hPa 0,0 l/m 21,8 km/h (4 Bft) W-NW 287 0 min 0,026 mm 0,0 UV-I 5 W/m -0,7 C -8,9 C 32,2 km/h (5 Bft) 95,74 %
03.02.2019 17:04 1,2 C 3,3 C 0,6 C 88 % 1013,0 hPa 0,0 l/m 19,5 km/h (3 Bft) W 281 0 min 0,000 mm 0,0 UV-I 5 W/m -0,6 C -7,9 C 33,8 km/h (5 Bft) 95,74 %
03.02.2019 17:06 1,1 C 3,3 C 0,6 C 88 % 1013,1 hPa 0,0 l/m 19,8 km/h (3 Bft) W 281 0 min 0,000 mm 0,0 UV-I 5 W/m -0,7 C -8,1 C 30,6 km/h (5 Bft) 93,62 %
03.02.2019 17:08 1,1 C 3,3 C 0,6 C 88 % 1013,2 hPa 0,0 l/m 16,6 km/h (3 Bft) W-SW 246 0 min 0,000 mm 0,0 UV-I 3 W/m -0,7 C -6,5 C 24,1 km/h (4 Bft) 95,74 %
03.02.2019 17:10 1,1 C 3,3 C 0,6 C 89 % 1013,2 hPa 0,0 l/m 14,7 km/h (3 Bft) W 263 0 min 0,000 mm 0,0 UV-I 0 W/m -0,5 C -5,5 C 20,9 km/h (4 Bft) 95,83 %
03.02.2019 17:12 1,0 C 3,3 C 0,6 C 89 % 1013,2 hPa 0,0 l/m 19,8 km/h (3 Bft) W 262 0 min 0,000 mm 0,0 UV-I 0 W/m -0,6 C -8,2 C 30,6 km/h (5 Bft) 95,74 %
03.02.2019 17:14 0,9 C 3,3 C 0,6 C 89 % 1013,4 hPa 0,0 l/m 17,1 km/h (3 Bft) W-NW 289 0 min 0,000 mm 0,0 UV-I 0 W/m -0,7 C -7,1 C 27,4 km/h (4 Bft) 96,00 %
03.02.2019 17:16 0,9 C 3,3 C 0,6 C 89 % 1013,4 hPa 0,0 l/m 17,6 km/h (3 Bft) W-NW 286 0 min 0,000 mm 0,0 UV-I 0 W/m -0,7 C -7,3 C 24,1 km/h (4 Bft) 95,74 %
03.02.2019 17:18 0,9 C 3,3 C 0,6 C 90 % 1013,4 hPa 0,0 l/m 17,6 km/h (3 Bft) W 277 0 min 0,000 mm 0,0 UV-I 0 W/m -0,6 C -7,3 C 25,7 km/h (4 Bft) 96,00 %
03.02.2019 17:20 0,8 C 3,3 C 0,6 C 90 % 1013,5 hPa 0,0 l/m 18,8 km/h (3 Bft) W 279 0 min 0,000 mm 0,0 UV-I 0 W/m -0,6 C -8,0 C 30,6 km/h (5 Bft) 93,62 %
03.02.2019 17:22 0,8 C 3,3 C 0,6 C 90 % 1013,6 hPa 0,0 l/m 23,5 km/h (4 Bft) W 277 0 min 0,000 mm 0,0 UV-I 0 W/m -0,6 C -10,1 C 30,6 km/h (5 Bft) 97,87 %
03.02.2019 17:24 0,8 C 3,3 C 0,6 C 90 % 1013,7 hPa 0,0 l/m 15,5 km/h (3 Bft) W 273 0 min 0,000 mm 0,0 UV-I 0 W/m -0,6 C -6,3 C 24,1 km/h (4 Bft) 97,87 %
03.02.2019 17:26 0,8 C 3,3 C 0,6 C 90 % 1013,6 hPa 0,0 l/m 20,3 km/h (4 Bft) W 263 0 min 0,000 mm 0,0 UV-I 0 W/m -0,6 C -8,7 C 27,4 km/h (4 Bft) 97,14 %
03.02.2019 17:28 0,8 C 3,3 C 0,6 C 90 % 1013,7 hPa 0,0 l/m 17,2 km/h (3 Bft) W-NW 293 0 min 0,000 mm 0,0 UV-I 0 W/m -0,6 C -7,2 C 24,1 km/h (4 Bft) 96,15 %
03.02.2019 17:30 0,8 C 3,3 C 0,6 C 90 % 1013,7 hPa 0,0 l/m 19,4 km/h (3 Bft) W 274 0 min 0,000 mm 0,0 UV-I 0 W/m -0,6 C -8,3 C 27,4 km/h (4 Bft) 95,74 %
03.02.2019 17:32 0,8 C 3,3 C 0,0 C 91 % 1013,7 hPa 0,0 l/m 21,3 km/h (4 Bft) W-SW 251 0 min 0,000 mm 0,0 UV-I 0 W/m -0,5 C -9,2 C 29,0 km/h (5 Bft) 98,00 %
03.02.2019 17:34 0,7 C 3,3 C 0,0 C 91 % 1013,9 hPa 0,0 l/m 13,1 km/h (3 Bft) W-SW 257 0 min 0,000 mm 0,0 UV-I 0 W/m -0,6 C -4,9 C 20,9 km/h (4 Bft) 95,74 %
03.02.2019 17:36 0,7 C 3,3 C 0,0 C 91 % 1013,9 hPa 0,0 l/m 17,6 km/h (3 Bft) W-SW 239 0 min 0,000 mm 0,0 UV-I 0 W/m -0,6 C -7,6 C 27,4 km/h (4 Bft) 100,00 %
03.02.2019 17:38 0,7 C 3,3 C 0,0 C 91 % 1014,0 hPa 0,0 l/m 12,9 km/h (3 Bft) W-SW 248 0 min 0,000 mm 0,0 UV-I 0 W/m -0,6 C -4,8 C 20,9 km/h (4 Bft) 97,87 %
03.02.2019 17:40 0,7 C 3,3 C 0,0 C 91 % 1014,0 hPa 0,0 l/m 16,7 km/h (3 Bft) W-SW 248 0 min 0,000 mm 0,0 UV-I 0 W/m -0,6 C -7,1 C 22,5 km/h (4 Bft) 100,00 %
03.02.2019 17:42 0,7 C 3,3 C 0,0 C 91 % 1014,1 hPa 0,0 l/m 17,3 km/h (3 Bft) W 265 0 min 0,000 mm 0,0 UV-I 0 W/m -0,6 C -7,4 C 22,5 km/h (4 Bft) 97,87 %
03.02.2019 17:44 0,7 C 3,3 C 0,0 C 91 % 1014,0 hPa 0,0 l/m 20,3 km/h (4 Bft) W 273 0 min 0,000 mm 0,0 UV-I 0 W/m -0,6 C -8,9 C 30,6 km/h (5 Bft) 100,00 %
03.02.2019 17:46 0,7 C 3,3 C 0,0 C 91 % 1014,1 hPa 0,0 l/m 18,6 km/h (3 Bft) W-NW 284 0 min 0,000 mm 0,0 UV-I 0 W/m -0,6 C -8,1 C 37,0 km/h (5 Bft) 100,00 %
03.02.2019 17:48 0,7 C 3,3 C 0,0 C 91 % 1014,1 hPa 0,0 l/m 21,1 km/h (4 Bft) W 280 0 min 0,000 mm 0,0 UV-I 0 W/m -0,6 C -9,2 C 32,2 km/h (5 Bft) 100,00 %
03.02.2019 17:50 0,7 C 3,3 C 0,0 C 91 % 1014,2 hPa 0,0 l/m 18,9 km/h (3 Bft) W 266 0 min 0,000 mm 0,0 UV-I 0 W/m -0,6 C -8,2 C 29,0 km/h (5 Bft) 100,00 %
03.02.2019 17:52 0,7 C 3,3 C 0,0 C 91 % 1014,3 hPa 0,0 l/m 20,7 km/h (4 Bft) W-SW 257 0 min 0,000 mm 0,0 UV-I 0 W/m -0,6 C -9,0 C 29,0 km/h (5 Bft) 97,87 %
03.02.2019 17:54 0,6 C 3,3 C 0,0 C 91 % 1014,4 hPa 0,0 l/m 20,1 km/h (4 Bft) W 269 0 min 0,000 mm 0,0 UV-I 0 W/m -0,7 C -8,9 C 29,0 km/h (5 Bft) 97,87 %
03.02.2019 17:56 0,6 C 3,3 C 0,0 C 91 % 1014,4 hPa 0,0 l/m 18,8 km/h (3 Bft) W 263 0 min 0,000 mm 0,0 UV-I 0 W/m -0,7 C -8,3 C 27,4 km/h (4 Bft) 100,00 %
03.02.2019 17:58 0,6 C 3,3 C 0,0 C 91 % 1014,5 hPa 0,0 l/m 17,0 km/h (3 Bft) W-NW 282 0 min 0,000 mm 0,0 UV-I 0 W/m -0,7 C -7,4 C 25,7 km/h (4 Bft) 100,00 %
03.02.2019 18:00 0,6 C 3,3 C 0,0 C 92 % 1014,6 hPa 0,0 l/m 17,1 km/h (3 Bft) W-SW 248 0 min 0,025 mm 0,0 UV-I 0 W/m -0,5 C -7,4 C 29,0 km/h (5 Bft) 100,00 %
03.02.2019 18:02 0,6 C 3,3 C 0,0 C 91 % 1014,7 hPa 0,0 l/m 19,9 km/h (4 Bft) W 277 0 min 0,000 mm 0,0 UV-I 0 W/m -0,7 C -8,8 C 30,6 km/h (5 Bft) 100,00 %
03.02.2019 18:04 0,5 C 3,3 C 0,0 C 92 % 1014,7 hPa 0,0 l/m 19,8 km/h (3 Bft) W 265 0 min 0,000 mm 0,0 UV-I 0 W/m -0,6 C -8,9 C 29,0 km/h (5 Bft) 100,00 %
03.02.2019 18:06 0,5 C 3,3 C 0,0 C 92 % 1014,8 hPa 0,0 l/m 14,6 km/h (3 Bft) W-SW 238 0 min 0,000 mm 0,0 UV-I 0 W/m -0,6 C -6,1 C 20,9 km/h (4 Bft) 100,00 %
03.02.2019 18:08 0,5 C 3,3 C 0,0 C 92 % 1014,8 hPa 0,0 l/m 18,4 km/h (3 Bft) W 268 0 min 0,000 mm 0,0 UV-I 0 W/m -0,6 C -8,2 C 25,7 km/h (4 Bft) 100,00 %
03.02.2019 18:10 0,5 C 3,3 C 0,0 C 92 % 1014,9 hPa 0,0 l/m 17,4 km/h (3 Bft) W 272 0 min 0,000 mm 0,0 UV-I 0 W/m -0,6 C -7,7 C 22,5 km/h (4 Bft) 100,00 %
03.02.2019 18:12 0,5 C 3,3 C 0,0 C 92 % 1015,0 hPa 0,0 l/m 15,7 km/h (3 Bft) W 275 0 min 0,000 mm 0,0 UV-I 0 W/m -0,6 C -6,8 C 24,1 km/h (4 Bft) 100,00 %
03.02.2019 18:14 0,5 C 3,3 C 0,0 C 92 % 1015,0 hPa 0,0 l/m 17,3 km/h (3 Bft) W 266 0 min 0,000 mm 0,0 UV-I 0 W/m -0,6 C -7,7 C 25,7 km/h (4 Bft) 95,74 %
03.02.2019 18:16 0,4 C 3,3 C 0,0 C 92 % 1015,0 hPa 0,0 l/m 12,1 km/h (2 Bft) SW 235 0 min 0,000 mm 0,0 UV-I 0 W/m -0,7 C -4,6 C 20,9 km/h (4 Bft) 97,37 %
03.02.2019 18:18 0,4 C 3,3 C 0,0 C 92 % 1015,0 hPa 0,0 l/m 19,6 km/h (3 Bft) SW 234 0 min 0,000 mm 0,0 UV-I 0 W/m -0,7 C -8,9 C 29,0 km/h (5 Bft) 97,87 %
03.02.2019 18:20 0,4 C 3,3 C 0,0 C 92 % 1015,1 hPa 0,0 l/m 17,0 km/h (3 Bft) W 264 0 min 0,000 mm 0,0 UV-I 0 W/m -0,7 C -7,6 C 24,1 km/h (4 Bft) 97,87 %
03.02.2019 18:22 0,4 C 3,3 C 0,0 C 92 % 1015,1 hPa 0,0 l/m 17,0 km/h (3 Bft) W 277 0 min 0,000 mm 0,0 UV-I 0 W/m -0,7 C -7,6 C 27,4 km/h (4 Bft) 93,62 %
03.02.2019 18:24 0,4 C 3,3 C 0,0 C 92 % 1015,2 hPa 0,0 l/m 15,1 km/h (3 Bft) W-SW 258 0 min 0,000 mm 0,0 UV-I 0 W/m -0,7 C -6,6 C 24,1 km/h (4 Bft) 95,74 %
03.02.2019 18:26 0,4 C 3,3 C 0,0 C 93 % 1015,3 hPa 0,0 l/m 11,2 km/h (2 Bft) W 281 0 min 0,000 mm 0,0 UV-I 0 W/m -0,6 C -4,0 C 16,1 km/h (3 Bft) 98,11 %
03.02.2019 18:28 0,4 C 3,3 C 0,0 C 93 % 1015,3 hPa 0,0 l/m 15,4 km/h (3 Bft) W 270 0 min 0,000 mm 0,0 UV-I 0 W/m -0,6 C -6,7 C 20,9 km/h (4 Bft) 98,00 %
03.02.2019 18:30 0,4 C 3,3 C 0,0 C 93 % 1015,4 hPa 0,0 l/m 14,7 km/h (3 Bft) W-NW 292 0 min 0,000 mm 0,0 UV-I 0 W/m -0,6 C -6,3 C 24,1 km/h (4 Bft) 97,44 %
03.02.2019 18:32 0,4 C 3,3 C 0,0 C 93 % 1015,5 hPa 0,0 l/m 16,9 km/h (3 Bft) W-SW 242 0 min 0,000 mm 0,0 UV-I 0 W/m -0,6 C -7,6 C 29,0 km/h (5 Bft) 96,00 %
03.02.2019 18:34 0,4 C 3,3 C 0,0 C 93 % 1015,5 hPa 0,0 l/m 20,3 km/h (4 Bft) W 268 0 min 0,000 mm 0,0 UV-I 0 W/m -0,6 C -9,3 C 25,7 km/h (4 Bft) 97,87 %
03.02.2019 18:36 0,3 C 3,3 C 0,0 C 93 % 1015,6 hPa 0,0 l/m 18,9 km/h (3 Bft) W 265 0 min 0,000 mm 0,0 UV-I 0 W/m -0,7 C -8,7 C 30,6 km/h (5 Bft) 95,74 %
03.02.2019 18:38 0,3 C 3,3 C 0,0 C 93 % 1015,5 hPa 0,0 l/m 18,9 km/h (3 Bft) W-SW 256 0 min 0,000 mm 0,0 UV-I 0 W/m -0,7 C -8,7 C 25,7 km/h (4 Bft) 100,00 %
03.02.2019 18:40 0,4 C 3,3 C 0,0 C 93 % 1015,5 hPa 0,0 l/m 23,6 km/h (4 Bft) W 261 0 min 0,000 mm 0,0 UV-I 0 W/m -0,6 C -10,6 C 33,8 km/h (5 Bft) 95,74 %
03.02.2019 18:42 0,3 C 3,3 C 0,0 C 93 % 1015,6 hPa 0,0 l/m 19,2 km/h (3 Bft) W 259 0 min 0,000 mm 0,0 UV-I 0 W/m -0,7 C -8,9 C 29,0 km/h (5 Bft) 98,00 %
03.02.2019 18:44 0,4 C 3,3 C 0,0 C 92 % 1015,7 hPa 0,0 l/m 20,0 km/h (4 Bft) W 263 0 min 0,000 mm 0,0 UV-I 0 W/m -0,7 C -9,1 C 33,8 km/h (5 Bft) 96,00 %
03.02.2019 18:46 0,4 C 3,3 C 0,0 C 92 % 1015,7 hPa 0,0 l/m 23,3 km/h (4 Bft) W-SW 247 0 min 0,000 mm 0,0 UV-I 0 W/m -0,7 C -10,5 C 32,2 km/h (5 Bft) 97,56 %
03.02.2019 18:48 0,4 C 3,3 C 0,0 C 92 % 1015,7 hPa 0,0 l/m 22,9 km/h (4 Bft) W 266 0 min 0,000 mm 0,0 UV-I 0 W/m -0,7 C -10,4 C 35,4 km/h (5 Bft) 94,00 %
03.02.2019 18:50 0,4 C 3,3 C 0,0 C 92 % 1015,8 hPa 0,0 l/m 20,7 km/h (4 Bft) SW 229 0 min 0,000 mm 0,0 UV-I 0 W/m -0,7 C -9,4 C 32,2 km/h (5 Bft) 96,00 %
03.02.2019 18:52 0,4 C 3,3 C 0,0 C 92 % 1015,9 hPa 0,0 l/m 21,1 km/h (4 Bft) W 264 0 min 0,000 mm 0,0 UV-I 0 W/m -0,7 C -9,6 C 33,8 km/h (5 Bft) 96,00 %
03.02.2019 18:54 0,4 C 3,3 C 0,0 C 92 % 1015,9 hPa 0,0 l/m 20,8 km/h (4 Bft) W 264 0 min 0,000 mm 0,0 UV-I 0 W/m -0,7 C -9,5 C 27,4 km/h (4 Bft) 97,37 %
03.02.2019 18:56 0,4 C 3,3 C 0,0 C 92 % 1016,0 hPa 0,0 l/m 15,1 km/h (3 Bft) W-SW 255 0 min 0,000 mm 0,0 UV-I 0 W/m -0,7 C -6,6 C 20,9 km/h (4 Bft) 97,87 %
03.02.2019 18:58 0,4 C 3,3 C 0,0 C 92 % 1016,1 hPa 0,0 l/m 19,0 km/h (3 Bft) W 279 0 min 0,000 mm 0,0 UV-I 0 W/m -0,7 C -8,6 C 27,4 km/h (4 Bft) 97,87 %
03.02.2019 19:00 0,4 C 3,3 C 0,0 C 92 % 1016,1 hPa 0,0 l/m 16,8 km/h (3 Bft) SW 227 0 min 0,000 mm 0,0 UV-I 0 W/m -0,7 C -7,5 C 24,1 km/h (4 Bft) 95,74 %
03.02.2019 19:02 0,3 C 3,3 C 0,0 C 92 % 1016,2 hPa 0,0 l/m 19,4 km/h (3 Bft) W 263 0 min 0,000 mm 0,0 UV-I 0 W/m -0,8 C -9,0 C 25,7 km/h (4 Bft) 98,00 %
03.02.2019 19:04 0,3 C 3,3 C 0,0 C 92 % 1016,2 hPa 0,0 l/m 16,2 km/h (3 Bft) W-SW 246 0 min 0,000 mm 0,0 UV-I 0 W/m -0,8 C -7,3 C 22,5 km/h (4 Bft) 97,87 %
03.02.2019 19:06 0,3 C 3,3 C 0,0 C 92 % 1016,3 hPa 0,0 l/m 17,4 km/h (3 Bft) W-SW 256 0 min 0,000 mm 0,0 UV-I 0 W/m -0,8 C -8,0 C 22,5 km/h (4 Bft) 93,75 %
03.02.2019 19:08 0,3 C 3,3 C 0,0 C 92 % 1016,3 hPa 0,0 l/m 18,3 km/h (3 Bft) W-SW 238 0 min 0,000 mm 0,0 UV-I 0 W/m -0,8 C -8,4 C 27,4 km/h (4 Bft) 95,74 %
03.02.2019 19:10 0,3 C 3,3 C 0,0 C 92 % 1016,3 hPa 0,0 l/m 19,0 km/h (3 Bft) W-SW 242 0 min 0,000 mm 0,0 UV-I 0 W/m -0,8 C -8,8 C 30,6 km/h (5 Bft) 93,62 %
03.02.2019 19:12 0,3 C 3,3 C 0,0 C 92 % 1016,4 hPa 0,0 l/m 17,0 km/h (3 Bft) W 265 0 min 0,000 mm 0,0 UV-I 0 W/m -0,8 C -7,8 C 24,1 km/h (4 Bft) 95,74 %
03.02.2019 19:14 0,4 C 3,3 C 0,0 C 92 % 1016,4 hPa 0,0 l/m 16,4 km/h (3 Bft) W 262 0 min 0,000 mm 0,0 UV-I 0 W/m -0,7 C -7,3 C 24,1 km/h (4 Bft) 91,49 %
03.02.2019 19:16 0,4 C 3,3 C 0,0 C 92 % 1016,5 hPa 0,0 l/m 17,8 km/h (3 Bft) W 265 0 min 0,000 mm 0,0 UV-I 0 W/m -0,7 C -8,0 C 30,6 km/h (5 Bft) 92,68 %
03.02.2019 19:18 0,4 C 3,3 C 0,0 C 92 % 1016,7 hPa 0,0 l/m 19,4 km/h (3 Bft) W 272 0 min 0,000 mm 0,0 UV-I 0 W/m -0,7 C -8,8 C 27,4 km/h (4 Bft) 91,49 %
03.02.2019 19:20 0,4 C 3,3 C 0,0 C 91 % 1016,7 hPa 0,0 l/m 20,4 km/h (4 Bft) W-SW 252 0 min 0,000 mm 0,0 UV-I 0 W/m -0,9 C -9,3 C 30,6 km/h (5 Bft) 95,74 %
03.02.2019 19:22 0,4 C 3,3 C 0,0 C 91 % 1016,8 hPa 0,0 l/m 23,3 km/h (4 Bft) W-SW 258 0 min 0,000 mm 0,0 UV-I 0 W/m -0,9 C -10,5 C 37,0 km/h (5 Bft) 95,74 %
03.02.2019 19:24 0,4 C 3,3 C 0,0 C 91 % 1016,8 hPa 0,0 l/m 23,4 km/h (4 Bft) W 265 0 min 0,000 mm 0,0 UV-I 0 W/m -0,9 C -10,6 C 41,8 km/h (6 Bft) 93,62 %
03.02.2019 19:26 0,4 C 3,3 C -0,6 C 90 % 1016,9 hPa 0,0 l/m 17,8 km/h (3 Bft) W-SW 249 0 min 0,000 mm 0,0 UV-I 0 W/m -1,0 C -8,0 C 30,6 km/h (5 Bft) 92,00 %
03.02.2019 19:28 0,4 C 3,3 C -0,6 C 90 % 1016,9 hPa 0,0 l/m 15,2 km/h (3 Bft) W-NW 289 0 min 0,000 mm 0,0 UV-I 0 W/m -1,0 C -6,6 C 29,0 km/h (5 Bft) 95,74 %
03.02.2019 19:30 0,4 C 3,3 C -0,6 C 90 % 1017,0 hPa 0,0 l/m 16,8 km/h (3 Bft) W 259 0 min 0,000 mm 0,0 UV-I 0 W/m -1,0 C -7,5 C 22,5 km/h (4 Bft) 95,74 %
03.02.2019 19:32 0,3 C 3,3 C -0,6 C 90 % 1017,0 hPa 0,0 l/m 18,6 km/h (3 Bft) SW 225 0 min 0,000 mm 0,0 UV-I 0 W/m -1,1 C -8,6 C 29,0 km/h (5 Bft) 92,11 %
03.02.2019 19:34 0,3 C 3,3 C -0,6 C 90 % 1017,1 hPa 0,0 l/m 18,8 km/h (3 Bft) W 276 0 min 0,000 mm 0,0 UV-I 0 W/m -1,1 C -8,7 C 25,7 km/h (4 Bft) 92,00 %
03.02.2019 19:36 0,3 C 3,3 C -0,6 C 90 % 1017,1 hPa 0,0 l/m 13,8 km/h (3 Bft) W 269 0 min 0,000 mm 0,0 UV-I 0 W/m -1,1 C -5,9 C 22,5 km/h (4 Bft) 93,62 %
03.02.2019 19:38 0,2 C 3,3 C -0,6 C 90 % 1017,1 hPa 0,0 l/m 19,5 km/h (3 Bft) W 281 0 min 0,000 mm 0,0 UV-I 0 W/m -1,2 C -9,1 C 30,6 km/h (5 Bft) 91,49 %
03.02.2019 19:40 0,2 C 3,3 C -0,6 C 90 % 1017,2 hPa 0,0 l/m 16,5 km/h (3 Bft) W 271 0 min 0,000 mm 0,0 UV-I 0 W/m -1,2 C -7,6 C 24,1 km/h (4 Bft) 90,57 %
03.02.2019 19:42 0,2 C 3,3 C -0,6 C 90 % 1017,3 hPa 0,0 l/m 16,6 km/h (3 Bft) W 274 0 min 0,000 mm 0,0 UV-I 0 W/m -1,2 C -7,7 C 25,7 km/h (4 Bft) 93,62 %
03.02.2019 19:44 0,2 C 3,3 C -0,6 C 90 % 1017,5 hPa 0,0 l/m 18,3 km/h (3 Bft) W 265 0 min 0,000 mm 0,0 UV-I 0 W/m -1,2 C -8,6 C 25,7 km/h (4 Bft) 95,74 %
03.02.2019 19:46 0,2 C 3,3 C -0,6 C 90 % 1017,4 hPa 0,0 l/m 17,2 km/h (3 Bft) W 264 0 min 0,000 mm 0,0 UV-I 0 W/m -1,2 C -8,0 C 27,4 km/h (4 Bft) 93,62 %
03.02.2019 19:48 0,1 C 3,3 C -0,6 C 90 % 1017,4 hPa 0,0 l/m 18,4 km/h (3 Bft) W-SW 257 0 min 0,000 mm 0,0 UV-I 0 W/m -1,3 C -8,7 C 25,7 km/h (4 Bft) 93,75 %
03.02.2019 19:50 0,1 C 3,3 C -0,6 C 90 % 1017,5 hPa 0,0 l/m 18,8 km/h (3 Bft) W 270 0 min 0,000 mm 0,0 UV-I 0 W/m -1,3 C -8,9 C 27,4 km/h (4 Bft) 97,87 %
03.02.2019 19:52 0,1 C 3,3 C -0,6 C 91 % 1017,6 hPa 0,0 l/m 20,8 km/h (4 Bft) W 259 0 min 0,000 mm 0,0 UV-I 0 W/m -1,2 C -9,9 C 29,0 km/h (5 Bft) 100,00 %
03.02.2019 19:54 0,1 C 3,3 C -0,6 C 91 % 1017,6 hPa 0,0 l/m 21,0 km/h (4 Bft) W-SW 242 0 min 0,000 mm 0,0 UV-I 0 W/m -1,2 C -10,0 C 33,8 km/h (5 Bft) 97,87 %
03.02.2019 19:56 0,1 C 3,3 C -0,6 C 91 % 1017,6 hPa 0,0 l/m 19,7 km/h (3 Bft) W 273 0 min 0,000 mm 0,0 UV-I 0 W/m -1,2 C -9,4 C 24,1 km/h (4 Bft) 97,87 %
03.02.2019 19:58 0,1 C 3,3 C -0,6 C 91 % 1017,7 hPa 0,0 l/m 19,8 km/h (3 Bft) W 265 0 min 0,000 mm 0,0 UV-I 0 W/m -1,2 C -9,4 C 29,0 km/h (5 Bft) 100,00 %
03.02.2019 20:00 0,0 C 3,3 C -0,6 C 91 % 1017,7 hPa 0,0 l/m 20,7 km/h (4 Bft) W 275 0 min 0,000 mm 0,0 UV-I 0 W/m -1,3 C -10,0 C 32,2 km/h (5 Bft) 98,11 %
03.02.2019 20:02 0,0 C 3,3 C -0,6 C 91 % 1017,7 hPa 0,0 l/m 21,0 km/h (4 Bft) W-NW 290 0 min 0,025 mm 0,0 UV-I 0 W/m -1,3 C -10,1 C 38,6 km/h (5 Bft) 98,00 %
03.02.2019 20:04 0,0 C 3,3 C -0,6 C 91 % 1017,7 hPa 0,0 l/m 20,4 km/h (4 Bft) W 266 0 min 0,000 mm 0,0 UV-I 0 W/m -1,3 C -9,8 C 27,4 km/h (4 Bft) 100,00 %
03.02.2019 20:06 0,0 C 3,3 C -0,6 C 91 % 1017,8 hPa 0,0 l/m 19,7 km/h (3 Bft) W 269 0 min 0,000 mm 0,0 UV-I 0 W/m -1,3 C -9,5 C 27,4 km/h (4 Bft) 95,74 %
03.02.2019 20:08 0,0 C 3,3 C -0,6 C 91 % 1017,8 hPa 0,0 l/m 19,0 km/h (3 Bft) W 274 0 min 0,000 mm 0,0 UV-I 0 W/m -1,3 C -9,2 C 29,0 km/h (5 Bft) 95,74 %
03.02.2019 20:10 0,0 C 3,3 C -0,6 C 91 % 1017,9 hPa 0,0 l/m 21,5 km/h (4 Bft) W-SW 252 0 min 0,000 mm 0,0 UV-I 0 W/m -1,3 C -10,3 C 38,6 km/h (5 Bft) 97,87 %
03.02.2019 20:12 -0,1 C 3,3 C -0,6 C 91 % 1017,9 hPa 0,0 l/m 22,2 km/h (4 Bft) SW 234 0 min 0,000 mm 0,0 UV-I 0 W/m -1,4 C -10,7 C 33,8 km/h (5 Bft) 97,87 %
03.02.2019 20:14 -0,1 C 3,3 C -0,6 C 91 % 1017,9 hPa 0,0 l/m 19,8 km/h (3 Bft) W-SW 251 0 min 0,000 mm 0,0 UV-I 0 W/m -1,4 C -9,7 C 29,0 km/h (5 Bft) 100,00 %
03.02.2019 20:16 -0,1 C 3,3 C -0,6 C 92 % 1018,0 hPa 0,0 l/m 17,1 km/h (3 Bft) W-SW 252 0 min 0,000 mm 0,0 UV-I 0 W/m -1,2 C -8,3 C 27,4 km/h (4 Bft) 100,00 %
03.02.2019 20:18 -0,1 C 3,3 C -0,6 C 92 % 1018,1 hPa 0,0 l/m 21,5 km/h (4 Bft) W 261 0 min 0,000 mm 0,0 UV-I 0 W/m -1,2 C -10,4 C 35,4 km/h (5 Bft) 98,00 %
03.02.2019 20:20 -0,1 C 3,3 C -0,6 C 92 % 1018,1 hPa 0,0 l/m 19,7 km/h (3 Bft) SW 236 0 min 0,000 mm 0,0 UV-I 0 W/m -1,2 C -9,6 C 29,0 km/h (5 Bft) 100,00 %
03.02.2019 20:22 -0,1 C 3,3 C -0,6 C 92 % 1018,2 hPa 0,0 l/m 14,5 km/h (3 Bft) W 271 0 min 0,000 mm 0,0 UV-I 0 W/m -1,2 C -6,8 C 20,9 km/h (4 Bft) 100,00 %
03.02.2019 20:24 -0,1 C 3,3 C -0,6 C 92 % 1018,3 hPa 0,0 l/m 18,1 km/h (3 Bft) W 267 0 min 0,000 mm 0,0 UV-I 0 W/m -1,2 C -8,8 C 24,1 km/h (4 Bft) 100,00 %
03.02.2019 20:26 -0,1 C 3,3 C -0,6 C 92 % 1018,3 hPa 0,0 l/m 18,9 km/h (3 Bft) W 271 0 min 0,000 mm 0,0 UV-I 0 W/m -1,2 C -9,2 C 35,4 km/h (5 Bft) 97,87 %
03.02.2019 20:28 -0,1 C 3,3 C -0,6 C 92 % 1018,4 hPa 0,0 l/m 23,2 km/h (4 Bft) W-SW 258 0 min 0,000 mm 0,0 UV-I 0 W/m -1,2 C -11,2 C 35,4 km/h (5 Bft) 100,00 %
03.02.2019 20:30 -0,1 C 3,3 C -0,6 C 92 % 1018,5 hPa 0,0 l/m 19,8 km/h (3 Bft) W-SW 250 0 min 0,000 mm 0,0 UV-I 0 W/m -1,2 C -9,7 C 37,0 km/h (5 Bft) 97,87 %
03.02.2019 20:32 -0,1 C 3,3 C -0,6 C 92 % 1018,5 hPa 0,0 l/m 18,9 km/h (3 Bft) W 264 0 min 0,000 mm 0,0 UV-I 0 W/m -1,2 C -9,2 C 25,7 km/h (4 Bft) 100,00 %
03.02.2019 20:34 -0,1 C 3,3 C -0,6 C 92 % 1018,6 hPa 0,0 l/m 19,8 km/h (3 Bft) W 277 0 min 0,000 mm 0,0 UV-I 0 W/m -1,2 C -9,7 C 29,0 km/h (5 Bft) 100,00 %
03.02.2019 20:36 -0,1 C 3,3 C -0,6 C 92 % 1018,6 hPa 0,0 l/m 17,4 km/h (3 Bft) NW 311 0 min 0,000 mm 0,0 UV-I 0 W/m -1,2 C -8,5 C 27,4 km/h (4 Bft) 98,00 %
03.02.2019 20:38 -0,1 C 3,3 C -0,6 C 92 % 1018,7 hPa 0,0 l/m 16,8 km/h (3 Bft) W 265 0 min 0,000 mm 0,0 UV-I 0 W/m -1,2 C -8,1 C 27,4 km/h (4 Bft) 100,00 %
03.02.2019 20:40 -0,1 C 3,3 C -0,6 C 92 % 1018,8 hPa 0,0 l/m 21,0 km/h (4 Bft) W 274 0 min 0,000 mm 0,0 UV-I 0 W/m -1,2 C -10,2 C 33,8 km/h (5 Bft) 100,00 %
03.02.2019 20:42 -0,1 C 3,3 C -0,6 C 92 % 1018,9 hPa 0,0 l/m 14,8 km/h (3 Bft) W 272 0 min 0,000 mm 0,0 UV-I 0 W/m -1,2 C -7,0 C 22,5 km/h (4 Bft) 100,00 %
03.02.2019 20:44 -0,1 C 3,3 C -0,6 C 92 % 1018,9 hPa 0,0 l/m 16,7 km/h (3 Bft) W 259 0 min 0,000 mm 0,0 UV-I 0 W/m -1,2 C -8,1 C 24,1 km/h (4 Bft) 95,74 %
03.02.2019 20:46 -0,1 C 3,3 C -0,6 C 92 % 1018,9 hPa 0,0 l/m 18,9 km/h (3 Bft) W-NW 288 0 min 0,000 mm 0,0 UV-I 0 W/m -1,2 C -9,2 C 27,4 km/h (4 Bft) 95,74 %
03.02.2019 20:48 -0,1 C 3,3 C -0,6 C 93 % 1018,9 hPa 0,0 l/m 19,6 km/h (3 Bft) NW 305 0 min 0,000 mm 0,0 UV-I 0 W/m -1,1 C -9,6 C 25,7 km/h (4 Bft) 97,87 %
03.02.2019 20:50 -0,1 C 3,3 C -0,6 C 92 % 1019,0 hPa 0,0 l/m 16,7 km/h (3 Bft) W 263 0 min 0,000 mm 0,0 UV-I 0 W/m -1,2 C -8,1 C 24,1 km/h (4 Bft) 97,87 %
03.02.2019 20:52 -0,1 C 3,3 C -0,6 C 92 % 1019,0 hPa 0,0 l/m 18,8 km/h (3 Bft) W 266 0 min 0,000 mm 0,0 UV-I 0 W/m -1,2 C -9,2 C 29,0 km/h (5 Bft) 98,11 %
03.02.2019 20:54 -0,1 C 3,3 C -0,6 C 93 % 1019,1 hPa 0,0 l/m 16,7 km/h (3 Bft) W 265 0 min 0,000 mm 0,0 UV-I 0 W/m -1,1 C -8,1 C 20,9 km/h (4 Bft) 96,00 %
03.02.2019 20:56 -0,1 C 3,3 C -0,6 C 93 % 1019,2 hPa 0,0 l/m 18,0 km/h (3 Bft) W 263 0 min 0,000 mm 0,0 UV-I 0 W/m -1,1 C -8,8 C 24,1 km/h (4 Bft) 97,37 %
03.02.2019 20:58 -0,1 C 3,3 C -0,6 C 93 % 1019,2 hPa 0,0 l/m 16,3 km/h (3 Bft) W 281 0 min 0,000 mm 0,0 UV-I 0 W/m -1,1 C -7,9 C 24,1 km/h (4 Bft) 93,62 %
03.02.2019 21:00 -0,1 C 3,3 C -0,6 C 93 % 1019,3 hPa 0,0 l/m 14,4 km/h (3 Bft) W 270 0 min 0,000 mm 0,0 UV-I 0 W/m -1,1 C -6,7 C 22,5 km/h (4 Bft) 97,92 %
03.02.2019 21:02 -0,1 C 3,3 C -0,6 C 93 % 1019,4 hPa 0,0 l/m 16,9 km/h (3 Bft) W 259 0 min 0,000 mm 0,0 UV-I 0 W/m -1,1 C -8,2 C 22,5 km/h (4 Bft) 97,87 %
03.02.2019 21:04 -0,1 C 3,3 C -0,6 C 93 % 1019,4 hPa 0,0 l/m 13,9 km/h (3 Bft) W-NW 288 0 min 0,000 mm 0,0 UV-I 0 W/m -1,1 C -6,4 C 20,9 km/h (4 Bft) 93,62 %
03.02.2019 21:06 -0,2 C 3,3 C -0,6 C 93 % 1019,4 hPa 0,0 l/m 16,3 km/h (3 Bft) W 259 0 min 0,000 mm 0,0 UV-I 0 W/m -1,2 C -8,0 C 27,4 km/h (4 Bft) 100,00 %
03.02.2019 21:08 -0,1 C 3,3 C -0,6 C 93 % 1019,4 hPa 0,0 l/m 16,7 km/h (3 Bft) W 263 0 min 0,000 mm 0,0 UV-I 0 W/m -1,1 C -8,1 C 22,5 km/h (4 Bft) 98,00 %
03.02.2019 21:10 -0,2 C 3,3 C -0,6 C 93 % 1019,5 hPa 0,0 l/m 14,5 km/h (3 Bft) W-SW 238 0 min 0,000 mm 0,0 UV-I 0 W/m -1,2 C -6,9 C 24,1 km/h (4 Bft) 100,00 %
03.02.2019 21:12 -0,2 C 3,3 C -0,6 C 93 % 1019,5 hPa 0,0 l/m 17,5 km/h (3 Bft) W 270 0 min 0,000 mm 0,0 UV-I 0 W/m -1,2 C -8,6 C 24,1 km/h (4 Bft) 95,74 %
03.02.2019 21:14 -0,2 C 3,3 C -0,6 C 93 % 1019,6 hPa 0,0 l/m 16,7 km/h (3 Bft) S-SW 212 0 min 0,000 mm 0,0 UV-I 0 W/m -1,2 C -8,2 C 24,1 km/h (4 Bft) 96,00 %
03.02.2019 21:16 -0,2 C 3,3 C -0,6 C 93 % 1019,6 hPa 0,0 l/m 19,1 km/h (3 Bft) W 273 0 min 0,000 mm 0,0 UV-I 0 W/m -1,2 C -9,5 C 32,2 km/h (5 Bft) 97,87 %
03.02.2019 21:18 -0,2 C 3,3 C -0,6 C 93 % 1019,7 hPa 0,0 l/m 17,8 km/h (3 Bft) W 261 0 min 0,000 mm 0,0 UV-I 0 W/m -1,2 C -8,8 C 22,5 km/h (4 Bft) 97,87 %
03.02.2019 21:20 -0,2 C 3,3 C -0,6 C 94 % 1019,9 hPa 0,0 l/m 19,7 km/h (3 Bft) W-SW 246 0 min 0,000 mm 0,0 UV-I 0 W/m -1,0 C -9,7 C 32,2 km/h (5 Bft) 97,87 %
03.02.2019 21:22 -0,2 C 3,3 C -0,6 C 94 % 1019,9 hPa 0,0 l/m 19,4 km/h (3 Bft) W-SW 254 0 min 0,000 mm 0,0 UV-I 0 W/m -1,0 C -9,6 C 32,2 km/h (5 Bft) 95,74 %
03.02.2019 21:24 -0,2 C 3,3 C -0,6 C 94 % 1019,9 hPa 0,0 l/m 15,9 km/h (3 Bft) W 274 0 min 0,000 mm 0,0 UV-I 0 W/m -1,0 C -7,8 C 24,1 km/h (4 Bft) 97,87 %
03.02.2019 21:26 -0,2 C 3,3 C -0,6 C 94 % 1019,9 hPa 0,0 l/m 15,5 km/h (3 Bft) W 268 0 min 0,000 mm 0,0 UV-I 0 W/m -1,0 C -7,5 C 20,9 km/h (4 Bft) 97,37 %
03.02.2019 21:28 -0,2 C 3,3 C -0,6 C 94 % 1020,0 hPa 0,0 l/m 19,6 km/h (3 Bft) W 277 0 min 0,000 mm 0,0 UV-I 0 W/m -1,0 C -9,7 C 29,0 km/h (5 Bft) 97,87 %
03.02.2019 21:30 -0,2 C 3,3 C -0,6 C 94 % 1020,0 hPa 0,0 l/m 22,0 km/h (4 Bft) SW 231 0 min 0,000 mm 0,0 UV-I 0 W/m -1,0 C -10,8 C 35,4 km/h (5 Bft) 97,87 %
03.02.2019 21:32 -0,3 C 3,3 C -0,6 C 94 % 1020,0 hPa 0,0 l/m 16,9 km/h (3 Bft) W-NW 288 0 min 0,000 mm 0,0 UV-I 0 W/m -1,1 C -8,4 C 25,7 km/h (4 Bft) 97,87 %
03.02.2019 21:34 -0,3 C 3,3 C -0,6 C 94 % 1020,1 hPa 0,0 l/m 19,6 km/h (3 Bft) W-SW 257 0 min 0,000 mm 0,0 UV-I 0 W/m -1,1 C -9,8 C 25,7 km/h (4 Bft) 93,62 %
03.02.2019 21:36 -0,3 C 3,3 C -0,6 C 94 % 1020,1 hPa 0,0 l/m 15,1 km/h (3 Bft) W 266 0 min 0,000 mm 0,0 UV-I 0 W/m -1,1 C -7,4 C 24,1 km/h (4 Bft) 97,87 %
03.02.2019 21:38 -0,3 C 3,3 C -0,6 C 94 % 1020,1 hPa 0,0 l/m 20,7 km/h (4 Bft) W 267 0 min 0,000 mm 0,0 UV-I 0 W/m -1,1 C -10,3 C 27,4 km/h (4 Bft) 97,92 %
03.02.2019 21:40 -0,3 C 3,3 C -0,6 C 94 % 1020,3 hPa 0,0 l/m 17,4 km/h (3 Bft) W 271 0 min 0,000 mm 0,0 UV-I 0 W/m -1,1 C -8,7 C 20,9 km/h (4 Bft) 98,00 %
03.02.2019 21:42 -0,3 C 3,3 C -0,6 C 94 % 1020,3 hPa 0,0 l/m 15,4 km/h (3 Bft) W-SW 258 0 min 0,000 mm 0,0 UV-I 0 W/m -1,1 C -7,6 C 19,3 km/h (3 Bft) 97,83 %
03.02.2019 21:44 -0,3 C 3,3 C -0,6 C 94 % 1020,3 hPa 0,0 l/m 17,2 km/h (3 Bft) W-SW 252 0 min 0,000 mm 0,0 UV-I 0 W/m -1,1 C -8,6 C 27,4 km/h (4 Bft) 97,87 %
03.02.2019 21:46 -0,3 C 3,3 C -0,6 C 94 % 1020,3 hPa 0,0 l/m 16,9 km/h (3 Bft) W 278 0 min 0,000 mm 0,0 UV-I 0 W/m -1,1 C -8,4 C 22,5 km/h (4 Bft) 98,00 %
03.02.2019 21:49 -0,3 C 3,3 C -0,6 C 94 % 1020,4 hPa 0,0 l/m 21,2 km/h (4 Bft) SW 234 0 min 0,000 mm 0,0 UV-I 0 W/m -1,1 C -10,6 C 32,2 km/h (5 Bft) 100,00 %
03.02.2019 21:50 -0,3 C 3,3 C -0,6 C 95 % 1020,4 hPa 0,0 l/m 17,9 km/h (3 Bft) W 265 0 min 0,000 mm 0,0 UV-I 0 W/m -1,0 C -9,0 C 24,1 km/h (4 Bft) 100,00 %
03.02.2019 21:52 -0,3 C 3,3 C -0,6 C 95 % 1020,5 hPa 0,0 l/m 16,4 km/h (3 Bft) W 275 0 min 0,000 mm 0,0 UV-I 0 W/m -1,0 C -8,2 C 22,5 km/h (4 Bft) 100,00 %
03.02.2019 21:54 -0,3 C 3,3 C -0,6 C 95 % 1020,6 hPa 0,0 l/m 14,8 km/h (3 Bft) W 271 0 min 0,000 mm 0,0 UV-I 0 W/m -1,0 C -7,2 C 19,3 km/h (3 Bft) 97,87 %
03.02.2019 21:56 -0,3 C 3,3 C -0,6 C 95 % 1020,6 hPa 0,0 l/m 16,4 km/h (3 Bft) W-SW 250 0 min 0,000 mm 0,0 UV-I 0 W/m -1,0 C -8,2 C 22,5 km/h (4 Bft) 100,00 %
03.02.2019 21:58 -0,3 C 3,3 C -0,6 C 95 % 1020,6 hPa 0,0 l/m 15,6 km/h (3 Bft) W 261 0 min 0,000 mm 0,0 UV-I 0 W/m -1,0 C -7,7 C 25,7 km/h (4 Bft) 96,00 %
03.02.2019 22:00 -0,3 C 3,3 C -0,6 C 95 % 1020,7 hPa 0,0 l/m 15,7 km/h (3 Bft) W 262 0 min 0,000 mm 0,0 UV-I 0 W/m -1,0 C -7,8 C 24,1 km/h (4 Bft) 97,87 %
03.02.2019 22:02 -0,3 C 3,3 C -0,6 C 95 % 1020,7 hPa 0,0 l/m 15,9 km/h (3 Bft) W-SW 253 0 min 0,000 mm 0,0 UV-I 0 W/m -1,0 C -7,9 C 22,5 km/h (4 Bft) 95,74 %
03.02.2019 22:04 -0,3 C 3,3 C -0,6 C 95 % 1020,8 hPa 0,0 l/m 14,6 km/h (3 Bft) W-SW 248 0 min 0,000 mm 0,0 UV-I 0 W/m -1,0 C -7,1 C 20,9 km/h (4 Bft) 97,87 %
03.02.2019 22:06 -0,3 C 3,3 C -0,6 C 95 % 1020,8 hPa 0,0 l/m 12,9 km/h (3 Bft) W 274 0 min 0,000 mm 0,0 UV-I 0 W/m -1,0 C -6,0 C 19,3 km/h (3 Bft) 95,74 %
03.02.2019 22:08 -0,4 C 3,3 C -0,6 C 95 % 1020,8 hPa 0,0 l/m 15,0 km/h (3 Bft) W 263 0 min 0,000 mm 0,0 UV-I 0 W/m -1,1 C -7,5 C 24,1 km/h (4 Bft) 95,74 %
03.02.2019 22:10 -0,4 C 3,3 C -0,6 C 95 % 1020,8 hPa 0,0 l/m 18,7 km/h (3 Bft) SW 225 0 min 0,000 mm 0,0 UV-I 0 W/m -1,1 C -9,5 C 25,7 km/h (4 Bft) 98,00 %
03.02.2019 22:12 -0,4 C 3,3 C -0,6 C 95 % 1021,0 hPa 0,0 l/m 15,5 km/h (3 Bft) W-SW 250 0 min 0,000 mm 0,0 UV-I 0 W/m -1,1 C -7,8 C 24,1 km/h (4 Bft) 95,74 %
03.02.2019 22:14 -0,4 C 3,3 C -0,6 C 95 % 1020,9 hPa 0,0 l/m 13,9 km/h (3 Bft) SW 217 0 min 0,000 mm 0,0 UV-I 0 W/m -1,1 C -6,8 C 20,9 km/h (4 Bft) 95,74 %
03.02.2019 22:16 -0,4 C 3,3 C -0,6 C 95 % 1021,1 hPa 0,0 l/m 15,9 km/h (3 Bft) W 271 0 min 0,000 mm 0,0 UV-I 0 W/m -1,1 C -8,0 C 22,5 km/h (4 Bft) 97,87 %
03.02.2019 22:18 -0,4 C 3,3 C -0,6 C 95 % 1021,1 hPa 0,0 l/m 15,3 km/h (3 Bft) W 272 0 min 0,000 mm 0,0 UV-I 0 W/m -1,1 C -7,6 C 20,9 km/h (4 Bft) 97,87 %
03.02.2019 22:20 -0,4 C 3,3 C -0,6 C 95 % 1021,1 hPa 0,0 l/m 16,0 km/h (3 Bft) W-SW 257 0 min 0,000 mm 0,0 UV-I 0 W/m -1,1 C -8,1 C 25,7 km/h (4 Bft) 95,74 %
03.02.2019 22:22 -0,4 C 3,3 C -0,6 C 95 % 1021,2 hPa 0,2 l/m 17,1 km/h (3 Bft) W-SW 254 0 min 0,000 mm 0,0 UV-I 0 W/m -1,1 C -8,7 C 27,4 km/h (4 Bft) 97,87 %
03.02.2019 22:24 -0,4 C 3,3 C -0,6 C 95 % 1021,2 hPa 0,0 l/m 13,9 km/h (3 Bft) W 269 0 min 0,000 mm 0,0 UV-I 0 W/m -1,1 C -6,8 C 19,3 km/h (3 Bft) 100,00 %
03.02.2019 22:26 -0,4 C 3,3 C -0,6 C 95 % 1021,3 hPa 0,0 l/m 14,6 km/h (3 Bft) SW 227 0 min 0,000 mm 0,0 UV-I 0 W/m -1,1 C -7,2 C 24,1 km/h (4 Bft) 97,87 %
03.02.2019 22:28 -0,4 C 3,3 C -0,6 C 95 % 1021,3 hPa 0,0 l/m 16,4 km/h (3 Bft) W 263 0 min 0,000 mm 0,0 UV-I 0 W/m -1,1 C -8,3 C 25,7 km/h (4 Bft) 100,00 %
03.02.2019 22:30 -0,4 C 3,3 C -0,6 C 95 % 1021,4 hPa 0,0 l/m 13,8 km/h (3 Bft) W-SW 250 0 min 0,000 mm 0,0 UV-I 0 W/m -1,1 C -6,7 C 20,9 km/h (4 Bft) 100,00 %
03.02.2019 22:32 -0,4 C 3,3 C -0,6 C 95 % 1021,4 hPa 0,0 l/m 12,2 km/h (2 Bft) W 276 0 min 0,000 mm 0,0 UV-I 0 W/m -1,1 C -5,6 C 14,5 km/h (3 Bft) 93,62 %
03.02.2019 22:34 -0,4 C 3,3 C -0,6 C 95 % 1021,4 hPa 0,0 l/m 12,0 km/h (2 Bft) W 278 0 min 0,000 mm 0,0 UV-I 0 W/m -1,1 C -5,5 C 22,5 km/h (4 Bft) 98,00 %
03.02.2019 22:36 -0,4 C 3,3 C -0,6 C 95 % 1021,5 hPa 0,0 l/m 15,5 km/h (3 Bft) W-SW 242 0 min 0,000 mm 0,0 UV-I 0 W/m -1,1 C -7,8 C 24,1 km/h (4 Bft) 98,00 %
03.02.2019 22:38 -0,4 C 3,3 C -0,6 C 95 % 1021,6 hPa 0,0 l/m 13,4 km/h (3 Bft) W 261 0 min 0,000 mm 0,0 UV-I 0 W/m -1,1 C -6,4 C 19,3 km/h (3 Bft) 100,00 %
03.02.2019 22:40 -0,4 C 3,3 C -0,6 C 95 % 1021,6 hPa 0,0 l/m 15,0 km/h (3 Bft) W 269 0 min 0,000 mm 0,0 UV-I 0 W/m -1,1 C -7,5 C 24,1 km/h (4 Bft) 100,00 %
03.02.2019 22:42 -0,4 C 3,3 C -0,6 C 95 % 1021,6 hPa 0,2 l/m 14,9 km/h (3 Bft) W 271 0 min 0,000 mm 0,0 UV-I 0 W/m -1,1 C -7,4 C 22,5 km/h (4 Bft) 100,00 %
03.02.2019 22:44 -0,4 C 3,3 C -0,6 C 95 % 1021,7 hPa 0,0 l/m 13,6 km/h (3 Bft) W 273 0 min 0,000 mm 0,0 UV-I 0 W/m -1,1 C -6,6 C 19,3 km/h (3 Bft) 97,87 %
03.02.2019 22:46 -0,4 C 3,3 C -0,6 C 95 % 1021,8 hPa 0,0 l/m 12,7 km/h (3 Bft) W-SW 247 0 min 0,000 mm 0,0 UV-I 0 W/m -1,1 C -6,0 C 22,5 km/h (4 Bft) 97,87 %
03.02.2019 22:49 -0,4 C 3,3 C -0,6 C 95 % 1021,8 hPa 0,0 l/m 15,2 km/h (3 Bft) W 261 0 min 0,000 mm 0,0 UV-I 0 W/m -1,1 C -7,6 C 27,4 km/h (4 Bft) 100,00 %
03.02.2019 22:50 -0,4 C 3,3 C -0,6 C 95 % 1021,8 hPa 0,0 l/m 15,6 km/h (3 Bft) W-SW 238 0 min 0,000 mm 0,0 UV-I 0 W/m -1,1 C -7,8 C 24,1 km/h (4 Bft) 100,00 %
03.02.2019 22:52 -0,4 C 3,3 C -0,6 C 95 % 1021,8 hPa 0,0 l/m 13,2 km/h (3 Bft) SW 223 0 min 0,000 mm 0,0 UV-I 0 W/m -1,1 C -6,3 C 20,9 km/h (4 Bft) 95,74 %
03.02.2019 22:54 -0,4 C 3,3 C -0,6 C 96 % 1021,9 hPa 0,0 l/m 11,2 km/h (2 Bft) W-SW 239 0 min 0,000 mm 0,0 UV-I 0 W/m -1,0 C -4,9 C 19,3 km/h (3 Bft) 100,00 %
03.02.2019 22:56 -0,4 C 3,3 C -0,6 C 96 % 1022,0 hPa 0,2 l/m 13,2 km/h (3 Bft) W-SW 246 0 min 0,000 mm 0,0 UV-I 0 W/m -1,0 C -6,3 C 20,9 km/h (4 Bft) 95,74 %
03.02.2019 22:58 -0,4 C 3,3 C -0,6 C 96 % 1022,0 hPa 0,0 l/m 12,5 km/h (3 Bft) W 266 0 min 0,000 mm 0,0 UV-I 0 W/m -1,0 C -5,8 C 19,3 km/h (3 Bft) 95,83 %
03.02.2019 23:00 -0,4 C 3,3 C -0,6 C 96 % 1022,0 hPa 0,0 l/m 11,0 km/h (2 Bft) W-SW 244 0 min 0,000 mm 0,0 UV-I 0 W/m -1,0 C -4,7 C 16,1 km/h (3 Bft) 97,87 %
03.02.2019 23:02 -0,4 C 3,3 C -0,6 C 96 % 1022,1 hPa 0,0 l/m 12,0 km/h (2 Bft) SW 230 0 min 0,000 mm 0,0 UV-I 0 W/m -1,0 C -5,5 C 17,7 km/h (3 Bft) 97,87 %
03.02.2019 23:04 -0,4 C 3,3 C -0,6 C 96 % 1022,2 hPa 0,0 l/m 13,1 km/h (3 Bft) W 267 0 min 0,000 mm 0,0 UV-I 0 W/m -1,0 C -6,2 C 17,7 km/h (3 Bft) 95,74 %
03.02.2019 23:06 -0,4 C 3,3 C -0,6 C 96 % 1022,2 hPa 0,0 l/m 12,7 km/h (3 Bft) W 271 0 min 0,000 mm 0,0 UV-I 0 W/m -1,0 C -6,0 C 20,9 km/h (4 Bft) 95,74 %
03.02.2019 23:09 -0,4 C 3,3 C -0,6 C 96 % 1022,2 hPa 0,2 l/m 14,7 km/h (3 Bft) W 272 0 min 0,000 mm 0,0 UV-I 0 W/m -1,0 C -7,3 C 22,5 km/h (4 Bft) 97,26 %
03.02.2019 23:10 -0,4 C 3,3 C -0,6 C 96 % 1022,2 hPa 0,0 l/m 15,1 km/h (3 Bft) SW 236 0 min 0,000 mm 0,0 UV-I 0 W/m -1,0 C -7,5 C 20,9 km/h (4 Bft) 100,00 %
03.02.2019 23:12 -0,4 C 3,3 C -0,6 C 96 % 1022,3 hPa 0,0 l/m 14,4 km/h (3 Bft) W 260 0 min 0,000 mm 0,0 UV-I 0 W/m -1,0 C -7,1 C 20,9 km/h (4 Bft) 92,45 %
03.02.2019 23:14 -0,4 C 3,3 C -0,6 C 96 % 1022,3 hPa 0,0 l/m 15,8 km/h (3 Bft) W 269 0 min 0,000 mm 0,0 UV-I 0 W/m -1,0 C -7,9 C 22,5 km/h (4 Bft) 92,00 %
03.02.2019 23:16 -0,4 C 3,3 C -0,6 C 96 % 1022,4 hPa 0,0 l/m 12,4 km/h (3 Bft) W-SW 248 0 min 0,000 mm 0,0 UV-I 0 W/m -1,0 C -5,8 C 22,5 km/h (4 Bft) 95,74 %
03.02.2019 23:18 -0,4 C 3,3 C -0,6 C 96 % 1022,5 hPa 0,0 l/m 15,3 km/h (3 Bft) W-SW 250 0 min 0,000 mm 0,0 UV-I 0 W/m -1,0 C -7,6 C 22,5 km/h (4 Bft) 93,62 %
03.02.2019 23:20 -0,4 C 3,3 C -0,6 C 96 % 1022,6 hPa 0,0 l/m 13,0 km/h (3 Bft) W 273 0 min 0,000 mm 0,0 UV-I 0 W/m -1,0 C -6,2 C 17,7 km/h (3 Bft) 92,11 %
03.02.2019 23:22 -0,4 C 3,3 C -0,6 C 96 % 1022,6 hPa 0,0 l/m 12,0 km/h (2 Bft) SW 220 0 min 0,000 mm 0,0 UV-I 0 W/m -1,0 C -5,5 C 19,3 km/h (3 Bft) 92,00 %
03.02.2019 23:24 -0,4 C 3,3 C -0,6 C 96 % 1022,6 hPa 0,0 l/m 14,3 km/h (3 Bft) SW 229 0 min 0,000 mm 0,0 UV-I 0 W/m -1,0 C -7,0 C 20,9 km/h (4 Bft) 92,00 %
03.02.2019 23:26 -0,4 C 3,3 C -0,6 C 96 % 1022,7 hPa 0,0 l/m 13,0 km/h (3 Bft) W 265 0 min 0,000 mm 0,0 UV-I 0 W/m -1,0 C -6,2 C 17,7 km/h (3 Bft) 93,62 %
03.02.2019 23:28 -0,4 C 3,3 C -0,6 C 96 % 1022,7 hPa 0,0 l/m 16,3 km/h (3 Bft) SW 223 0 min 0,000 mm 0,0 UV-I 0 W/m -1,0 C -8,2 C 20,9 km/h (4 Bft) 94,29 %
03.02.2019 23:30 -0,4 C 3,3 C -0,6 C 96 % 1022,7 hPa 0,0 l/m 14,1 km/h (3 Bft) W-SW 243 0 min 0,000 mm 0,0 UV-I 0 W/m -1,0 C -6,9 C 19,3 km/h (3 Bft) 92,00 %
03.02.2019 23:32 -0,4 C 3,3 C -0,6 C 96 % 1022,8 hPa 0,0 l/m 14,3 km/h (3 Bft) W-NW 284 0 min 0,000 mm 0,0 UV-I 0 W/m -1,0 C -7,0 C 25,7 km/h (4 Bft) 90,00 %
03.02.2019 23:34 -0,4 C 3,3 C -0,6 C 96 % 1022,8 hPa 0,0 l/m 14,7 km/h (3 Bft) W 260 0 min 0,000 mm 0,0 UV-I 0 W/m -1,0 C -7,3 C 19,3 km/h (3 Bft) 93,75 %
03.02.2019 23:36 -0,4 C 3,3 C -0,6 C 96 % 1022,8 hPa 0,0 l/m 14,0 km/h (3 Bft) W-SW 256 0 min 0,000 mm 0,0 UV-I 0 W/m -1,0 C -6,8 C 20,9 km/h (4 Bft) 95,74 %
03.02.2019 23:39 -0,4 C 3,3 C -0,6 C 96 % 1022,9 hPa 0,0 l/m 15,2 km/h (3 Bft) W-SW 248 0 min 0,000 mm 0,0 UV-I 0 W/m -1,0 C -7,6 C 24,1 km/h (4 Bft) 94,29 %
03.02.2019 23:40 -0,4 C 3,3 C -0,6 C 96 % 1022,9 hPa 0,0 l/m 15,3 km/h (3 Bft) W-SW 257 0 min 0,000 mm 0,0 UV-I 0 W/m -1,0 C -7,6 C 20,9 km/h (4 Bft) 95,83 %
03.02.2019 23:42 -0,4 C 3,3 C -0,6 C 96 % 1023,0 hPa 0,0 l/m 17,0 km/h (3 Bft) W 269 0 min 0,000 mm 0,0 UV-I 0 W/m -1,0 C -8,6 C 24,1 km/h (4 Bft) 91,49 %
03.02.2019 23:44 -0,4 C 3,3 C -0,6 C 96 % 1023,0 hPa 0,0 l/m 16,6 km/h (3 Bft) W-SW 254 0 min 0,000 mm 0,0 UV-I 0 W/m -1,0 C -8,4 C 20,9 km/h (4 Bft) 91,49 %
03.02.2019 23:46 -0,4 C 3,3 C -0,6 C 96 % 1023,0 hPa 0,0 l/m 15,9 km/h (3 Bft) W 263 0 min 0,000 mm 0,0 UV-I 0 W/m -1,0 C -8,0 C 19,3 km/h (3 Bft) 95,74 %
03.02.2019 23:48 -0,4 C 3,3 C -0,6 C 96 % 1023,0 hPa 0,0 l/m 17,3 km/h (3 Bft) W-SW 256 0 min 0,000 mm 0,0 UV-I 0 W/m -1,0 C -8,8 C 22,5 km/h (4 Bft) 95,74 %
03.02.2019 23:50 -0,4 C 3,3 C -0,6 C 96 % 1023,1 hPa 0,2 l/m 17,3 km/h (3 Bft) W 266 0 min 0,000 mm 0,0 UV-I 0 W/m -1,0 C -8,8 C 27,4 km/h (4 Bft) 95,74 %
03.02.2019 23:52 -0,4 C 3,3 C -0,6 C 96 % 1023,2 hPa 0,0 l/m 16,5 km/h (3 Bft) W-SW 246 0 min 0,000 mm 0,0 UV-I 0 W/m -1,0 C -8,3 C 27,4 km/h (4 Bft) 95,74 %
03.02.2019 23:54 -0,4 C 3,3 C -0,6 C 96 % 1023,2 hPa 0,0 l/m 16,6 km/h (3 Bft) W-SW 243 0 min 0,000 mm 0,0 UV-I 0 W/m -1,0 C -8,4 C 25,7 km/h (4 Bft) 95,74 %
03.02.2019 23:56 -0,4 C 3,3 C -0,6 C 96 % 1023,2 hPa 0,0 l/m 16,6 km/h (3 Bft) W-NW 291 0 min 0,000 mm 0,0 UV-I 0 W/m -1,0 C -8,4 C 22,5 km/h (4 Bft) 91,49 %
03.02.2019 23:59 -0,4 C 3,3 C -0,6 C 96 % 1023,3 hPa 0,0 l/m 17,3 km/h (3 Bft) W-SW 256 0 min 0,000 mm 0,0 UV-I 0 W/m -1,0 C -8,8 C 27,4 km/h (4 Bft) 97,18 %
_ Min-Zeit 22:06 00:00 19:26 14:10 03:34 - 00:14 - - - - - - 20:12 20:28 00:14 09:20
Minimum _ -0,4 C 3,3 C -0,6 C 86 % 999,0 hPa - 0,0 km/h (0 Bft) - - - - - - -1,4 C -11,2 C 0,0 km/h (0 Bft) 89,19 %
_ Max-Zeit 13:18 00:00 11:10 01:04 23:59 00:28 17:00 - - 10:36 12:00 10:42 11:50 11:12 00:00 17:00 00:08
Maximum _ 3,0 C 3,3 C 5,0 C 97 % 1023,3 hPa 0,2 l/m 26,5 km/h
W-SW (4 Bft)
- - 2 min 0,076 mm 0,6 UV-I 269 W/m 2,0 C 1,9 C 43,5 km/h
W-SW (6 Bft)
100,00 %
Durchschnitt _ 1,2 C 3,3 C 1,0 C 94 % 1008,4 hPa #12,4 l/m 13,1 km/h (3 Bft) W - #22 min. #0,406 mm 0,5 UV-I 79 W/m 0,3 C -4,2 C 19,7 km/h (3 Bft) 96,89 %